﻿<?xml version="1.0" encoding="UTF-8" standalone="no"?>
<gpx xmlns="http://www.topografix.com/GPX/1/1" xmlns:gpxtpx="http://www.garmin.com/xmlschemas/TrackPointExtension/v1" xmlns:xsi="http://www.w3.org/2001/XMLSchema-instance" creator="Hribi.net" version="1.1" xsi:schemaLocation="http://www.topografix.com/GPX/1/1 http://www.topografix.com/GPX/1/1/gpx.xsd http://www.garmin.com/xmlschemas/TrackPointExtension/v1 http://www.garmin.com/xmlschemas/TrackPointExtensionv1.xsd">
  <metadata>
    <name>GPS sled</name>
    <desc>www.hribi.net</desc>
    <author>
      <name>hribi.net</name>
    </author>
    <link href="http://www.hribi.net">
      <text>Hribi.net</text>
    </link>
  </metadata>
  <trk>
    <trkseg>
      <trkpt lat="46.323521" lon="15.043899">
        <ele>258.4704</ele>
        <time>2010-12-13T05:42:40Z</time>
      </trkpt>
      <trkpt lat="46.323521" lon="15.043899">
        <ele>262.4328</ele>
        <time>2010-12-13T05:42:41Z</time>
      </trkpt>
      <trkpt lat="46.323521" lon="15.043899">
        <ele>259.08</ele>
        <time>2010-12-13T05:42:50Z</time>
      </trkpt>
      <trkpt lat="46.323521" lon="15.043899">
        <ele>263.3472</ele>
        <time>2010-12-13T05:42:51Z</time>
      </trkpt>
      <trkpt lat="46.323521" lon="15.043899">
        <ele>259.9944</ele>
        <time>2010-12-13T05:42:52Z</time>
      </trkpt>
      <trkpt lat="46.323517" lon="15.043881">
        <ele>262.128</ele>
        <time>2010-12-13T05:43:07Z</time>
      </trkpt>
      <trkpt lat="46.323517" lon="15.043881">
        <ele>262.128</ele>
        <time>2010-12-13T05:43:30Z</time>
      </trkpt>
      <trkpt lat="46.323528" lon="15.043883">
        <ele>263.3472</ele>
        <time>2010-12-13T05:43:48Z</time>
      </trkpt>
      <trkpt lat="46.323532" lon="15.043903">
        <ele>263.3472</ele>
        <time>2010-12-13T05:43:50Z</time>
      </trkpt>
      <trkpt lat="46.323532" lon="15.043900">
        <ele>263.9568</ele>
        <time>2010-12-13T05:44:01Z</time>
      </trkpt>
      <trkpt lat="46.323505" lon="15.043887">
        <ele>263.9568</ele>
        <time>2010-12-13T05:44:09Z</time>
      </trkpt>
      <trkpt lat="46.323444" lon="15.043907">
        <ele>264.2616</ele>
        <time>2010-12-13T05:44:13Z</time>
      </trkpt>
      <trkpt lat="46.323376" lon="15.043933">
        <ele>263.9568</ele>
        <time>2010-12-13T05:44:19Z</time>
      </trkpt>
      <trkpt lat="46.323200" lon="15.044080">
        <ele>263.3472</ele>
        <time>2010-12-13T05:44:32Z</time>
      </trkpt>
      <trkpt lat="46.323006" lon="15.044316">
        <ele>263.9568</ele>
        <time>2010-12-13T05:44:50Z</time>
      </trkpt>
      <trkpt lat="46.322948" lon="15.044387">
        <ele>264.2616</ele>
        <time>2010-12-13T05:44:55Z</time>
      </trkpt>
      <trkpt lat="46.322880" lon="15.044413">
        <ele>263.9568</ele>
        <time>2010-12-13T05:45:00Z</time>
      </trkpt>
      <trkpt lat="46.322788" lon="15.044389">
        <ele>265.7856</ele>
        <time>2010-12-13T05:45:09Z</time>
      </trkpt>
      <trkpt lat="46.322792" lon="15.044283">
        <ele>265.4808</ele>
        <time>2010-12-13T05:45:14Z</time>
      </trkpt>
      <trkpt lat="46.322788" lon="15.043883">
        <ele>266.3952</ele>
        <time>2010-12-13T05:45:32Z</time>
      </trkpt>
      <trkpt lat="46.322685" lon="15.043548">
        <ele>265.4808</ele>
        <time>2010-12-13T05:45:49Z</time>
      </trkpt>
      <trkpt lat="46.322559" lon="15.043268">
        <ele>264.8712</ele>
        <time>2010-12-13T05:46:04Z</time>
      </trkpt>
      <trkpt lat="46.322491" lon="15.042928">
        <ele>265.4808</ele>
        <time>2010-12-13T05:46:20Z</time>
      </trkpt>
      <trkpt lat="46.322525" lon="15.042567">
        <ele>265.4808</ele>
        <time>2010-12-13T05:46:36Z</time>
      </trkpt>
      <trkpt lat="46.322533" lon="15.042528">
        <ele>265.7856</ele>
        <time>2010-12-13T05:46:39Z</time>
      </trkpt>
      <trkpt lat="46.322533" lon="15.042436">
        <ele>266.7</ele>
        <time>2010-12-13T05:46:43Z</time>
      </trkpt>
      <trkpt lat="46.322533" lon="15.042320">
        <ele>266.3952</ele>
        <time>2010-12-13T05:46:47Z</time>
      </trkpt>
      <trkpt lat="46.322521" lon="15.041988">
        <ele>266.7</ele>
        <time>2010-12-13T05:47:02Z</time>
      </trkpt>
      <trkpt lat="46.322441" lon="15.041703">
        <ele>266.7</ele>
        <time>2010-12-13T05:47:18Z</time>
      </trkpt>
      <trkpt lat="46.322319" lon="15.041466">
        <ele>267.3096</ele>
        <time>2010-12-13T05:47:32Z</time>
      </trkpt>
      <trkpt lat="46.322220" lon="15.041185">
        <ele>267.3096</ele>
        <time>2010-12-13T05:47:47Z</time>
      </trkpt>
      <trkpt lat="46.322113" lon="15.040800">
        <ele>267.9192</ele>
        <time>2010-12-13T05:48:05Z</time>
      </trkpt>
      <trkpt lat="46.322277" lon="15.040542">
        <ele>268.8336</ele>
        <time>2010-12-13T05:48:23Z</time>
      </trkpt>
      <trkpt lat="46.322559" lon="15.040263">
        <ele>270.0528</ele>
        <time>2010-12-13T05:48:43Z</time>
      </trkpt>
      <trkpt lat="46.322697" lon="15.040019">
        <ele>270.6624</ele>
        <time>2010-12-13T05:48:59Z</time>
      </trkpt>
      <trkpt lat="46.322842" lon="15.039774">
        <ele>271.5768</ele>
        <time>2010-12-13T05:49:13Z</time>
      </trkpt>
      <trkpt lat="46.323082" lon="15.039538">
        <ele>272.4912</ele>
        <time>2010-12-13T05:49:33Z</time>
      </trkpt>
      <trkpt lat="46.323364" lon="15.039368">
        <ele>273.1008</ele>
        <time>2010-12-13T05:49:52Z</time>
      </trkpt>
      <trkpt lat="46.323650" lon="15.039215">
        <ele>274.0152</ele>
        <time>2010-12-13T05:50:12Z</time>
      </trkpt>
      <trkpt lat="46.323917" lon="15.039019">
        <ele>274.9296</ele>
        <time>2010-12-13T05:50:33Z</time>
      </trkpt>
      <trkpt lat="46.324200" lon="15.038752">
        <ele>275.5392</ele>
        <time>2010-12-13T05:50:56Z</time>
      </trkpt>
      <trkpt lat="46.324448" lon="15.038587">
        <ele>276.1488</ele>
        <time>2010-12-13T05:51:13Z</time>
      </trkpt>
      <trkpt lat="46.324783" lon="15.038337">
        <ele>275.5392</ele>
        <time>2010-12-13T05:51:39Z</time>
      </trkpt>
      <trkpt lat="46.325134" lon="15.038113">
        <ele>276.1488</ele>
        <time>2010-12-13T05:52:03Z</time>
      </trkpt>
      <trkpt lat="46.325424" lon="15.037955">
        <ele>277.0632</ele>
        <time>2010-12-13T05:52:23Z</time>
      </trkpt>
      <trkpt lat="46.325790" lon="15.037772">
        <ele>277.368</ele>
        <time>2010-12-13T05:52:49Z</time>
      </trkpt>
      <trkpt lat="46.326080" lon="15.037582">
        <ele>278.2824</ele>
        <time>2010-12-13T05:53:11Z</time>
      </trkpt>
      <trkpt lat="46.326305" lon="15.037276">
        <ele>278.2824</ele>
        <time>2010-12-13T05:53:32Z</time>
      </trkpt>
      <trkpt lat="46.326488" lon="15.036966">
        <ele>278.892</ele>
        <time>2010-12-13T05:53:51Z</time>
      </trkpt>
      <trkpt lat="46.326725" lon="15.036581">
        <ele>278.2824</ele>
        <time>2010-12-13T05:54:14Z</time>
      </trkpt>
      <trkpt lat="46.326996" lon="15.036382">
        <ele>278.2824</ele>
        <time>2010-12-13T05:54:34Z</time>
      </trkpt>
      <trkpt lat="46.327217" lon="15.036598">
        <ele>279.1968</ele>
        <time>2010-12-13T05:54:52Z</time>
      </trkpt>
      <trkpt lat="46.327415" lon="15.036882">
        <ele>280.1112</ele>
        <time>2010-12-13T05:55:09Z</time>
      </trkpt>
      <trkpt lat="46.327568" lon="15.037112">
        <ele>281.3304</ele>
        <time>2010-12-13T05:55:24Z</time>
      </trkpt>
      <trkpt lat="46.327721" lon="15.037327">
        <ele>282.5496</ele>
        <time>2010-12-13T05:55:38Z</time>
      </trkpt>
      <trkpt lat="46.327950" lon="15.037308">
        <ele>281.6352</ele>
        <time>2010-12-13T05:55:54Z</time>
      </trkpt>
      <trkpt lat="46.328129" lon="15.037136">
        <ele>282.2448</ele>
        <time>2010-12-13T05:56:10Z</time>
      </trkpt>
      <trkpt lat="46.328293" lon="15.036926">
        <ele>282.2448</ele>
        <time>2010-12-13T05:56:25Z</time>
      </trkpt>
      <trkpt lat="46.328457" lon="15.036682">
        <ele>281.6352</ele>
        <time>2010-12-13T05:56:41Z</time>
      </trkpt>
      <trkpt lat="46.328640" lon="15.036386">
        <ele>282.2448</ele>
        <time>2010-12-13T05:57:00Z</time>
      </trkpt>
      <trkpt lat="46.328739" lon="15.036036">
        <ele>283.1592</ele>
        <time>2010-12-13T05:57:18Z</time>
      </trkpt>
      <trkpt lat="46.328770" lon="15.035643">
        <ele>283.464</ele>
        <time>2010-12-13T05:57:36Z</time>
      </trkpt>
      <trkpt lat="46.328869" lon="15.035260">
        <ele>284.6832</ele>
        <time>2010-12-13T05:57:55Z</time>
      </trkpt>
      <trkpt lat="46.328930" lon="15.034970">
        <ele>284.0736</ele>
        <time>2010-12-13T05:58:10Z</time>
      </trkpt>
      <trkpt lat="46.329002" lon="15.034593">
        <ele>284.6832</ele>
        <time>2010-12-13T05:58:29Z</time>
      </trkpt>
      <trkpt lat="46.329029" lon="15.034493">
        <ele>284.6832</ele>
        <time>2010-12-13T05:58:33Z</time>
      </trkpt>
      <trkpt lat="46.329082" lon="15.034144">
        <ele>284.6832</ele>
        <time>2010-12-13T05:58:49Z</time>
      </trkpt>
      <trkpt lat="46.329037" lon="15.033835">
        <ele>284.988</ele>
        <time>2010-12-13T05:59:06Z</time>
      </trkpt>
      <trkpt lat="46.329060" lon="15.033469">
        <ele>285.5976</ele>
        <time>2010-12-13T05:59:22Z</time>
      </trkpt>
      <trkpt lat="46.329086" lon="15.033282">
        <ele>285.5976</ele>
        <time>2010-12-13T05:59:31Z</time>
      </trkpt>
      <trkpt lat="46.329063" lon="15.033022">
        <ele>285.5976</ele>
        <time>2010-12-13T05:59:43Z</time>
      </trkpt>
      <trkpt lat="46.329151" lon="15.032687">
        <ele>287.1216</ele>
        <time>2010-12-13T06:00:01Z</time>
      </trkpt>
      <trkpt lat="46.329155" lon="15.032652">
        <ele>287.1216</ele>
        <time>2010-12-13T06:00:02Z</time>
      </trkpt>
      <trkpt lat="46.329220" lon="15.032324">
        <ele>286.512</ele>
        <time>2010-12-13T06:00:17Z</time>
      </trkpt>
      <trkpt lat="46.329155" lon="15.032120">
        <ele>287.1216</ele>
        <time>2010-12-13T06:00:29Z</time>
      </trkpt>
      <trkpt lat="46.329067" lon="15.031861">
        <ele>287.4264</ele>
        <time>2010-12-13T06:00:44Z</time>
      </trkpt>
      <trkpt lat="46.328987" lon="15.031589">
        <ele>287.4264</ele>
        <time>2010-12-13T06:00:59Z</time>
      </trkpt>
      <trkpt lat="46.328804" lon="15.031328">
        <ele>287.4264</ele>
        <time>2010-12-13T06:01:17Z</time>
      </trkpt>
      <trkpt lat="46.328663" lon="15.031100">
        <ele>287.4264</ele>
        <time>2010-12-13T06:01:30Z</time>
      </trkpt>
      <trkpt lat="46.328655" lon="15.031045">
        <ele>287.1216</ele>
        <time>2010-12-13T06:01:34Z</time>
      </trkpt>
      <trkpt lat="46.328823" lon="15.030765">
        <ele>288.036</ele>
        <time>2010-12-13T06:01:53Z</time>
      </trkpt>
      <trkpt lat="46.328949" lon="15.030587">
        <ele>288.036</ele>
        <time>2010-12-13T06:02:08Z</time>
      </trkpt>
      <trkpt lat="46.329117" lon="15.030298">
        <ele>288.3408</ele>
        <time>2010-12-13T06:02:25Z</time>
      </trkpt>
      <trkpt lat="46.329266" lon="15.030130">
        <ele>288.3408</ele>
        <time>2010-12-13T06:02:36Z</time>
      </trkpt>
      <trkpt lat="46.329453" lon="15.029852">
        <ele>289.2552</ele>
        <time>2010-12-13T06:02:54Z</time>
      </trkpt>
      <trkpt lat="46.329567" lon="15.029608">
        <ele>291.3888</ele>
        <time>2010-12-13T06:03:07Z</time>
      </trkpt>
      <trkpt lat="46.329620" lon="15.029411">
        <ele>292.3032</ele>
        <time>2010-12-13T06:03:21Z</time>
      </trkpt>
      <trkpt lat="46.329689" lon="15.029322">
        <ele>293.2176</ele>
        <time>2010-12-13T06:03:26Z</time>
      </trkpt>
      <trkpt lat="46.329746" lon="15.029050">
        <ele>295.3512</ele>
        <time>2010-12-13T06:03:41Z</time>
      </trkpt>
      <trkpt lat="46.329838" lon="15.028809">
        <ele>296.2656</ele>
        <time>2010-12-13T06:03:56Z</time>
      </trkpt>
      <trkpt lat="46.329964" lon="15.028568">
        <ele>298.704</ele>
        <time>2010-12-13T06:04:09Z</time>
      </trkpt>
      <trkpt lat="46.330154" lon="15.028416">
        <ele>299.3136</ele>
        <time>2010-12-13T06:04:27Z</time>
      </trkpt>
      <trkpt lat="46.330326" lon="15.028233">
        <ele>299.0088</ele>
        <time>2010-12-13T06:04:42Z</time>
      </trkpt>
      <trkpt lat="46.330479" lon="15.028034">
        <ele>300.5328</ele>
        <time>2010-12-13T06:04:57Z</time>
      </trkpt>
      <trkpt lat="46.330517" lon="15.027987">
        <ele>299.9232</ele>
        <time>2010-12-13T06:05:01Z</time>
      </trkpt>
      <trkpt lat="46.330566" lon="15.027859">
        <ele>300.5328</ele>
        <time>2010-12-13T06:05:07Z</time>
      </trkpt>
      <trkpt lat="46.330627" lon="15.027771">
        <ele>300.5328</ele>
        <time>2010-12-13T06:05:15Z</time>
      </trkpt>
      <trkpt lat="46.330658" lon="15.027685">
        <ele>301.752</ele>
        <time>2010-12-13T06:05:21Z</time>
      </trkpt>
      <trkpt lat="46.330730" lon="15.027416">
        <ele>301.752</ele>
        <time>2010-12-13T06:05:33Z</time>
      </trkpt>
      <trkpt lat="46.330738" lon="15.027303">
        <ele>302.3616</ele>
        <time>2010-12-13T06:05:41Z</time>
      </trkpt>
      <trkpt lat="46.330841" lon="15.026933">
        <ele>302.6664</ele>
        <time>2010-12-13T06:05:56Z</time>
      </trkpt>
      <trkpt lat="46.330894" lon="15.026617">
        <ele>304.1904</ele>
        <time>2010-12-13T06:06:12Z</time>
      </trkpt>
      <trkpt lat="46.330956" lon="15.026329">
        <ele>306.324</ele>
        <time>2010-12-13T06:06:27Z</time>
      </trkpt>
      <trkpt lat="46.330952" lon="15.026006">
        <ele>308.1528</ele>
        <time>2010-12-13T06:06:41Z</time>
      </trkpt>
      <trkpt lat="46.330936" lon="15.025928">
        <ele>308.4576</ele>
        <time>2010-12-13T06:06:45Z</time>
      </trkpt>
      <trkpt lat="46.330898" lon="15.025614">
        <ele>309.9816</ele>
        <time>2010-12-13T06:07:01Z</time>
      </trkpt>
      <trkpt lat="46.330814" lon="15.025373">
        <ele>311.5056</ele>
        <time>2010-12-13T06:07:13Z</time>
      </trkpt>
      <trkpt lat="46.330841" lon="15.025131">
        <ele>312.42</ele>
        <time>2010-12-13T06:07:26Z</time>
      </trkpt>
      <trkpt lat="46.330845" lon="15.024835">
        <ele>313.944</ele>
        <time>2010-12-13T06:07:39Z</time>
      </trkpt>
      <trkpt lat="46.330841" lon="15.024691">
        <ele>313.944</ele>
        <time>2010-12-13T06:07:47Z</time>
      </trkpt>
      <trkpt lat="46.330822" lon="15.024660">
        <ele>314.2488</ele>
        <time>2010-12-13T06:07:48Z</time>
      </trkpt>
      <trkpt lat="46.330761" lon="15.024576">
        <ele>315.468</ele>
        <time>2010-12-13T06:07:56Z</time>
      </trkpt>
      <trkpt lat="46.330719" lon="15.024541">
        <ele>316.3824</ele>
        <time>2010-12-13T06:08:00Z</time>
      </trkpt>
      <trkpt lat="46.330669" lon="15.024476">
        <ele>316.3824</ele>
        <time>2010-12-13T06:08:04Z</time>
      </trkpt>
      <trkpt lat="46.330669" lon="15.024285">
        <ele>316.6872</ele>
        <time>2010-12-13T06:08:14Z</time>
      </trkpt>
      <trkpt lat="46.330547" lon="15.024113">
        <ele>320.3448</ele>
        <time>2010-12-13T06:08:27Z</time>
      </trkpt>
      <trkpt lat="46.330490" lon="15.023995">
        <ele>321.8688</ele>
        <time>2010-12-13T06:08:38Z</time>
      </trkpt>
      <trkpt lat="46.330505" lon="15.023978">
        <ele>321.8688</ele>
        <time>2010-12-13T06:08:39Z</time>
      </trkpt>
      <trkpt lat="46.330513" lon="15.023968">
        <ele>321.8688</ele>
        <time>2010-12-13T06:08:41Z</time>
      </trkpt>
      <trkpt lat="46.330563" lon="15.023741">
        <ele>323.6976</ele>
        <time>2010-12-13T06:08:56Z</time>
      </trkpt>
      <trkpt lat="46.330597" lon="15.023669">
        <ele>323.6976</ele>
        <time>2010-12-13T06:08:58Z</time>
      </trkpt>
      <trkpt lat="46.330761" lon="15.023449">
        <ele>324.9168</ele>
        <time>2010-12-13T06:09:13Z</time>
      </trkpt>
      <trkpt lat="46.330780" lon="15.023266">
        <ele>326.136</ele>
        <time>2010-12-13T06:09:25Z</time>
      </trkpt>
      <trkpt lat="46.330788" lon="15.023230">
        <ele>326.136</ele>
        <time>2010-12-13T06:09:27Z</time>
      </trkpt>
      <trkpt lat="46.330891" lon="15.022899">
        <ele>326.136</ele>
        <time>2010-12-13T06:09:44Z</time>
      </trkpt>
      <trkpt lat="46.331036" lon="15.022573">
        <ele>326.7456</ele>
        <time>2010-12-13T06:09:59Z</time>
      </trkpt>
      <trkpt lat="46.331123" lon="15.022455">
        <ele>327.66</ele>
        <time>2010-12-13T06:10:07Z</time>
      </trkpt>
      <trkpt lat="46.331409" lon="15.022276">
        <ele>330.708</ele>
        <time>2010-12-13T06:10:26Z</time>
      </trkpt>
      <trkpt lat="46.331432" lon="15.022251">
        <ele>331.3176</ele>
        <time>2010-12-13T06:10:29Z</time>
      </trkpt>
      <trkpt lat="46.331467" lon="15.022160">
        <ele>331.6224</ele>
        <time>2010-12-13T06:10:35Z</time>
      </trkpt>
      <trkpt lat="46.331406" lon="15.022003">
        <ele>331.6224</ele>
        <time>2010-12-13T06:10:44Z</time>
      </trkpt>
      <trkpt lat="46.331348" lon="15.021740">
        <ele>334.0608</ele>
        <time>2010-12-13T06:10:58Z</time>
      </trkpt>
      <trkpt lat="46.331345" lon="15.021669">
        <ele>335.5848</ele>
        <time>2010-12-13T06:11:04Z</time>
      </trkpt>
      <trkpt lat="46.331299" lon="15.021501">
        <ele>338.0232</ele>
        <time>2010-12-13T06:11:15Z</time>
      </trkpt>
      <trkpt lat="46.331322" lon="15.021269">
        <ele>340.7664</ele>
        <time>2010-12-13T06:11:28Z</time>
      </trkpt>
      <trkpt lat="46.331318" lon="15.021245">
        <ele>340.4616</ele>
        <time>2010-12-13T06:11:29Z</time>
      </trkpt>
      <trkpt lat="46.331314" lon="15.021091">
        <ele>343.8144</ele>
        <time>2010-12-13T06:11:40Z</time>
      </trkpt>
      <trkpt lat="46.331322" lon="15.020919">
        <ele>346.8624</ele>
        <time>2010-12-13T06:11:51Z</time>
      </trkpt>
      <trkpt lat="46.331310" lon="15.020763">
        <ele>348.996</ele>
        <time>2010-12-13T06:12:00Z</time>
      </trkpt>
      <trkpt lat="46.331303" lon="15.020701">
        <ele>349.3008</ele>
        <time>2010-12-13T06:12:05Z</time>
      </trkpt>
      <trkpt lat="46.331303" lon="15.020558">
        <ele>352.6536</ele>
        <time>2010-12-13T06:12:18Z</time>
      </trkpt>
      <trkpt lat="46.331284" lon="15.020410">
        <ele>355.7016</ele>
        <time>2010-12-13T06:12:34Z</time>
      </trkpt>
      <trkpt lat="46.331223" lon="15.020175">
        <ele>359.0544</ele>
        <time>2010-12-13T06:12:46Z</time>
      </trkpt>
      <trkpt lat="46.331043" lon="15.019977">
        <ele>360.5784</ele>
        <time>2010-12-13T06:12:53Z</time>
      </trkpt>
      <trkpt lat="46.331127" lon="15.019686">
        <ele>363.9312</ele>
        <time>2010-12-13T06:13:08Z</time>
      </trkpt>
      <trkpt lat="46.331120" lon="15.019409">
        <ele>364.5408</ele>
        <time>2010-12-13T06:13:23Z</time>
      </trkpt>
      <trkpt lat="46.331104" lon="15.019314">
        <ele>364.8456</ele>
        <time>2010-12-13T06:13:31Z</time>
      </trkpt>
      <trkpt lat="46.331146" lon="15.019230">
        <ele>364.5408</ele>
        <time>2010-12-13T06:13:39Z</time>
      </trkpt>
      <trkpt lat="46.331104" lon="15.019016">
        <ele>365.4552</ele>
        <time>2010-12-13T06:13:50Z</time>
      </trkpt>
      <trkpt lat="46.331032" lon="15.018914">
        <ele>365.76</ele>
        <time>2010-12-13T06:13:54Z</time>
      </trkpt>
      <trkpt lat="46.330837" lon="15.018530">
        <ele>364.8456</ele>
        <time>2010-12-13T06:14:10Z</time>
      </trkpt>
      <trkpt lat="46.330902" lon="15.018255">
        <ele>365.76</ele>
        <time>2010-12-13T06:14:25Z</time>
      </trkpt>
      <trkpt lat="46.330940" lon="15.018186">
        <ele>365.76</ele>
        <time>2010-12-13T06:14:29Z</time>
      </trkpt>
      <trkpt lat="46.331059" lon="15.017946">
        <ele>365.76</ele>
        <time>2010-12-13T06:14:45Z</time>
      </trkpt>
      <trkpt lat="46.331097" lon="15.017694">
        <ele>366.0648</ele>
        <time>2010-12-13T06:14:59Z</time>
      </trkpt>
      <trkpt lat="46.331200" lon="15.017346">
        <ele>367.284</ele>
        <time>2010-12-13T06:15:15Z</time>
      </trkpt>
      <trkpt lat="46.331276" lon="15.016946">
        <ele>368.1984</ele>
        <time>2010-12-13T06:15:32Z</time>
      </trkpt>
      <trkpt lat="46.331371" lon="15.016580">
        <ele>369.1128</ele>
        <time>2010-12-13T06:15:50Z</time>
      </trkpt>
      <trkpt lat="46.331520" lon="15.016266">
        <ele>371.2464</ele>
        <time>2010-12-13T06:16:08Z</time>
      </trkpt>
      <trkpt lat="46.331661" lon="15.015987">
        <ele>373.0752</ele>
        <time>2010-12-13T06:16:25Z</time>
      </trkpt>
      <trkpt lat="46.331829" lon="15.015748">
        <ele>373.9896</ele>
        <time>2010-12-13T06:16:40Z</time>
      </trkpt>
      <trkpt lat="46.332008" lon="15.015497">
        <ele>374.904</ele>
        <time>2010-12-13T06:16:57Z</time>
      </trkpt>
      <trkpt lat="46.332199" lon="15.015262">
        <ele>376.428</ele>
        <time>2010-12-13T06:17:15Z</time>
      </trkpt>
      <trkpt lat="46.332352" lon="15.014983">
        <ele>376.7328</ele>
        <time>2010-12-13T06:17:31Z</time>
      </trkpt>
      <trkpt lat="46.332508" lon="15.014783">
        <ele>376.7328</ele>
        <time>2010-12-13T06:17:46Z</time>
      </trkpt>
      <trkpt lat="46.332703" lon="15.014491">
        <ele>376.428</ele>
        <time>2010-12-13T06:18:04Z</time>
      </trkpt>
      <trkpt lat="46.332901" lon="15.014217">
        <ele>376.1232</ele>
        <time>2010-12-13T06:18:21Z</time>
      </trkpt>
      <trkpt lat="46.333076" lon="15.013991">
        <ele>376.1232</ele>
        <time>2010-12-13T06:18:39Z</time>
      </trkpt>
      <trkpt lat="46.333282" lon="15.013769">
        <ele>374.904</ele>
        <time>2010-12-13T06:18:55Z</time>
      </trkpt>
      <trkpt lat="46.333290" lon="15.013762">
        <ele>375.5136</ele>
        <time>2010-12-13T06:19:07Z</time>
      </trkpt>
      <trkpt lat="46.333290" lon="15.013762">
        <ele>375.5136</ele>
        <time>2010-12-13T06:19:37Z</time>
      </trkpt>
      <trkpt lat="46.333290" lon="15.013759">
        <ele>375.5136</ele>
        <time>2010-12-13T06:19:56Z</time>
      </trkpt>
      <trkpt lat="46.333298" lon="15.013750">
        <ele>376.428</ele>
        <time>2010-12-13T06:20:20Z</time>
      </trkpt>
      <trkpt lat="46.333298" lon="15.013750">
        <ele>376.7328</ele>
        <time>2010-12-13T06:20:43Z</time>
      </trkpt>
      <trkpt lat="46.333298" lon="15.013748">
        <ele>376.7328</ele>
        <time>2010-12-13T06:21:13Z</time>
      </trkpt>
      <trkpt lat="46.333298" lon="15.013744">
        <ele>377.3424</ele>
        <time>2010-12-13T06:21:36Z</time>
      </trkpt>
      <trkpt lat="46.333332" lon="15.013753">
        <ele>377.3424</ele>
        <time>2010-12-13T06:21:48Z</time>
      </trkpt>
      <trkpt lat="46.333317" lon="15.013762">
        <ele>377.3424</ele>
        <time>2010-12-13T06:21:49Z</time>
      </trkpt>
      <trkpt lat="46.333313" lon="15.013778">
        <ele>375.5136</ele>
        <time>2010-12-13T06:21:52Z</time>
      </trkpt>
      <trkpt lat="46.333340" lon="15.013800">
        <ele>376.428</ele>
        <time>2010-12-13T06:22:12Z</time>
      </trkpt>
      <trkpt lat="46.333324" lon="15.013805">
        <ele>377.952</ele>
        <time>2010-12-13T06:22:24Z</time>
      </trkpt>
      <trkpt lat="46.333324" lon="15.013808">
        <ele>374.2944</ele>
        <time>2010-12-13T06:22:28Z</time>
      </trkpt>
      <trkpt lat="46.333332" lon="15.013814">
        <ele>376.1232</ele>
        <time>2010-12-13T06:22:31Z</time>
      </trkpt>
      <trkpt lat="46.333336" lon="15.013795">
        <ele>377.3424</ele>
        <time>2010-12-13T06:22:44Z</time>
      </trkpt>
      <trkpt lat="46.333305" lon="15.013783">
        <ele>376.428</ele>
        <time>2010-12-13T06:22:58Z</time>
      </trkpt>
      <trkpt lat="46.333313" lon="15.013783">
        <ele>377.3424</ele>
        <time>2010-12-13T06:23:02Z</time>
      </trkpt>
      <trkpt lat="46.333424" lon="15.013521">
        <ele>376.7328</ele>
        <time>2010-12-13T06:23:17Z</time>
      </trkpt>
      <trkpt lat="46.333557" lon="15.013262">
        <ele>376.1232</ele>
        <time>2010-12-13T06:23:32Z</time>
      </trkpt>
      <trkpt lat="46.333706" lon="15.013028">
        <ele>376.428</ele>
        <time>2010-12-13T06:23:47Z</time>
      </trkpt>
      <trkpt lat="46.333881" lon="15.012682">
        <ele>376.428</ele>
        <time>2010-12-13T06:24:05Z</time>
      </trkpt>
      <trkpt lat="46.334045" lon="15.012473">
        <ele>376.7328</ele>
        <time>2010-12-13T06:24:19Z</time>
      </trkpt>
      <trkpt lat="46.334221" lon="15.012291">
        <ele>377.952</ele>
        <time>2010-12-13T06:24:34Z</time>
      </trkpt>
      <trkpt lat="46.334408" lon="15.012060">
        <ele>380.0856</ele>
        <time>2010-12-13T06:24:50Z</time>
      </trkpt>
      <trkpt lat="46.334549" lon="15.011832">
        <ele>381.3048</ele>
        <time>2010-12-13T06:25:05Z</time>
      </trkpt>
      <trkpt lat="46.334679" lon="15.011544">
        <ele>382.2192</ele>
        <time>2010-12-13T06:25:21Z</time>
      </trkpt>
      <trkpt lat="46.334816" lon="15.011273">
        <ele>380.6952</ele>
        <time>2010-12-13T06:25:37Z</time>
      </trkpt>
      <trkpt lat="46.334824" lon="15.011256">
        <ele>380.6952</ele>
        <time>2010-12-13T06:25:37Z</time>
      </trkpt>
      <trkpt lat="46.334911" lon="15.011056">
        <ele>379.7808</ele>
        <time>2010-12-13T06:25:49Z</time>
      </trkpt>
      <trkpt lat="46.334930" lon="15.010735">
        <ele>381.3048</ele>
        <time>2010-12-13T06:26:04Z</time>
      </trkpt>
      <trkpt lat="46.334919" lon="15.010420">
        <ele>382.524</ele>
        <time>2010-12-13T06:26:19Z</time>
      </trkpt>
      <trkpt lat="46.334885" lon="15.010048">
        <ele>385.572</ele>
        <time>2010-12-13T06:26:37Z</time>
      </trkpt>
      <trkpt lat="46.334854" lon="15.009751">
        <ele>388.3152</ele>
        <time>2010-12-13T06:26:53Z</time>
      </trkpt>
      <trkpt lat="46.334961" lon="15.009440">
        <ele>390.7536</ele>
        <time>2010-12-13T06:27:06Z</time>
      </trkpt>
      <trkpt lat="46.335136" lon="15.009226">
        <ele>393.4968</ele>
        <time>2010-12-13T06:27:23Z</time>
      </trkpt>
      <trkpt lat="46.335342" lon="15.009044">
        <ele>395.6304</ele>
        <time>2010-12-13T06:27:39Z</time>
      </trkpt>
      <trkpt lat="46.335537" lon="15.008997">
        <ele>396.24</ele>
        <time>2010-12-13T06:27:52Z</time>
      </trkpt>
      <trkpt lat="46.335819" lon="15.008968">
        <ele>393.192</ele>
        <time>2010-12-13T06:28:10Z</time>
      </trkpt>
      <trkpt lat="46.336090" lon="15.008950">
        <ele>392.8872</ele>
        <time>2010-12-13T06:28:26Z</time>
      </trkpt>
      <trkpt lat="46.336281" lon="15.008780">
        <ele>392.2776</ele>
        <time>2010-12-13T06:28:42Z</time>
      </trkpt>
      <trkpt lat="46.336292" lon="15.008765">
        <ele>392.2776</ele>
        <time>2010-12-13T06:28:44Z</time>
      </trkpt>
      <trkpt lat="46.336319" lon="15.008667">
        <ele>391.668</ele>
        <time>2010-12-13T06:28:49Z</time>
      </trkpt>
      <trkpt lat="46.336407" lon="15.008456">
        <ele>391.668</ele>
        <time>2010-12-13T06:29:04Z</time>
      </trkpt>
      <trkpt lat="46.336555" lon="15.008237">
        <ele>391.0584</ele>
        <time>2010-12-13T06:29:16Z</time>
      </trkpt>
      <trkpt lat="46.336830" lon="15.008096">
        <ele>391.0584</ele>
        <time>2010-12-13T06:29:32Z</time>
      </trkpt>
      <trkpt lat="46.337032" lon="15.007999">
        <ele>391.0584</ele>
        <time>2010-12-13T06:29:47Z</time>
      </trkpt>
      <trkpt lat="46.337273" lon="15.007937">
        <ele>391.0584</ele>
        <time>2010-12-13T06:29:59Z</time>
      </trkpt>
      <trkpt lat="46.337463" lon="15.007870">
        <ele>390.7536</ele>
        <time>2010-12-13T06:30:13Z</time>
      </trkpt>
      <trkpt lat="46.337639" lon="15.007714">
        <ele>391.0584</ele>
        <time>2010-12-13T06:30:29Z</time>
      </trkpt>
      <trkpt lat="46.337811" lon="15.007518">
        <ele>391.668</ele>
        <time>2010-12-13T06:30:44Z</time>
      </trkpt>
      <trkpt lat="46.338024" lon="15.007272">
        <ele>391.0584</ele>
        <time>2010-12-13T06:31:00Z</time>
      </trkpt>
      <trkpt lat="46.338184" lon="15.007140">
        <ele>391.668</ele>
        <time>2010-12-13T06:31:15Z</time>
      </trkpt>
      <trkpt lat="46.338306" lon="15.006921">
        <ele>391.668</ele>
        <time>2010-12-13T06:31:28Z</time>
      </trkpt>
      <trkpt lat="46.338341" lon="15.006716">
        <ele>391.0584</ele>
        <time>2010-12-13T06:31:43Z</time>
      </trkpt>
      <trkpt lat="46.338356" lon="15.006420">
        <ele>391.0584</ele>
        <time>2010-12-13T06:31:57Z</time>
      </trkpt>
      <trkpt lat="46.338348" lon="15.006137">
        <ele>392.2776</ele>
        <time>2010-12-13T06:32:10Z</time>
      </trkpt>
      <trkpt lat="46.338387" lon="15.005945">
        <ele>391.668</ele>
        <time>2010-12-13T06:32:18Z</time>
      </trkpt>
      <trkpt lat="46.338432" lon="15.005867">
        <ele>391.668</ele>
        <time>2010-12-13T06:32:22Z</time>
      </trkpt>
      <trkpt lat="46.338654" lon="15.005542">
        <ele>391.668</ele>
        <time>2010-12-13T06:32:37Z</time>
      </trkpt>
      <trkpt lat="46.338840" lon="15.005356">
        <ele>392.2776</ele>
        <time>2010-12-13T06:32:52Z</time>
      </trkpt>
      <trkpt lat="46.339008" lon="15.005187">
        <ele>391.668</ele>
        <time>2010-12-13T06:33:07Z</time>
      </trkpt>
      <trkpt lat="46.339161" lon="15.004952">
        <ele>391.668</ele>
        <time>2010-12-13T06:33:20Z</time>
      </trkpt>
      <trkpt lat="46.339237" lon="15.004773">
        <ele>391.0584</ele>
        <time>2010-12-13T06:33:34Z</time>
      </trkpt>
      <trkpt lat="46.339245" lon="15.004747">
        <ele>390.7536</ele>
        <time>2010-12-13T06:33:35Z</time>
      </trkpt>
      <trkpt lat="46.339256" lon="15.004642">
        <ele>391.0584</ele>
        <time>2010-12-13T06:33:41Z</time>
      </trkpt>
      <trkpt lat="46.339298" lon="15.004444">
        <ele>390.7536</ele>
        <time>2010-12-13T06:33:54Z</time>
      </trkpt>
      <trkpt lat="46.339344" lon="15.004318">
        <ele>390.4488</ele>
        <time>2010-12-13T06:33:59Z</time>
      </trkpt>
      <trkpt lat="46.339390" lon="15.004123">
        <ele>390.4488</ele>
        <time>2010-12-13T06:34:08Z</time>
      </trkpt>
      <trkpt lat="46.339405" lon="15.004093">
        <ele>390.4488</ele>
        <time>2010-12-13T06:34:13Z</time>
      </trkpt>
      <trkpt lat="46.339424" lon="15.003964">
        <ele>390.7536</ele>
        <time>2010-12-13T06:34:18Z</time>
      </trkpt>
      <trkpt lat="46.339508" lon="15.003663">
        <ele>391.668</ele>
        <time>2010-12-13T06:34:33Z</time>
      </trkpt>
      <trkpt lat="46.339558" lon="15.003363">
        <ele>392.2776</ele>
        <time>2010-12-13T06:34:51Z</time>
      </trkpt>
      <trkpt lat="46.339703" lon="15.003039">
        <ele>392.2776</ele>
        <time>2010-12-13T06:35:06Z</time>
      </trkpt>
      <trkpt lat="46.339905" lon="15.002741">
        <ele>393.192</ele>
        <time>2010-12-13T06:35:23Z</time>
      </trkpt>
      <trkpt lat="46.340126" lon="15.002538">
        <ele>394.1064</ele>
        <time>2010-12-13T06:35:41Z</time>
      </trkpt>
      <trkpt lat="46.340313" lon="15.002361">
        <ele>395.6304</ele>
        <time>2010-12-13T06:35:56Z</time>
      </trkpt>
      <trkpt lat="46.340492" lon="15.002239">
        <ele>396.24</ele>
        <time>2010-12-13T06:36:09Z</time>
      </trkpt>
      <trkpt lat="46.340641" lon="15.002073">
        <ele>398.0688</ele>
        <time>2010-12-13T06:36:24Z</time>
      </trkpt>
      <trkpt lat="46.340767" lon="15.001789">
        <ele>400.5072</ele>
        <time>2010-12-13T06:36:39Z</time>
      </trkpt>
      <trkpt lat="46.340771" lon="15.001745">
        <ele>401.1168</ele>
        <time>2010-12-13T06:36:40Z</time>
      </trkpt>
      <trkpt lat="46.340870" lon="15.001461">
        <ele>401.7264</ele>
        <time>2010-12-13T06:36:55Z</time>
      </trkpt>
      <trkpt lat="46.340878" lon="15.001423">
        <ele>401.1168</ele>
        <time>2010-12-13T06:36:58Z</time>
      </trkpt>
      <trkpt lat="46.340969" lon="15.001189">
        <ele>399.8976</ele>
        <time>2010-12-13T06:37:12Z</time>
      </trkpt>
      <trkpt lat="46.340981" lon="15.001179">
        <ele>400.5072</ele>
        <time>2010-12-13T06:37:14Z</time>
      </trkpt>
      <trkpt lat="46.341137" lon="15.000827">
        <ele>399.288</ele>
        <time>2010-12-13T06:37:30Z</time>
      </trkpt>
      <trkpt lat="46.341290" lon="15.000528">
        <ele>398.6784</ele>
        <time>2010-12-13T06:37:46Z</time>
      </trkpt>
      <trkpt lat="46.341427" lon="15.000251">
        <ele>398.9832</ele>
        <time>2010-12-13T06:38:01Z</time>
      </trkpt>
      <trkpt lat="46.341667" lon="14.999994">
        <ele>398.9832</ele>
        <time>2010-12-13T06:38:20Z</time>
      </trkpt>
      <trkpt lat="46.341908" lon="14.999759">
        <ele>399.288</ele>
        <time>2010-12-13T06:38:40Z</time>
      </trkpt>
      <trkpt lat="46.342117" lon="14.999565">
        <ele>399.8976</ele>
        <time>2010-12-13T06:38:56Z</time>
      </trkpt>
      <trkpt lat="46.342278" lon="14.999299">
        <ele>401.4216</ele>
        <time>2010-12-13T06:39:13Z</time>
      </trkpt>
      <trkpt lat="46.342430" lon="14.999044">
        <ele>402.9456</ele>
        <time>2010-12-13T06:39:29Z</time>
      </trkpt>
      <trkpt lat="46.342602" lon="14.998820">
        <ele>403.86</ele>
        <time>2010-12-13T06:39:44Z</time>
      </trkpt>
      <trkpt lat="46.342777" lon="14.998619">
        <ele>405.0792</ele>
        <time>2010-12-13T06:40:00Z</time>
      </trkpt>
      <trkpt lat="46.342789" lon="14.998610">
        <ele>405.0792</ele>
        <time>2010-12-13T06:40:01Z</time>
      </trkpt>
      <trkpt lat="46.342838" lon="14.998623">
        <ele>405.6888</ele>
        <time>2010-12-13T06:40:11Z</time>
      </trkpt>
      <trkpt lat="46.342903" lon="14.998763">
        <ele>406.2984</ele>
        <time>2010-12-13T06:40:21Z</time>
      </trkpt>
      <trkpt lat="46.342972" lon="14.998823">
        <ele>407.5176</ele>
        <time>2010-12-13T06:40:31Z</time>
      </trkpt>
      <trkpt lat="46.343010" lon="14.998843">
        <ele>408.7368</ele>
        <time>2010-12-13T06:40:35Z</time>
      </trkpt>
      <trkpt lat="46.343327" lon="14.999011">
        <ele>409.6512</ele>
        <time>2010-12-13T06:40:47Z</time>
      </trkpt>
      <trkpt lat="46.343628" lon="14.999126">
        <ele>413.004</ele>
        <time>2010-12-13T06:40:59Z</time>
      </trkpt>
      <trkpt lat="46.343792" lon="14.998964">
        <ele>414.8328</ele>
        <time>2010-12-13T06:41:14Z</time>
      </trkpt>
      <trkpt lat="46.343861" lon="14.998787">
        <ele>417.2712</ele>
        <time>2010-12-13T06:41:25Z</time>
      </trkpt>
      <trkpt lat="46.343872" lon="14.998693">
        <ele>418.1856</ele>
        <time>2010-12-13T06:41:30Z</time>
      </trkpt>
      <trkpt lat="46.343922" lon="14.998411">
        <ele>420.9288</ele>
        <time>2010-12-13T06:41:48Z</time>
      </trkpt>
      <trkpt lat="46.343960" lon="14.998151">
        <ele>424.2816</ele>
        <time>2010-12-13T06:42:00Z</time>
      </trkpt>
      <trkpt lat="46.343983" lon="14.997869">
        <ele>426.4152</ele>
        <time>2010-12-13T06:42:16Z</time>
      </trkpt>
      <trkpt lat="46.344109" lon="14.997568">
        <ele>429.1584</ele>
        <time>2010-12-13T06:42:31Z</time>
      </trkpt>
      <trkpt lat="46.344284" lon="14.997351">
        <ele>432.5112</ele>
        <time>2010-12-13T06:42:47Z</time>
      </trkpt>
      <trkpt lat="46.344456" lon="14.997166">
        <ele>435.5592</ele>
        <time>2010-12-13T06:43:03Z</time>
      </trkpt>
      <trkpt lat="46.344551" lon="14.996915">
        <ele>437.388</ele>
        <time>2010-12-13T06:43:17Z</time>
      </trkpt>
      <trkpt lat="46.344677" lon="14.996688">
        <ele>439.8264</ele>
        <time>2010-12-13T06:43:32Z</time>
      </trkpt>
      <trkpt lat="46.344803" lon="14.996435">
        <ele>442.2648</ele>
        <time>2010-12-13T06:43:47Z</time>
      </trkpt>
      <trkpt lat="46.344967" lon="14.996193">
        <ele>445.3128</ele>
        <time>2010-12-13T06:44:03Z</time>
      </trkpt>
      <trkpt lat="46.345169" lon="14.995955">
        <ele>445.3128</ele>
        <time>2010-12-13T06:44:20Z</time>
      </trkpt>
      <trkpt lat="46.345322" lon="14.995791">
        <ele>445.9224</ele>
        <time>2010-12-13T06:44:34Z</time>
      </trkpt>
      <trkpt lat="46.345482" lon="14.995687">
        <ele>447.1416</ele>
        <time>2010-12-13T06:44:46Z</time>
      </trkpt>
      <trkpt lat="46.345692" lon="14.995606">
        <ele>445.6176</ele>
        <time>2010-12-13T06:45:02Z</time>
      </trkpt>
      <trkpt lat="46.345917" lon="14.995612">
        <ele>443.484</ele>
        <time>2010-12-13T06:45:17Z</time>
      </trkpt>
      <trkpt lat="46.345978" lon="14.995609">
        <ele>443.1792</ele>
        <time>2010-12-13T06:45:21Z</time>
      </trkpt>
      <trkpt lat="46.346207" lon="14.995594">
        <ele>442.8744</ele>
        <time>2010-12-13T06:45:36Z</time>
      </trkpt>
      <trkpt lat="46.346394" lon="14.995694">
        <ele>441.6552</ele>
        <time>2010-12-13T06:45:48Z</time>
      </trkpt>
      <trkpt lat="46.346436" lon="14.995750">
        <ele>441.6552</ele>
        <time>2010-12-13T06:45:52Z</time>
      </trkpt>
      <trkpt lat="46.346504" lon="14.995916">
        <ele>442.8744</ele>
        <time>2010-12-13T06:46:02Z</time>
      </trkpt>
      <trkpt lat="46.346523" lon="14.995951">
        <ele>441.6552</ele>
        <time>2010-12-13T06:46:03Z</time>
      </trkpt>
      <trkpt lat="46.346542" lon="14.996009">
        <ele>442.2648</ele>
        <time>2010-12-13T06:46:07Z</time>
      </trkpt>
      <trkpt lat="46.346554" lon="14.996078">
        <ele>442.8744</ele>
        <time>2010-12-13T06:46:12Z</time>
      </trkpt>
      <trkpt lat="46.346634" lon="14.996156">
        <ele>442.2648</ele>
        <time>2010-12-13T06:46:19Z</time>
      </trkpt>
      <trkpt lat="46.346806" lon="14.996273">
        <ele>440.436</ele>
        <time>2010-12-13T06:46:30Z</time>
      </trkpt>
      <trkpt lat="46.346977" lon="14.996341">
        <ele>438.912</ele>
        <time>2010-12-13T06:46:42Z</time>
      </trkpt>
      <trkpt lat="46.347137" lon="14.996310">
        <ele>437.9976</ele>
        <time>2010-12-13T06:46:53Z</time>
      </trkpt>
      <trkpt lat="46.347347" lon="14.996262">
        <ele>437.0832</ele>
        <time>2010-12-13T06:47:09Z</time>
      </trkpt>
      <trkpt lat="46.347591" lon="14.996264">
        <ele>435.864</ele>
        <time>2010-12-13T06:47:24Z</time>
      </trkpt>
      <trkpt lat="46.347874" lon="14.996259">
        <ele>434.6448</ele>
        <time>2010-12-13T06:47:40Z</time>
      </trkpt>
      <trkpt lat="46.348141" lon="14.996169">
        <ele>434.0352</ele>
        <time>2010-12-13T06:47:58Z</time>
      </trkpt>
      <trkpt lat="46.348400" lon="14.996106">
        <ele>432.5112</ele>
        <time>2010-12-13T06:48:14Z</time>
      </trkpt>
      <trkpt lat="46.348625" lon="14.995983">
        <ele>431.5968</ele>
        <time>2010-12-13T06:48:30Z</time>
      </trkpt>
      <trkpt lat="46.348843" lon="14.995890">
        <ele>430.6824</ele>
        <time>2010-12-13T06:48:44Z</time>
      </trkpt>
      <trkpt lat="46.349037" lon="14.995763">
        <ele>430.0728</ele>
        <time>2010-12-13T06:48:57Z</time>
      </trkpt>
      <trkpt lat="46.349289" lon="14.995687">
        <ele>428.244</ele>
        <time>2010-12-13T06:49:13Z</time>
      </trkpt>
      <trkpt lat="46.349464" lon="14.995674">
        <ele>428.244</ele>
        <time>2010-12-13T06:49:28Z</time>
      </trkpt>
      <trkpt lat="46.349670" lon="14.995702">
        <ele>427.9392</ele>
        <time>2010-12-13T06:49:39Z</time>
      </trkpt>
      <trkpt lat="46.349899" lon="14.995626">
        <ele>427.9392</ele>
        <time>2010-12-13T06:49:55Z</time>
      </trkpt>
      <trkpt lat="46.350098" lon="14.995368">
        <ele>427.9392</ele>
        <time>2010-12-13T06:50:11Z</time>
      </trkpt>
      <trkpt lat="46.350239" lon="14.995060">
        <ele>426.72</ele>
        <time>2010-12-13T06:50:29Z</time>
      </trkpt>
      <trkpt lat="46.350273" lon="14.994863">
        <ele>425.5008</ele>
        <time>2010-12-13T06:50:40Z</time>
      </trkpt>
      <trkpt lat="46.350349" lon="14.994609">
        <ele>423.672</ele>
        <time>2010-12-13T06:50:53Z</time>
      </trkpt>
      <trkpt lat="46.350365" lon="14.994572">
        <ele>422.4528</ele>
        <time>2010-12-13T06:50:56Z</time>
      </trkpt>
      <trkpt lat="46.350525" lon="14.994260">
        <ele>421.5384</ele>
        <time>2010-12-13T06:51:12Z</time>
      </trkpt>
      <trkpt lat="46.350529" lon="14.994210">
        <ele>420.9288</ele>
        <time>2010-12-13T06:51:14Z</time>
      </trkpt>
      <trkpt lat="46.350658" lon="14.993946">
        <ele>419.7096</ele>
        <time>2010-12-13T06:51:27Z</time>
      </trkpt>
      <trkpt lat="46.350677" lon="14.993842">
        <ele>419.1</ele>
        <time>2010-12-13T06:51:31Z</time>
      </trkpt>
      <trkpt lat="46.350807" lon="14.993718">
        <ele>418.1856</ele>
        <time>2010-12-13T06:51:49Z</time>
      </trkpt>
      <trkpt lat="46.350864" lon="14.993772">
        <ele>418.1856</ele>
        <time>2010-12-13T06:51:59Z</time>
      </trkpt>
      <trkpt lat="46.350945" lon="14.993844">
        <ele>418.1856</ele>
        <time>2010-12-13T06:52:06Z</time>
      </trkpt>
      <trkpt lat="46.351013" lon="14.993917">
        <ele>418.1856</ele>
        <time>2010-12-13T06:52:10Z</time>
      </trkpt>
      <trkpt lat="46.351280" lon="14.994084">
        <ele>417.2712</ele>
        <time>2010-12-13T06:52:24Z</time>
      </trkpt>
      <trkpt lat="46.351341" lon="14.994104">
        <ele>416.6616</ele>
        <time>2010-12-13T06:52:26Z</time>
      </trkpt>
      <trkpt lat="46.351639" lon="14.994061">
        <ele>414.8328</ele>
        <time>2010-12-13T06:52:41Z</time>
      </trkpt>
      <trkpt lat="46.351646" lon="14.994048">
        <ele>414.8328</ele>
        <time>2010-12-13T06:52:43Z</time>
      </trkpt>
      <trkpt lat="46.351845" lon="14.993917">
        <ele>414.8328</ele>
        <time>2010-12-13T06:52:56Z</time>
      </trkpt>
      <trkpt lat="46.352116" lon="14.993873">
        <ele>414.528</ele>
        <time>2010-12-13T06:53:11Z</time>
      </trkpt>
      <trkpt lat="46.352169" lon="14.993869">
        <ele>414.8328</ele>
        <time>2010-12-13T06:53:19Z</time>
      </trkpt>
      <trkpt lat="46.352200" lon="14.993892">
        <ele>415.4424</ele>
        <time>2010-12-13T06:53:23Z</time>
      </trkpt>
      <trkpt lat="46.352448" lon="14.994109">
        <ele>417.2712</ele>
        <time>2010-12-13T06:53:37Z</time>
      </trkpt>
      <trkpt lat="46.352501" lon="14.994182">
        <ele>418.4904</ele>
        <time>2010-12-13T06:53:42Z</time>
      </trkpt>
      <trkpt lat="46.352634" lon="14.994335">
        <ele>420.9288</ele>
        <time>2010-12-13T06:53:54Z</time>
      </trkpt>
      <trkpt lat="46.352657" lon="14.994358">
        <ele>421.5384</ele>
        <time>2010-12-13T06:53:57Z</time>
      </trkpt>
      <trkpt lat="46.352779" lon="14.994425">
        <ele>422.4528</ele>
        <time>2010-12-13T06:54:04Z</time>
      </trkpt>
      <trkpt lat="46.352985" lon="14.994287">
        <ele>426.1104</ele>
        <time>2010-12-13T06:54:17Z</time>
      </trkpt>
      <trkpt lat="46.353085" lon="14.994082">
        <ele>427.3296</ele>
        <time>2010-12-13T06:54:29Z</time>
      </trkpt>
      <trkpt lat="46.353199" lon="14.993834">
        <ele>428.8536</ele>
        <time>2010-12-13T06:54:44Z</time>
      </trkpt>
      <trkpt lat="46.353218" lon="14.993781">
        <ele>430.0728</ele>
        <time>2010-12-13T06:54:48Z</time>
      </trkpt>
      <trkpt lat="46.353386" lon="14.993529">
        <ele>433.1208</ele>
        <time>2010-12-13T06:55:04Z</time>
      </trkpt>
      <trkpt lat="46.353523" lon="14.993343">
        <ele>435.864</ele>
        <time>2010-12-13T06:55:19Z</time>
      </trkpt>
      <trkpt lat="46.353680" lon="14.993205">
        <ele>437.9976</ele>
        <time>2010-12-13T06:55:31Z</time>
      </trkpt>
      <trkpt lat="46.353775" lon="14.993134">
        <ele>439.5216</ele>
        <time>2010-12-13T06:55:39Z</time>
      </trkpt>
      <trkpt lat="46.353901" lon="14.993107">
        <ele>441.6552</ele>
        <time>2010-12-13T06:55:52Z</time>
      </trkpt>
      <trkpt lat="46.354099" lon="14.993125">
        <ele>444.7032</ele>
        <time>2010-12-13T06:56:06Z</time>
      </trkpt>
      <trkpt lat="46.354256" lon="14.993196">
        <ele>446.532</ele>
        <time>2010-12-13T06:56:20Z</time>
      </trkpt>
      <trkpt lat="46.354446" lon="14.993238">
        <ele>448.3608</ele>
        <time>2010-12-13T06:56:33Z</time>
      </trkpt>
      <trkpt lat="46.354630" lon="14.993270">
        <ele>449.8848</ele>
        <time>2010-12-13T06:56:47Z</time>
      </trkpt>
      <trkpt lat="46.354874" lon="14.993272">
        <ele>451.104</ele>
        <time>2010-12-13T06:57:03Z</time>
      </trkpt>
      <trkpt lat="46.355095" lon="14.993263">
        <ele>451.104</ele>
        <time>2010-12-13T06:57:18Z</time>
      </trkpt>
      <trkpt lat="46.355412" lon="14.993249">
        <ele>451.4088</ele>
        <time>2010-12-13T06:57:40Z</time>
      </trkpt>
      <trkpt lat="46.355663" lon="14.993209">
        <ele>452.3232</ele>
        <time>2010-12-13T06:57:57Z</time>
      </trkpt>
      <trkpt lat="46.355896" lon="14.993212">
        <ele>452.9328</ele>
        <time>2010-12-13T06:58:12Z</time>
      </trkpt>
      <trkpt lat="46.356110" lon="14.993252">
        <ele>453.2376</ele>
        <time>2010-12-13T06:58:27Z</time>
      </trkpt>
      <trkpt lat="46.356277" lon="14.993374">
        <ele>454.7616</ele>
        <time>2010-12-13T06:58:39Z</time>
      </trkpt>
      <trkpt lat="46.356430" lon="14.993548">
        <ele>456.2856</ele>
        <time>2010-12-13T06:58:54Z</time>
      </trkpt>
      <trkpt lat="46.356594" lon="14.993833">
        <ele>456.5904</ele>
        <time>2010-12-13T06:59:10Z</time>
      </trkpt>
      <trkpt lat="46.356754" lon="14.994064">
        <ele>456.2856</ele>
        <time>2010-12-13T06:59:25Z</time>
      </trkpt>
      <trkpt lat="46.356907" lon="14.994188">
        <ele>455.0664</ele>
        <time>2010-12-13T06:59:36Z</time>
      </trkpt>
      <trkpt lat="46.357166" lon="14.994242">
        <ele>454.152</ele>
        <time>2010-12-13T06:59:53Z</time>
      </trkpt>
      <trkpt lat="46.357491" lon="14.994248">
        <ele>454.7616</ele>
        <time>2010-12-13T07:00:15Z</time>
      </trkpt>
      <trkpt lat="46.357731" lon="14.994253">
        <ele>454.7616</ele>
        <time>2010-12-13T07:00:31Z</time>
      </trkpt>
      <trkpt lat="46.357933" lon="14.994089">
        <ele>454.7616</ele>
        <time>2010-12-13T07:00:46Z</time>
      </trkpt>
      <trkpt lat="46.358116" lon="14.993827">
        <ele>452.9328</ele>
        <time>2010-12-13T07:01:03Z</time>
      </trkpt>
      <trkpt lat="46.358288" lon="14.993631">
        <ele>451.7136</ele>
        <time>2010-12-13T07:01:18Z</time>
      </trkpt>
      <trkpt lat="46.358479" lon="14.993539">
        <ele>449.2752</ele>
        <time>2010-12-13T07:01:33Z</time>
      </trkpt>
      <trkpt lat="46.358688" lon="14.993507">
        <ele>447.7512</ele>
        <time>2010-12-13T07:01:48Z</time>
      </trkpt>
      <trkpt lat="46.358910" lon="14.993548">
        <ele>448.056</ele>
        <time>2010-12-13T07:02:03Z</time>
      </trkpt>
      <trkpt lat="46.359039" lon="14.993541">
        <ele>451.4088</ele>
        <time>2010-12-13T07:02:14Z</time>
      </trkpt>
      <trkpt lat="46.359161" lon="14.993549">
        <ele>454.7616</ele>
        <time>2010-12-13T07:02:26Z</time>
      </trkpt>
      <trkpt lat="46.359280" lon="14.993601">
        <ele>456.5904</ele>
        <time>2010-12-13T07:02:37Z</time>
      </trkpt>
      <trkpt lat="46.359356" lon="14.993650">
        <ele>457.5048</ele>
        <time>2010-12-13T07:02:45Z</time>
      </trkpt>
      <trkpt lat="46.359512" lon="14.993913">
        <ele>459.0288</ele>
        <time>2010-12-13T07:03:00Z</time>
      </trkpt>
      <trkpt lat="46.359642" lon="14.994167">
        <ele>461.4672</ele>
        <time>2010-12-13T07:03:14Z</time>
      </trkpt>
      <trkpt lat="46.359798" lon="14.994360">
        <ele>462.3816</ele>
        <time>2010-12-13T07:03:28Z</time>
      </trkpt>
      <trkpt lat="46.359909" lon="14.994481">
        <ele>463.296</ele>
        <time>2010-12-13T07:03:37Z</time>
      </trkpt>
      <trkpt lat="46.360085" lon="14.994570">
        <ele>463.296</ele>
        <time>2010-12-13T07:03:52Z</time>
      </trkpt>
      <trkpt lat="46.360252" lon="14.994683">
        <ele>463.296</ele>
        <time>2010-12-13T07:04:06Z</time>
      </trkpt>
      <trkpt lat="46.360378" lon="14.994884">
        <ele>463.9056</ele>
        <time>2010-12-13T07:04:19Z</time>
      </trkpt>
      <trkpt lat="46.360382" lon="14.994897">
        <ele>463.9056</ele>
        <time>2010-12-13T07:04:21Z</time>
      </trkpt>
      <trkpt lat="46.360401" lon="14.994940">
        <ele>463.9056</ele>
        <time>2010-12-13T07:04:23Z</time>
      </trkpt>
      <trkpt lat="46.360413" lon="14.995019">
        <ele>464.5152</ele>
        <time>2010-12-13T07:04:27Z</time>
      </trkpt>
      <trkpt lat="46.360432" lon="14.995147">
        <ele>465.4296</ele>
        <time>2010-12-13T07:04:34Z</time>
      </trkpt>
      <trkpt lat="46.360435" lon="14.995227">
        <ele>466.344</ele>
        <time>2010-12-13T07:04:38Z</time>
      </trkpt>
      <trkpt lat="46.360458" lon="14.995317">
        <ele>467.868</ele>
        <time>2010-12-13T07:04:44Z</time>
      </trkpt>
      <trkpt lat="46.360489" lon="14.995361">
        <ele>468.1728</ele>
        <time>2010-12-13T07:04:46Z</time>
      </trkpt>
      <trkpt lat="46.360554" lon="14.995580">
        <ele>470.916</ele>
        <time>2010-12-13T07:04:57Z</time>
      </trkpt>
      <trkpt lat="46.360596" lon="14.995781">
        <ele>473.3544</ele>
        <time>2010-12-13T07:05:09Z</time>
      </trkpt>
      <trkpt lat="46.360638" lon="14.995977">
        <ele>476.4024</ele>
        <time>2010-12-13T07:05:20Z</time>
      </trkpt>
      <trkpt lat="46.360687" lon="14.996245">
        <ele>478.2312</ele>
        <time>2010-12-13T07:05:33Z</time>
      </trkpt>
      <trkpt lat="46.360722" lon="14.996526">
        <ele>480.6696</ele>
        <time>2010-12-13T07:05:48Z</time>
      </trkpt>
      <trkpt lat="46.360729" lon="14.996597">
        <ele>482.1936</ele>
        <time>2010-12-13T07:05:52Z</time>
      </trkpt>
      <trkpt lat="46.360783" lon="14.996824">
        <ele>483.108</ele>
        <time>2010-12-13T07:06:07Z</time>
      </trkpt>
      <trkpt lat="46.360840" lon="14.997158">
        <ele>485.5464</ele>
        <time>2010-12-13T07:06:23Z</time>
      </trkpt>
      <trkpt lat="46.360882" lon="14.997281">
        <ele>487.0704</ele>
        <time>2010-12-13T07:06:32Z</time>
      </trkpt>
      <trkpt lat="46.360973" lon="14.997359">
        <ele>488.8992</ele>
        <time>2010-12-13T07:06:41Z</time>
      </trkpt>
      <trkpt lat="46.361000" lon="14.997370">
        <ele>489.5088</ele>
        <time>2010-12-13T07:06:42Z</time>
      </trkpt>
      <trkpt lat="46.361095" lon="14.997352">
        <ele>491.3376</ele>
        <time>2010-12-13T07:06:49Z</time>
      </trkpt>
      <trkpt lat="46.361263" lon="14.997240">
        <ele>493.4712</ele>
        <time>2010-12-13T07:07:04Z</time>
      </trkpt>
      <trkpt lat="46.361355" lon="14.997153">
        <ele>495.9096</ele>
        <time>2010-12-13T07:07:13Z</time>
      </trkpt>
      <trkpt lat="46.361389" lon="14.997139">
        <ele>496.5192</ele>
        <time>2010-12-13T07:07:16Z</time>
      </trkpt>
      <trkpt lat="46.361511" lon="14.997086">
        <ele>499.872</ele>
        <time>2010-12-13T07:07:30Z</time>
      </trkpt>
      <trkpt lat="46.361530" lon="14.997060">
        <ele>500.7864</ele>
        <time>2010-12-13T07:07:32Z</time>
      </trkpt>
      <trkpt lat="46.361694" lon="14.996977">
        <ele>504.1392</ele>
        <time>2010-12-13T07:07:46Z</time>
      </trkpt>
      <trkpt lat="46.361835" lon="14.996911">
        <ele>506.5776</ele>
        <time>2010-12-13T07:07:58Z</time>
      </trkpt>
      <trkpt lat="46.361908" lon="14.996870">
        <ele>507.492</ele>
        <time>2010-12-13T07:08:06Z</time>
      </trkpt>
      <trkpt lat="46.362072" lon="14.996758">
        <ele>511.4544</ele>
        <time>2010-12-13T07:08:20Z</time>
      </trkpt>
      <trkpt lat="46.362190" lon="14.996669">
        <ele>512.064</ele>
        <time>2010-12-13T07:08:30Z</time>
      </trkpt>
      <trkpt lat="46.362377" lon="14.996588">
        <ele>513.2832</ele>
        <time>2010-12-13T07:08:45Z</time>
      </trkpt>
      <trkpt lat="46.362576" lon="14.996499">
        <ele>514.5024</ele>
        <time>2010-12-13T07:09:00Z</time>
      </trkpt>
      <trkpt lat="46.362770" lon="14.996461">
        <ele>514.8072</ele>
        <time>2010-12-13T07:09:15Z</time>
      </trkpt>
      <trkpt lat="46.362984" lon="14.996367">
        <ele>514.8072</ele>
        <time>2010-12-13T07:09:31Z</time>
      </trkpt>
      <trkpt lat="46.363194" lon="14.996301">
        <ele>515.7216</ele>
        <time>2010-12-13T07:09:46Z</time>
      </trkpt>
      <trkpt lat="46.363365" lon="14.996320">
        <ele>516.9408</ele>
        <time>2010-12-13T07:10:02Z</time>
      </trkpt>
      <trkpt lat="46.363525" lon="14.996385">
        <ele>518.16</ele>
        <time>2010-12-13T07:10:14Z</time>
      </trkpt>
      <trkpt lat="46.363701" lon="14.996452">
        <ele>519.0744</ele>
        <time>2010-12-13T07:10:28Z</time>
      </trkpt>
      <trkpt lat="46.363857" lon="14.996522">
        <ele>519.684</ele>
        <time>2010-12-13T07:10:40Z</time>
      </trkpt>
      <trkpt lat="46.364014" lon="14.996567">
        <ele>520.9032</ele>
        <time>2010-12-13T07:10:52Z</time>
      </trkpt>
      <trkpt lat="46.364231" lon="14.996687">
        <ele>523.0368</ele>
        <time>2010-12-13T07:11:07Z</time>
      </trkpt>
      <trkpt lat="46.364380" lon="14.996766">
        <ele>524.8656</ele>
        <time>2010-12-13T07:11:19Z</time>
      </trkpt>
      <trkpt lat="46.364578" lon="14.996856">
        <ele>527.304</ele>
        <time>2010-12-13T07:11:34Z</time>
      </trkpt>
      <trkpt lat="46.364697" lon="14.996904">
        <ele>529.7424</ele>
        <time>2010-12-13T07:11:46Z</time>
      </trkpt>
      <trkpt lat="46.364815" lon="14.996964">
        <ele>531.5712</ele>
        <time>2010-12-13T07:11:56Z</time>
      </trkpt>
      <trkpt lat="46.364902" lon="14.997009">
        <ele>533.0952</ele>
        <time>2010-12-13T07:12:04Z</time>
      </trkpt>
      <trkpt lat="46.365105" lon="14.997118">
        <ele>532.1808</ele>
        <time>2010-12-13T07:12:20Z</time>
      </trkpt>
      <trkpt lat="46.365284" lon="14.997280">
        <ele>531.5712</ele>
        <time>2010-12-13T07:12:35Z</time>
      </trkpt>
      <trkpt lat="46.365444" lon="14.997481">
        <ele>532.1808</ele>
        <time>2010-12-13T07:12:51Z</time>
      </trkpt>
      <trkpt lat="46.365612" lon="14.997634">
        <ele>534.0096</ele>
        <time>2010-12-13T07:13:04Z</time>
      </trkpt>
      <trkpt lat="46.365768" lon="14.997868">
        <ele>536.1432</ele>
        <time>2010-12-13T07:13:21Z</time>
      </trkpt>
      <trkpt lat="46.365898" lon="14.998050">
        <ele>538.2768</ele>
        <time>2010-12-13T07:13:34Z</time>
      </trkpt>
      <trkpt lat="46.366005" lon="14.998228">
        <ele>541.3248</ele>
        <time>2010-12-13T07:13:46Z</time>
      </trkpt>
      <trkpt lat="46.366066" lon="14.998399">
        <ele>544.068</ele>
        <time>2010-12-13T07:13:57Z</time>
      </trkpt>
      <trkpt lat="46.366108" lon="14.998632">
        <ele>548.0304</ele>
        <time>2010-12-13T07:14:13Z</time>
      </trkpt>
      <trkpt lat="46.366112" lon="14.998697">
        <ele>548.0304</ele>
        <time>2010-12-13T07:14:16Z</time>
      </trkpt>
      <trkpt lat="46.366127" lon="14.998757">
        <ele>549.2496</ele>
        <time>2010-12-13T07:14:20Z</time>
      </trkpt>
      <trkpt lat="46.366116" lon="14.998784">
        <ele>549.2496</ele>
        <time>2010-12-13T07:14:23Z</time>
      </trkpt>
      <trkpt lat="46.366116" lon="14.998831">
        <ele>550.4688</ele>
        <time>2010-12-13T07:14:25Z</time>
      </trkpt>
      <trkpt lat="46.366146" lon="14.999044">
        <ele>552.2976</ele>
        <time>2010-12-13T07:14:36Z</time>
      </trkpt>
      <trkpt lat="46.366173" lon="14.999247">
        <ele>554.736</ele>
        <time>2010-12-13T07:14:47Z</time>
      </trkpt>
      <trkpt lat="46.366196" lon="14.999509">
        <ele>557.4792</ele>
        <time>2010-12-13T07:15:03Z</time>
      </trkpt>
      <trkpt lat="46.366199" lon="14.999538">
        <ele>558.0888</ele>
        <time>2010-12-13T07:15:05Z</time>
      </trkpt>
      <trkpt lat="46.366215" lon="14.999619">
        <ele>559.6128</ele>
        <time>2010-12-13T07:15:10Z</time>
      </trkpt>
      <trkpt lat="46.366207" lon="14.999847">
        <ele>562.356</ele>
        <time>2010-12-13T07:15:22Z</time>
      </trkpt>
      <trkpt lat="46.366192" lon="15.000015">
        <ele>562.6608</ele>
        <time>2010-12-13T07:15:32Z</time>
      </trkpt>
      <trkpt lat="46.366177" lon="15.000273">
        <ele>563.88</ele>
        <time>2010-12-13T07:15:45Z</time>
      </trkpt>
      <trkpt lat="46.366161" lon="15.000332">
        <ele>564.7944</ele>
        <time>2010-12-13T07:15:48Z</time>
      </trkpt>
      <trkpt lat="46.366081" lon="15.000669">
        <ele>565.0992</ele>
        <time>2010-12-13T07:16:05Z</time>
      </trkpt>
      <trkpt lat="46.366074" lon="15.000685">
        <ele>565.7088</ele>
        <time>2010-12-13T07:16:07Z</time>
      </trkpt>
      <trkpt lat="46.366077" lon="15.000751">
        <ele>565.0992</ele>
        <time>2010-12-13T07:16:11Z</time>
      </trkpt>
      <trkpt lat="46.366119" lon="15.000947">
        <ele>565.7088</ele>
        <time>2010-12-13T07:16:20Z</time>
      </trkpt>
      <trkpt lat="46.366207" lon="15.001225">
        <ele>565.7088</ele>
        <time>2010-12-13T07:16:36Z</time>
      </trkpt>
      <trkpt lat="46.366310" lon="15.001495">
        <ele>565.0992</ele>
        <time>2010-12-13T07:16:51Z</time>
      </trkpt>
      <trkpt lat="46.366386" lon="15.001762">
        <ele>565.0992</ele>
        <time>2010-12-13T07:17:05Z</time>
      </trkpt>
      <trkpt lat="46.366402" lon="15.002045">
        <ele>566.3184</ele>
        <time>2010-12-13T07:17:18Z</time>
      </trkpt>
      <trkpt lat="46.366474" lon="15.002255">
        <ele>568.1472</ele>
        <time>2010-12-13T07:17:30Z</time>
      </trkpt>
      <trkpt lat="46.366539" lon="15.002343">
        <ele>569.0616</ele>
        <time>2010-12-13T07:17:37Z</time>
      </trkpt>
      <trkpt lat="46.366718" lon="15.002536">
        <ele>570.2808</ele>
        <time>2010-12-13T07:17:55Z</time>
      </trkpt>
      <trkpt lat="46.366901" lon="15.002721">
        <ele>570.2808</ele>
        <time>2010-12-13T07:18:11Z</time>
      </trkpt>
      <trkpt lat="46.367123" lon="15.002858">
        <ele>569.0616</ele>
        <time>2010-12-13T07:18:27Z</time>
      </trkpt>
      <trkpt lat="46.367256" lon="15.003072">
        <ele>568.452</ele>
        <time>2010-12-13T07:18:42Z</time>
      </trkpt>
      <trkpt lat="46.367260" lon="15.003364">
        <ele>570.5856</ele>
        <time>2010-12-13T07:18:55Z</time>
      </trkpt>
      <trkpt lat="46.367264" lon="15.003385">
        <ele>570.5856</ele>
        <time>2010-12-13T07:18:57Z</time>
      </trkpt>
      <trkpt lat="46.367229" lon="15.003659">
        <ele>573.9384</ele>
        <time>2010-12-13T07:19:12Z</time>
      </trkpt>
      <trkpt lat="46.367195" lon="15.003901">
        <ele>574.548</ele>
        <time>2010-12-13T07:19:25Z</time>
      </trkpt>
      <trkpt lat="46.367142" lon="15.004170">
        <ele>573.3288</ele>
        <time>2010-12-13T07:19:37Z</time>
      </trkpt>
      <trkpt lat="46.367081" lon="15.004430">
        <ele>570.8904</ele>
        <time>2010-12-13T07:19:52Z</time>
      </trkpt>
      <trkpt lat="46.367126" lon="15.004562">
        <ele>572.4144</ele>
        <time>2010-12-13T07:20:00Z</time>
      </trkpt>
      <trkpt lat="46.367260" lon="15.004721">
        <ele>575.4624</ele>
        <time>2010-12-13T07:20:15Z</time>
      </trkpt>
      <trkpt lat="46.367268" lon="15.004731">
        <ele>575.7672</ele>
        <time>2010-12-13T07:20:15Z</time>
      </trkpt>
      <trkpt lat="46.367455" lon="15.004728">
        <ele>577.2912</ele>
        <time>2010-12-13T07:20:30Z</time>
      </trkpt>
      <trkpt lat="46.367611" lon="15.004585">
        <ele>579.7296</ele>
        <time>2010-12-13T07:20:43Z</time>
      </trkpt>
      <trkpt lat="46.367596" lon="15.004441">
        <ele>581.2536</ele>
        <time>2010-12-13T07:20:51Z</time>
      </trkpt>
      <trkpt lat="46.367569" lon="15.004188">
        <ele>582.4728</ele>
        <time>2010-12-13T07:21:06Z</time>
      </trkpt>
      <trkpt lat="46.367596" lon="15.003898">
        <ele>583.692</ele>
        <time>2010-12-13T07:21:21Z</time>
      </trkpt>
      <trkpt lat="46.367638" lon="15.003601">
        <ele>586.1304</ele>
        <time>2010-12-13T07:21:36Z</time>
      </trkpt>
      <trkpt lat="46.367668" lon="15.003403">
        <ele>587.0448</ele>
        <time>2010-12-13T07:21:45Z</time>
      </trkpt>
      <trkpt lat="46.367840" lon="15.003175">
        <ele>589.788</ele>
        <time>2010-12-13T07:22:02Z</time>
      </trkpt>
      <trkpt lat="46.367931" lon="15.002926">
        <ele>591.312</ele>
        <time>2010-12-13T07:22:15Z</time>
      </trkpt>
      <trkpt lat="46.367962" lon="15.002654">
        <ele>594.0552</ele>
        <time>2010-12-13T07:22:30Z</time>
      </trkpt>
      <trkpt lat="46.367977" lon="15.002608">
        <ele>594.9696</ele>
        <time>2010-12-13T07:22:33Z</time>
      </trkpt>
      <trkpt lat="46.368004" lon="15.002542">
        <ele>595.5792</ele>
        <time>2010-12-13T07:22:37Z</time>
      </trkpt>
      <trkpt lat="46.368111" lon="15.002341">
        <ele>598.0176</ele>
        <time>2010-12-13T07:22:49Z</time>
      </trkpt>
      <trkpt lat="46.368248" lon="15.002068">
        <ele>600.456</ele>
        <time>2010-12-13T07:23:05Z</time>
      </trkpt>
      <trkpt lat="46.368408" lon="15.001901">
        <ele>603.1992</ele>
        <time>2010-12-13T07:23:20Z</time>
      </trkpt>
      <trkpt lat="46.368572" lon="15.001783">
        <ele>604.7232</ele>
        <time>2010-12-13T07:23:35Z</time>
      </trkpt>
      <trkpt lat="46.368755" lon="15.001714">
        <ele>607.1616</ele>
        <time>2010-12-13T07:23:48Z</time>
      </trkpt>
      <trkpt lat="46.368938" lon="15.001688">
        <ele>608.6856</ele>
        <time>2010-12-13T07:24:03Z</time>
      </trkpt>
      <trkpt lat="46.369015" lon="15.001706">
        <ele>608.6856</ele>
        <time>2010-12-13T07:24:07Z</time>
      </trkpt>
      <trkpt lat="46.369057" lon="15.001721">
        <ele>608.6856</ele>
        <time>2010-12-13T07:24:10Z</time>
      </trkpt>
      <trkpt lat="46.369221" lon="15.001781">
        <ele>608.9904</ele>
        <time>2010-12-13T07:24:22Z</time>
      </trkpt>
      <trkpt lat="46.369293" lon="15.001785">
        <ele>608.9904</ele>
        <time>2010-12-13T07:24:27Z</time>
      </trkpt>
      <trkpt lat="46.369522" lon="15.001868">
        <ele>608.9904</ele>
        <time>2010-12-13T07:24:41Z</time>
      </trkpt>
      <trkpt lat="46.369709" lon="15.001923">
        <ele>608.9904</ele>
        <time>2010-12-13T07:24:56Z</time>
      </trkpt>
      <trkpt lat="46.369862" lon="15.001965">
        <ele>607.4664</ele>
        <time>2010-12-13T07:25:08Z</time>
      </trkpt>
      <trkpt lat="46.369892" lon="15.002004">
        <ele>607.1616</ele>
        <time>2010-12-13T07:25:23Z</time>
      </trkpt>
      <trkpt lat="46.369904" lon="15.002009">
        <ele>606.552</ele>
        <time>2010-12-13T07:25:47Z</time>
      </trkpt>
      <trkpt lat="46.369938" lon="15.002032">
        <ele>606.552</ele>
        <time>2010-12-13T07:25:48Z</time>
      </trkpt>
      <trkpt lat="46.370132" lon="15.002183">
        <ele>605.3328</ele>
        <time>2010-12-13T07:26:02Z</time>
      </trkpt>
      <trkpt lat="46.370342" lon="15.002348">
        <ele>605.3328</ele>
        <time>2010-12-13T07:26:17Z</time>
      </trkpt>
      <trkpt lat="46.370453" lon="15.002376">
        <ele>605.3328</ele>
        <time>2010-12-13T07:26:24Z</time>
      </trkpt>
      <trkpt lat="46.370598" lon="15.002352">
        <ele>605.6376</ele>
        <time>2010-12-13T07:26:33Z</time>
      </trkpt>
      <trkpt lat="46.370785" lon="15.002118">
        <ele>607.4664</ele>
        <time>2010-12-13T07:26:49Z</time>
      </trkpt>
      <trkpt lat="46.370819" lon="15.002045">
        <ele>608.076</ele>
        <time>2010-12-13T07:26:53Z</time>
      </trkpt>
      <trkpt lat="46.370930" lon="15.001853">
        <ele>608.6856</ele>
        <time>2010-12-13T07:27:04Z</time>
      </trkpt>
      <trkpt lat="46.370953" lon="15.001762">
        <ele>609.9048</ele>
        <time>2010-12-13T07:27:09Z</time>
      </trkpt>
      <trkpt lat="46.370975" lon="15.001694">
        <ele>610.5144</ele>
        <time>2010-12-13T07:27:14Z</time>
      </trkpt>
      <trkpt lat="46.371109" lon="15.001451">
        <ele>613.2576</ele>
        <time>2010-12-13T07:27:27Z</time>
      </trkpt>
      <trkpt lat="46.371181" lon="15.001256">
        <ele>615.696</ele>
        <time>2010-12-13T07:27:39Z</time>
      </trkpt>
      <trkpt lat="46.371216" lon="15.001129">
        <ele>617.22</ele>
        <time>2010-12-13T07:27:46Z</time>
      </trkpt>
      <trkpt lat="46.371250" lon="15.001032">
        <ele>618.1344</ele>
        <time>2010-12-13T07:27:51Z</time>
      </trkpt>
      <trkpt lat="46.371258" lon="15.000958">
        <ele>619.0488</ele>
        <time>2010-12-13T07:27:55Z</time>
      </trkpt>
      <trkpt lat="46.371258" lon="15.000670">
        <ele>620.8776</ele>
        <time>2010-12-13T07:28:09Z</time>
      </trkpt>
      <trkpt lat="46.371227" lon="15.000463">
        <ele>623.316</ele>
        <time>2010-12-13T07:28:21Z</time>
      </trkpt>
      <trkpt lat="46.371235" lon="15.000431">
        <ele>623.316</ele>
        <time>2010-12-13T07:28:24Z</time>
      </trkpt>
      <trkpt lat="46.371254" lon="15.000384">
        <ele>624.5352</ele>
        <time>2010-12-13T07:28:26Z</time>
      </trkpt>
      <trkpt lat="46.371342" lon="15.000340">
        <ele>626.364</ele>
        <time>2010-12-13T07:28:36Z</time>
      </trkpt>
      <trkpt lat="46.371460" lon="15.000413">
        <ele>630.6312</ele>
        <time>2010-12-13T07:28:48Z</time>
      </trkpt>
      <trkpt lat="46.371483" lon="15.000415">
        <ele>630.6312</ele>
        <time>2010-12-13T07:28:49Z</time>
      </trkpt>
      <trkpt lat="46.371620" lon="15.000510">
        <ele>633.6792</ele>
        <time>2010-12-13T07:29:02Z</time>
      </trkpt>
      <trkpt lat="46.371780" lon="15.000608">
        <ele>637.032</ele>
        <time>2010-12-13T07:29:15Z</time>
      </trkpt>
      <trkpt lat="46.371918" lon="15.000641">
        <ele>640.08</ele>
        <time>2010-12-13T07:29:29Z</time>
      </trkpt>
      <trkpt lat="46.372028" lon="15.000664">
        <ele>643.7376</ele>
        <time>2010-12-13T07:29:41Z</time>
      </trkpt>
      <trkpt lat="46.372120" lon="15.000721">
        <ele>645.5664</ele>
        <time>2010-12-13T07:29:50Z</time>
      </trkpt>
      <trkpt lat="46.372150" lon="15.000736">
        <ele>646.4808</ele>
        <time>2010-12-13T07:29:54Z</time>
      </trkpt>
      <trkpt lat="46.372189" lon="15.000738">
        <ele>648.0048</ele>
        <time>2010-12-13T07:29:58Z</time>
      </trkpt>
      <trkpt lat="46.372341" lon="15.000889">
        <ele>650.748</ele>
        <time>2010-12-13T07:30:13Z</time>
      </trkpt>
      <trkpt lat="46.372353" lon="15.000916">
        <ele>651.3576</ele>
        <time>2010-12-13T07:30:14Z</time>
      </trkpt>
      <trkpt lat="46.372475" lon="15.001108">
        <ele>652.272</ele>
        <time>2010-12-13T07:30:29Z</time>
      </trkpt>
      <trkpt lat="46.372604" lon="15.001294">
        <ele>652.8816</ele>
        <time>2010-12-13T07:30:41Z</time>
      </trkpt>
      <trkpt lat="46.372692" lon="15.001487">
        <ele>653.796</ele>
        <time>2010-12-13T07:30:54Z</time>
      </trkpt>
      <trkpt lat="46.372559" lon="15.001558">
        <ele>656.5392</ele>
        <time>2010-12-13T07:31:07Z</time>
      </trkpt>
      <trkpt lat="46.372375" lon="15.001508">
        <ele>658.6728</ele>
        <time>2010-12-13T07:31:23Z</time>
      </trkpt>
      <trkpt lat="46.372330" lon="15.001612">
        <ele>658.9776</ele>
        <time>2010-12-13T07:31:38Z</time>
      </trkpt>
      <trkpt lat="46.372330" lon="15.001612">
        <ele>658.6728</ele>
        <time>2010-12-13T07:31:54Z</time>
      </trkpt>
      <trkpt lat="46.372330" lon="15.001621">
        <ele>658.6728</ele>
        <time>2010-12-13T07:32:25Z</time>
      </trkpt>
      <trkpt lat="46.372334" lon="15.001647">
        <ele>658.6728</ele>
        <time>2010-12-13T07:32:52Z</time>
      </trkpt>
      <trkpt lat="46.372334" lon="15.001647">
        <ele>658.0632</ele>
        <time>2010-12-13T07:33:15Z</time>
      </trkpt>
      <trkpt lat="46.372334" lon="15.001647">
        <ele>658.0632</ele>
        <time>2010-12-13T07:33:17Z</time>
      </trkpt>
      <trkpt lat="46.372334" lon="15.001655">
        <ele>658.6728</ele>
        <time>2010-12-13T07:33:37Z</time>
      </trkpt>
      <trkpt lat="46.372334" lon="15.001655">
        <ele>657.4536</ele>
        <time>2010-12-13T07:33:57Z</time>
      </trkpt>
      <trkpt lat="46.372360" lon="15.001670">
        <ele>658.9776</ele>
        <time>2010-12-13T07:34:15Z</time>
      </trkpt>
      <trkpt lat="46.372406" lon="15.001718">
        <ele>658.0632</ele>
        <time>2010-12-13T07:34:20Z</time>
      </trkpt>
      <trkpt lat="46.372425" lon="15.001779">
        <ele>656.5392</ele>
        <time>2010-12-13T07:34:24Z</time>
      </trkpt>
      <trkpt lat="46.372463" lon="15.001783">
        <ele>657.1488</ele>
        <time>2010-12-13T07:34:28Z</time>
      </trkpt>
      <trkpt lat="46.372646" lon="15.001534">
        <ele>655.32</ele>
        <time>2010-12-13T07:34:47Z</time>
      </trkpt>
      <trkpt lat="46.372749" lon="15.001687">
        <ele>651.6624</ele>
        <time>2010-12-13T07:34:58Z</time>
      </trkpt>
      <trkpt lat="46.372810" lon="15.001958">
        <ele>649.8336</ele>
        <time>2010-12-13T07:35:11Z</time>
      </trkpt>
      <trkpt lat="46.372890" lon="15.002195">
        <ele>647.0904</ele>
        <time>2010-12-13T07:35:25Z</time>
      </trkpt>
      <trkpt lat="46.373066" lon="15.002345">
        <ele>644.9568</ele>
        <time>2010-12-13T07:35:37Z</time>
      </trkpt>
      <trkpt lat="46.373154" lon="15.002375">
        <ele>643.128</ele>
        <time>2010-12-13T07:35:44Z</time>
      </trkpt>
      <trkpt lat="46.373383" lon="15.002484">
        <ele>642.5184</ele>
        <time>2010-12-13T07:36:00Z</time>
      </trkpt>
      <trkpt lat="46.373589" lon="15.002628">
        <ele>640.08</ele>
        <time>2010-12-13T07:36:15Z</time>
      </trkpt>
      <trkpt lat="46.373821" lon="15.002786">
        <ele>639.7752</ele>
        <time>2010-12-13T07:36:31Z</time>
      </trkpt>
      <trkpt lat="46.373829" lon="15.002861">
        <ele>639.4704</ele>
        <time>2010-12-13T07:36:35Z</time>
      </trkpt>
      <trkpt lat="46.373772" lon="15.002899">
        <ele>638.2512</ele>
        <time>2010-12-13T07:36:39Z</time>
      </trkpt>
      <trkpt lat="46.373650" lon="15.002887">
        <ele>636.1176</ele>
        <time>2010-12-13T07:36:49Z</time>
      </trkpt>
      <trkpt lat="46.373409" lon="15.003057">
        <ele>633.6792</ele>
        <time>2010-12-13T07:37:06Z</time>
      </trkpt>
      <trkpt lat="46.373192" lon="15.003168">
        <ele>632.46</ele>
        <time>2010-12-13T07:37:22Z</time>
      </trkpt>
      <trkpt lat="46.373001" lon="15.003299">
        <ele>629.7168</ele>
        <time>2010-12-13T07:37:37Z</time>
      </trkpt>
      <trkpt lat="46.372822" lon="15.003460">
        <ele>626.6688</ele>
        <time>2010-12-13T07:37:51Z</time>
      </trkpt>
      <trkpt lat="46.372700" lon="15.003581">
        <ele>624.84</ele>
        <time>2010-12-13T07:38:00Z</time>
      </trkpt>
      <trkpt lat="46.372684" lon="15.003603">
        <ele>623.9256</ele>
        <time>2010-12-13T07:38:03Z</time>
      </trkpt>
      <trkpt lat="46.372631" lon="15.003757">
        <ele>620.5728</ele>
        <time>2010-12-13T07:38:12Z</time>
      </trkpt>
      <trkpt lat="46.372581" lon="15.003788">
        <ele>619.6584</ele>
        <time>2010-12-13T07:38:18Z</time>
      </trkpt>
      <trkpt lat="46.372467" lon="15.003905">
        <ele>616.3056</ele>
        <time>2010-12-13T07:38:27Z</time>
      </trkpt>
      <trkpt lat="46.372360" lon="15.004008">
        <ele>613.8672</ele>
        <time>2010-12-13T07:38:38Z</time>
      </trkpt>
      <trkpt lat="46.372311" lon="15.003984">
        <ele>612.0384</ele>
        <time>2010-12-13T07:38:45Z</time>
      </trkpt>
      <trkpt lat="46.372246" lon="15.003955">
        <ele>610.5144</ele>
        <time>2010-12-13T07:38:50Z</time>
      </trkpt>
      <trkpt lat="46.372169" lon="15.003960">
        <ele>608.6856</ele>
        <time>2010-12-13T07:38:54Z</time>
      </trkpt>
      <trkpt lat="46.372078" lon="15.003989">
        <ele>606.2472</ele>
        <time>2010-12-13T07:39:00Z</time>
      </trkpt>
      <trkpt lat="46.371994" lon="15.003947">
        <ele>603.1992</ele>
        <time>2010-12-13T07:39:05Z</time>
      </trkpt>
      <trkpt lat="46.371929" lon="15.003949">
        <ele>600.7608</ele>
        <time>2010-12-13T07:39:10Z</time>
      </trkpt>
      <trkpt lat="46.371891" lon="15.003957">
        <ele>600.7608</ele>
        <time>2010-12-13T07:39:13Z</time>
      </trkpt>
      <trkpt lat="46.371857" lon="15.004015">
        <ele>599.5416</ele>
        <time>2010-12-13T07:39:17Z</time>
      </trkpt>
      <trkpt lat="46.371838" lon="15.004111">
        <ele>597.408</ele>
        <time>2010-12-13T07:39:21Z</time>
      </trkpt>
      <trkpt lat="46.371838" lon="15.004337">
        <ele>594.0552</ele>
        <time>2010-12-13T07:39:32Z</time>
      </trkpt>
      <trkpt lat="46.371830" lon="15.004354">
        <ele>594.0552</ele>
        <time>2010-12-13T07:39:32Z</time>
      </trkpt>
      <trkpt lat="46.371880" lon="15.004568">
        <ele>590.7024</ele>
        <time>2010-12-13T07:39:43Z</time>
      </trkpt>
      <trkpt lat="46.371880" lon="15.004592">
        <ele>590.7024</ele>
        <time>2010-12-13T07:39:44Z</time>
      </trkpt>
      <trkpt lat="46.371910" lon="15.004675">
        <ele>590.0928</ele>
        <time>2010-12-13T07:39:48Z</time>
      </trkpt>
      <trkpt lat="46.372055" lon="15.005019">
        <ele>587.3496</ele>
        <time>2010-12-13T07:40:02Z</time>
      </trkpt>
      <trkpt lat="46.372154" lon="15.005200">
        <ele>586.1304</ele>
        <time>2010-12-13T07:40:12Z</time>
      </trkpt>
      <trkpt lat="46.372208" lon="15.005408">
        <ele>584.9112</ele>
        <time>2010-12-13T07:40:22Z</time>
      </trkpt>
      <trkpt lat="46.372276" lon="15.005518">
        <ele>583.9968</ele>
        <time>2010-12-13T07:40:30Z</time>
      </trkpt>
      <trkpt lat="46.372478" lon="15.005667">
        <ele>581.5584</ele>
        <time>2010-12-13T07:40:42Z</time>
      </trkpt>
      <trkpt lat="46.372494" lon="15.005675">
        <ele>581.5584</ele>
        <time>2010-12-13T07:40:44Z</time>
      </trkpt>
      <trkpt lat="46.372532" lon="15.005749">
        <ele>580.644</ele>
        <time>2010-12-13T07:40:48Z</time>
      </trkpt>
      <trkpt lat="46.372589" lon="15.005847">
        <ele>579.12</ele>
        <time>2010-12-13T07:40:53Z</time>
      </trkpt>
      <trkpt lat="46.372585" lon="15.005974">
        <ele>575.7672</ele>
        <time>2010-12-13T07:41:04Z</time>
      </trkpt>
      <trkpt lat="46.372566" lon="15.006288">
        <ele>573.024</ele>
        <time>2010-12-13T07:41:19Z</time>
      </trkpt>
      <trkpt lat="46.372452" lon="15.006564">
        <ele>569.6712</ele>
        <time>2010-12-13T07:41:32Z</time>
      </trkpt>
      <trkpt lat="46.372246" lon="15.006473">
        <ele>566.928</ele>
        <time>2010-12-13T07:41:44Z</time>
      </trkpt>
      <trkpt lat="46.372158" lon="15.006474">
        <ele>565.7088</ele>
        <time>2010-12-13T07:41:50Z</time>
      </trkpt>
      <trkpt lat="46.372055" lon="15.006590">
        <ele>562.0512</ele>
        <time>2010-12-13T07:41:59Z</time>
      </trkpt>
      <trkpt lat="46.372044" lon="15.006606">
        <ele>561.4416</ele>
        <time>2010-12-13T07:41:59Z</time>
      </trkpt>
      <trkpt lat="46.371967" lon="15.006814">
        <ele>558.6984</ele>
        <time>2010-12-13T07:42:10Z</time>
      </trkpt>
      <trkpt lat="46.371880" lon="15.006998">
        <ele>555.6504</ele>
        <time>2010-12-13T07:42:18Z</time>
      </trkpt>
      <trkpt lat="46.371746" lon="15.007165">
        <ele>552.2976</ele>
        <time>2010-12-13T07:42:30Z</time>
      </trkpt>
      <trkpt lat="46.371582" lon="15.007186">
        <ele>548.9448</ele>
        <time>2010-12-13T07:42:40Z</time>
      </trkpt>
      <trkpt lat="46.371391" lon="15.007083">
        <ele>545.8968</ele>
        <time>2010-12-13T07:42:53Z</time>
      </trkpt>
      <trkpt lat="46.371284" lon="15.007207">
        <ele>542.544</ele>
        <time>2010-12-13T07:43:03Z</time>
      </trkpt>
      <trkpt lat="46.371300" lon="15.007543">
        <ele>539.8008</ele>
        <time>2010-12-13T07:43:17Z</time>
      </trkpt>
      <trkpt lat="46.371311" lon="15.007843">
        <ele>536.448</ele>
        <time>2010-12-13T07:43:31Z</time>
      </trkpt>
      <trkpt lat="46.371201" lon="15.008182">
        <ele>533.0952</ele>
        <time>2010-12-13T07:43:47Z</time>
      </trkpt>
      <trkpt lat="46.370991" lon="15.008365">
        <ele>530.352</ele>
        <time>2010-12-13T07:44:02Z</time>
      </trkpt>
      <trkpt lat="46.370796" lon="15.008490">
        <ele>527.304</ele>
        <time>2010-12-13T07:44:15Z</time>
      </trkpt>
      <trkpt lat="46.370674" lon="15.008658">
        <ele>524.256</ele>
        <time>2010-12-13T07:44:28Z</time>
      </trkpt>
      <trkpt lat="46.370464" lon="15.008776">
        <ele>520.9032</ele>
        <time>2010-12-13T07:44:41Z</time>
      </trkpt>
      <trkpt lat="46.370358" lon="15.008794">
        <ele>519.0744</ele>
        <time>2010-12-13T07:44:49Z</time>
      </trkpt>
      <trkpt lat="46.370304" lon="15.008833">
        <ele>517.2456</ele>
        <time>2010-12-13T07:44:52Z</time>
      </trkpt>
      <trkpt lat="46.370258" lon="15.009037">
        <ele>513.2832</ele>
        <time>2010-12-13T07:45:01Z</time>
      </trkpt>
      <trkpt lat="46.370228" lon="15.009186">
        <ele>509.6256</ele>
        <time>2010-12-13T07:45:07Z</time>
      </trkpt>
      <trkpt lat="46.370209" lon="15.009339">
        <ele>506.5776</ele>
        <time>2010-12-13T07:45:12Z</time>
      </trkpt>
      <trkpt lat="46.370190" lon="15.009459">
        <ele>504.7488</ele>
        <time>2010-12-13T07:45:16Z</time>
      </trkpt>
      <trkpt lat="46.370193" lon="15.009524">
        <ele>503.8344</ele>
        <time>2010-12-13T07:45:18Z</time>
      </trkpt>
      <trkpt lat="46.370197" lon="15.009725">
        <ele>500.4816</ele>
        <time>2010-12-13T07:45:23Z</time>
      </trkpt>
      <trkpt lat="46.370213" lon="15.009934">
        <ele>497.7384</ele>
        <time>2010-12-13T07:45:31Z</time>
      </trkpt>
      <trkpt lat="46.370213" lon="15.010058">
        <ele>495.9096</ele>
        <time>2010-12-13T07:45:35Z</time>
      </trkpt>
      <trkpt lat="46.370213" lon="15.010118">
        <ele>494.6904</ele>
        <time>2010-12-13T07:45:36Z</time>
      </trkpt>
      <trkpt lat="46.370186" lon="15.010295">
        <ele>491.9472</ele>
        <time>2010-12-13T07:45:43Z</time>
      </trkpt>
      <trkpt lat="46.370152" lon="15.010399">
        <ele>488.2896</ele>
        <time>2010-12-13T07:45:47Z</time>
      </trkpt>
      <trkpt lat="46.370136" lon="15.010452">
        <ele>487.0704</ele>
        <time>2010-12-13T07:45:50Z</time>
      </trkpt>
      <trkpt lat="46.370110" lon="15.010531">
        <ele>484.9368</ele>
        <time>2010-12-13T07:45:54Z</time>
      </trkpt>
      <trkpt lat="46.370010" lon="15.010722">
        <ele>481.584</ele>
        <time>2010-12-13T07:46:03Z</time>
      </trkpt>
      <trkpt lat="46.369953" lon="15.010785">
        <ele>477.9264</ele>
        <time>2010-12-13T07:46:10Z</time>
      </trkpt>
      <trkpt lat="46.369938" lon="15.010792">
        <ele>477.3168</ele>
        <time>2010-12-13T07:46:10Z</time>
      </trkpt>
      <trkpt lat="46.369911" lon="15.010799">
        <ele>476.4024</ele>
        <time>2010-12-13T07:46:13Z</time>
      </trkpt>
      <trkpt lat="46.369884" lon="15.010811">
        <ele>476.4024</ele>
        <time>2010-12-13T07:46:14Z</time>
      </trkpt>
      <trkpt lat="46.369839" lon="15.010855">
        <ele>474.2688</ele>
        <time>2010-12-13T07:46:18Z</time>
      </trkpt>
      <trkpt lat="46.369797" lon="15.010886">
        <ele>473.3544</ele>
        <time>2010-12-13T07:46:21Z</time>
      </trkpt>
      <trkpt lat="46.369656" lon="15.010955">
        <ele>470.3064</ele>
        <time>2010-12-13T07:46:28Z</time>
      </trkpt>
      <trkpt lat="46.369572" lon="15.010982">
        <ele>468.4776</ele>
        <time>2010-12-13T07:46:33Z</time>
      </trkpt>
      <trkpt lat="46.369408" lon="15.011051">
        <ele>464.82</ele>
        <time>2010-12-13T07:46:47Z</time>
      </trkpt>
      <trkpt lat="46.369247" lon="15.011026">
        <ele>461.4672</ele>
        <time>2010-12-13T07:46:57Z</time>
      </trkpt>
      <trkpt lat="46.369232" lon="15.011022">
        <ele>461.4672</ele>
        <time>2010-12-13T07:46:59Z</time>
      </trkpt>
      <trkpt lat="46.369202" lon="15.011012">
        <ele>460.5528</ele>
        <time>2010-12-13T07:47:00Z</time>
      </trkpt>
      <trkpt lat="46.369152" lon="15.010931">
        <ele>457.2</ele>
        <time>2010-12-13T07:47:07Z</time>
      </trkpt>
      <trkpt lat="46.369091" lon="15.010893">
        <ele>454.7616</ele>
        <time>2010-12-13T07:47:14Z</time>
      </trkpt>
      <trkpt lat="46.369057" lon="15.010881">
        <ele>453.2376</ele>
        <time>2010-12-13T07:47:16Z</time>
      </trkpt>
      <trkpt lat="46.369022" lon="15.010841">
        <ele>451.4088</ele>
        <time>2010-12-13T07:47:22Z</time>
      </trkpt>
      <trkpt lat="46.369019" lon="15.010867">
        <ele>448.056</ele>
        <time>2010-12-13T07:47:33Z</time>
      </trkpt>
      <trkpt lat="46.369003" lon="15.010884">
        <ele>448.056</ele>
        <time>2010-12-13T07:47:34Z</time>
      </trkpt>
      <trkpt lat="46.368881" lon="15.011037">
        <ele>444.0936</ele>
        <time>2010-12-13T07:47:42Z</time>
      </trkpt>
      <trkpt lat="46.368755" lon="15.011125">
        <ele>441.3504</ele>
        <time>2010-12-13T07:47:53Z</time>
      </trkpt>
      <trkpt lat="46.368736" lon="15.011174">
        <ele>441.3504</ele>
        <time>2010-12-13T07:47:56Z</time>
      </trkpt>
      <trkpt lat="46.368641" lon="15.011271">
        <ele>438.3024</ele>
        <time>2010-12-13T07:48:04Z</time>
      </trkpt>
      <trkpt lat="46.368507" lon="15.011437">
        <ele>435.5592</ele>
        <time>2010-12-13T07:48:14Z</time>
      </trkpt>
      <trkpt lat="46.368355" lon="15.011731">
        <ele>432.5112</ele>
        <time>2010-12-13T07:48:29Z</time>
      </trkpt>
      <trkpt lat="46.368244" lon="15.011914">
        <ele>429.768</ele>
        <time>2010-12-13T07:48:43Z</time>
      </trkpt>
      <trkpt lat="46.368195" lon="15.012040">
        <ele>429.1584</ele>
        <time>2010-12-13T07:48:50Z</time>
      </trkpt>
      <trkpt lat="46.368202" lon="15.012092">
        <ele>428.244</ele>
        <time>2010-12-13T07:48:54Z</time>
      </trkpt>
      <trkpt lat="46.368176" lon="15.012177">
        <ele>426.1104</ele>
        <time>2010-12-13T07:48:59Z</time>
      </trkpt>
      <trkpt lat="46.368176" lon="15.012218">
        <ele>424.8912</ele>
        <time>2010-12-13T07:49:00Z</time>
      </trkpt>
      <trkpt lat="46.368126" lon="15.012477">
        <ele>422.148</ele>
        <time>2010-12-13T07:49:11Z</time>
      </trkpt>
      <trkpt lat="46.368191" lon="15.012584">
        <ele>419.7096</ele>
        <time>2010-12-13T07:49:18Z</time>
      </trkpt>
      <trkpt lat="46.368217" lon="15.012626">
        <ele>418.4904</ele>
        <time>2010-12-13T07:49:21Z</time>
      </trkpt>
      <trkpt lat="46.368324" lon="15.012760">
        <ele>415.4424</ele>
        <time>2010-12-13T07:49:31Z</time>
      </trkpt>
      <trkpt lat="46.368473" lon="15.013010">
        <ele>413.9184</ele>
        <time>2010-12-13T07:49:46Z</time>
      </trkpt>
      <trkpt lat="46.368446" lon="15.013093">
        <ele>413.9184</ele>
        <time>2010-12-13T07:49:49Z</time>
      </trkpt>
      <trkpt lat="46.368435" lon="15.013238">
        <ele>412.3944</ele>
        <time>2010-12-13T07:49:57Z</time>
      </trkpt>
      <trkpt lat="46.368427" lon="15.013430">
        <ele>408.7368</ele>
        <time>2010-12-13T07:50:06Z</time>
      </trkpt>
      <trkpt lat="46.368446" lon="15.013624">
        <ele>406.6032</ele>
        <time>2010-12-13T07:50:15Z</time>
      </trkpt>
      <trkpt lat="46.368443" lon="15.013743">
        <ele>404.7744</ele>
        <time>2010-12-13T07:50:20Z</time>
      </trkpt>
      <trkpt lat="46.368427" lon="15.013791">
        <ele>403.2504</ele>
        <time>2010-12-13T07:50:21Z</time>
      </trkpt>
      <trkpt lat="46.368351" lon="15.014023">
        <ele>400.5072</ele>
        <time>2010-12-13T07:50:31Z</time>
      </trkpt>
      <trkpt lat="46.368351" lon="15.014129">
        <ele>398.0688</ele>
        <time>2010-12-13T07:50:38Z</time>
      </trkpt>
      <trkpt lat="46.368374" lon="15.014265">
        <ele>394.716</ele>
        <time>2010-12-13T07:50:44Z</time>
      </trkpt>
      <trkpt lat="46.368374" lon="15.014303">
        <ele>394.1064</ele>
        <time>2010-12-13T07:50:47Z</time>
      </trkpt>
      <trkpt lat="46.368397" lon="15.014455">
        <ele>391.668</ele>
        <time>2010-12-13T07:50:54Z</time>
      </trkpt>
      <trkpt lat="46.368431" lon="15.014745">
        <ele>388.9248</ele>
        <time>2010-12-13T07:51:09Z</time>
      </trkpt>
      <trkpt lat="46.368607" lon="15.014858">
        <ele>387.096</ele>
        <time>2010-12-13T07:51:21Z</time>
      </trkpt>
      <trkpt lat="46.368816" lon="15.014835">
        <ele>383.7432</ele>
        <time>2010-12-13T07:51:34Z</time>
      </trkpt>
      <trkpt lat="46.368832" lon="15.014830">
        <ele>383.1336</ele>
        <time>2010-12-13T07:51:36Z</time>
      </trkpt>
      <trkpt lat="46.369003" lon="15.014914">
        <ele>379.7808</ele>
        <time>2010-12-13T07:51:48Z</time>
      </trkpt>
      <trkpt lat="46.369083" lon="15.015022">
        <ele>377.3424</ele>
        <time>2010-12-13T07:51:56Z</time>
      </trkpt>
      <trkpt lat="46.369194" lon="15.015141">
        <ele>375.5136</ele>
        <time>2010-12-13T07:52:05Z</time>
      </trkpt>
      <trkpt lat="46.369152" lon="15.015436">
        <ele>372.4656</ele>
        <time>2010-12-13T07:52:20Z</time>
      </trkpt>
      <trkpt lat="46.369057" lon="15.015591">
        <ele>369.1128</ele>
        <time>2010-12-13T07:52:30Z</time>
      </trkpt>
      <trkpt lat="46.368969" lon="15.015716">
        <ele>366.0648</ele>
        <time>2010-12-13T07:52:39Z</time>
      </trkpt>
      <trkpt lat="46.368938" lon="15.015736">
        <ele>364.8456</ele>
        <time>2010-12-13T07:52:40Z</time>
      </trkpt>
      <trkpt lat="46.368816" lon="15.015810">
        <ele>361.4928</ele>
        <time>2010-12-13T07:52:50Z</time>
      </trkpt>
      <trkpt lat="46.368687" lon="15.015910">
        <ele>358.14</ele>
        <time>2010-12-13T07:52:58Z</time>
      </trkpt>
      <trkpt lat="46.368549" lon="15.016022">
        <ele>354.7872</ele>
        <time>2010-12-13T07:53:09Z</time>
      </trkpt>
      <trkpt lat="46.368500" lon="15.016045">
        <ele>354.1776</ele>
        <time>2010-12-13T07:53:13Z</time>
      </trkpt>
      <trkpt lat="46.368286" lon="15.016230">
        <ele>351.1296</ele>
        <time>2010-12-13T07:53:29Z</time>
      </trkpt>
      <trkpt lat="46.368084" lon="15.016315">
        <ele>348.996</ele>
        <time>2010-12-13T07:53:44Z</time>
      </trkpt>
      <trkpt lat="46.367989" lon="15.016248">
        <ele>346.5576</ele>
        <time>2010-12-13T07:53:51Z</time>
      </trkpt>
      <trkpt lat="46.367962" lon="15.016184">
        <ele>345.3384</ele>
        <time>2010-12-13T07:53:55Z</time>
      </trkpt>
      <trkpt lat="46.367935" lon="15.016123">
        <ele>344.1192</ele>
        <time>2010-12-13T07:53:59Z</time>
      </trkpt>
      <trkpt lat="46.367878" lon="15.016114">
        <ele>343.2048</ele>
        <time>2010-12-13T07:54:03Z</time>
      </trkpt>
      <trkpt lat="46.367840" lon="15.016166">
        <ele>342.2904</ele>
        <time>2010-12-13T07:54:07Z</time>
      </trkpt>
      <trkpt lat="46.367844" lon="15.016422">
        <ele>338.9376</ele>
        <time>2010-12-13T07:54:20Z</time>
      </trkpt>
      <trkpt lat="46.367851" lon="15.016493">
        <ele>338.328</ele>
        <time>2010-12-13T07:54:24Z</time>
      </trkpt>
      <trkpt lat="46.367790" lon="15.016621">
        <ele>338.328</ele>
        <time>2010-12-13T07:54:41Z</time>
      </trkpt>
      <trkpt lat="46.367764" lon="15.016621">
        <ele>339.5472</ele>
        <time>2010-12-13T07:54:43Z</time>
      </trkpt>
      <trkpt lat="46.367519" lon="15.016586">
        <ele>338.9376</ele>
        <time>2010-12-13T07:54:59Z</time>
      </trkpt>
      <trkpt lat="46.367268" lon="15.016576">
        <ele>338.328</ele>
        <time>2010-12-13T07:55:17Z</time>
      </trkpt>
      <trkpt lat="46.367008" lon="15.016536">
        <ele>338.328</ele>
        <time>2010-12-13T07:55:33Z</time>
      </trkpt>
      <trkpt lat="46.366825" lon="15.016504">
        <ele>338.328</ele>
        <time>2010-12-13T07:55:47Z</time>
      </trkpt>
      <trkpt lat="46.366795" lon="15.016499">
        <ele>338.0232</ele>
        <time>2010-12-13T07:55:48Z</time>
      </trkpt>
      <trkpt lat="46.366718" lon="15.016619">
        <ele>336.4992</ele>
        <time>2010-12-13T07:55:57Z</time>
      </trkpt>
      <trkpt lat="46.366737" lon="15.017010">
        <ele>335.8896</ele>
        <time>2010-12-13T07:56:15Z</time>
      </trkpt>
      <trkpt lat="46.366722" lon="15.017365">
        <ele>335.5848</ele>
        <time>2010-12-13T07:56:34Z</time>
      </trkpt>
      <trkpt lat="46.366699" lon="15.017430">
        <ele>334.9752</ele>
        <time>2010-12-13T07:56:37Z</time>
      </trkpt>
      <trkpt lat="46.366623" lon="15.017431">
        <ele>334.9752</ele>
        <time>2010-12-13T07:56:42Z</time>
      </trkpt>
      <trkpt lat="46.366589" lon="15.017388">
        <ele>335.5848</ele>
        <time>2010-12-13T07:56:46Z</time>
      </trkpt>
      <trkpt lat="46.366405" lon="15.017194">
        <ele>338.0232</ele>
        <time>2010-12-13T07:57:04Z</time>
      </trkpt>
      <trkpt lat="46.366322" lon="15.016991">
        <ele>338.9376</ele>
        <time>2010-12-13T07:57:17Z</time>
      </trkpt>
      <trkpt lat="46.366188" lon="15.016789">
        <ele>339.852</ele>
        <time>2010-12-13T07:57:33Z</time>
      </trkpt>
      <trkpt lat="46.366024" lon="15.016647">
        <ele>342.9</ele>
        <time>2010-12-13T07:57:48Z</time>
      </trkpt>
      <trkpt lat="46.365887" lon="15.016571">
        <ele>346.5576</ele>
        <time>2010-12-13T07:58:00Z</time>
      </trkpt>
      <trkpt lat="46.365810" lon="15.016473">
        <ele>349.9104</ele>
        <time>2010-12-13T07:58:11Z</time>
      </trkpt>
      <trkpt lat="46.365776" lon="15.016445">
        <ele>351.1296</ele>
        <time>2010-12-13T07:58:15Z</time>
      </trkpt>
      <trkpt lat="46.365707" lon="15.016517">
        <ele>353.8728</ele>
        <time>2010-12-13T07:58:29Z</time>
      </trkpt>
      <trkpt lat="46.365677" lon="15.016556">
        <ele>355.7016</ele>
        <time>2010-12-13T07:58:35Z</time>
      </trkpt>
      <trkpt lat="46.365601" lon="15.016706">
        <ele>359.0544</ele>
        <time>2010-12-13T07:58:50Z</time>
      </trkpt>
      <trkpt lat="46.365585" lon="15.016724">
        <ele>359.0544</ele>
        <time>2010-12-13T07:58:53Z</time>
      </trkpt>
      <trkpt lat="46.365505" lon="15.016806">
        <ele>359.9688</ele>
        <time>2010-12-13T07:59:02Z</time>
      </trkpt>
      <trkpt lat="46.365467" lon="15.016804">
        <ele>359.9688</ele>
        <time>2010-12-13T07:59:05Z</time>
      </trkpt>
      <trkpt lat="46.365376" lon="15.016769">
        <ele>363.0168</ele>
        <time>2010-12-13T07:59:17Z</time>
      </trkpt>
      <trkpt lat="46.365219" lon="15.016803">
        <ele>365.4552</ele>
        <time>2010-12-13T07:59:32Z</time>
      </trkpt>
      <trkpt lat="46.365170" lon="15.016780">
        <ele>366.0648</ele>
        <time>2010-12-13T07:59:38Z</time>
      </trkpt>
      <trkpt lat="46.365135" lon="15.016780">
        <ele>367.284</ele>
        <time>2010-12-13T07:59:40Z</time>
      </trkpt>
      <trkpt lat="46.365116" lon="15.016776">
        <ele>366.6744</ele>
        <time>2010-12-13T07:59:43Z</time>
      </trkpt>
      <trkpt lat="46.365093" lon="15.016774">
        <ele>367.8936</ele>
        <time>2010-12-13T07:59:46Z</time>
      </trkpt>
      <trkpt lat="46.365055" lon="15.016727">
        <ele>369.1128</ele>
        <time>2010-12-13T08:00:00Z</time>
      </trkpt>
      <trkpt lat="46.365032" lon="15.016704">
        <ele>369.1128</ele>
        <time>2010-12-13T08:00:17Z</time>
      </trkpt>
      <trkpt lat="46.364983" lon="15.016622">
        <ele>371.5512</ele>
        <time>2010-12-13T08:00:26Z</time>
      </trkpt>
      <trkpt lat="46.364918" lon="15.016537">
        <ele>374.904</ele>
        <time>2010-12-13T08:00:37Z</time>
      </trkpt>
      <trkpt lat="46.364895" lon="15.016531">
        <ele>374.904</ele>
        <time>2010-12-13T08:00:41Z</time>
      </trkpt>
      <trkpt lat="46.364853" lon="15.016608">
        <ele>376.1232</ele>
        <time>2010-12-13T08:00:48Z</time>
      </trkpt>
      <trkpt lat="46.364799" lon="15.016684">
        <ele>376.7328</ele>
        <time>2010-12-13T08:01:00Z</time>
      </trkpt>
      <trkpt lat="46.364792" lon="15.016715">
        <ele>376.7328</ele>
        <time>2010-12-13T08:01:07Z</time>
      </trkpt>
      <trkpt lat="46.364754" lon="15.016928">
        <ele>377.952</ele>
        <time>2010-12-13T08:01:20Z</time>
      </trkpt>
      <trkpt lat="46.364788" lon="15.017236">
        <ele>380.6952</ele>
        <time>2010-12-13T08:01:35Z</time>
      </trkpt>
      <trkpt lat="46.364796" lon="15.017281">
        <ele>381.3048</ele>
        <time>2010-12-13T08:01:38Z</time>
      </trkpt>
      <trkpt lat="46.364632" lon="15.017237">
        <ele>382.2192</ele>
        <time>2010-12-13T08:01:51Z</time>
      </trkpt>
      <trkpt lat="46.364540" lon="15.017109">
        <ele>383.1336</ele>
        <time>2010-12-13T08:01:58Z</time>
      </trkpt>
      <trkpt lat="46.364441" lon="15.016847">
        <ele>386.4864</ele>
        <time>2010-12-13T08:02:13Z</time>
      </trkpt>
      <trkpt lat="46.364365" lon="15.016651">
        <ele>388.9248</ele>
        <time>2010-12-13T08:02:24Z</time>
      </trkpt>
      <trkpt lat="46.364254" lon="15.016630">
        <ele>390.7536</ele>
        <time>2010-12-13T08:02:33Z</time>
      </trkpt>
      <trkpt lat="46.364170" lon="15.016677">
        <ele>391.0584</ele>
        <time>2010-12-13T08:02:38Z</time>
      </trkpt>
      <trkpt lat="46.364037" lon="15.016895">
        <ele>393.192</ele>
        <time>2010-12-13T08:02:53Z</time>
      </trkpt>
      <trkpt lat="46.363884" lon="15.017065">
        <ele>393.192</ele>
        <time>2010-12-13T08:03:08Z</time>
      </trkpt>
      <trkpt lat="46.363750" lon="15.017257">
        <ele>393.192</ele>
        <time>2010-12-13T08:03:23Z</time>
      </trkpt>
      <trkpt lat="46.363663" lon="15.017339">
        <ele>392.2776</ele>
        <time>2010-12-13T08:03:30Z</time>
      </trkpt>
      <trkpt lat="46.363476" lon="15.017503">
        <ele>389.5344</ele>
        <time>2010-12-13T08:03:43Z</time>
      </trkpt>
      <trkpt lat="46.363300" lon="15.017585">
        <ele>386.4864</ele>
        <time>2010-12-13T08:03:55Z</time>
      </trkpt>
      <trkpt lat="46.363117" lon="15.017700">
        <ele>383.7432</ele>
        <time>2010-12-13T08:04:10Z</time>
      </trkpt>
      <trkpt lat="46.363083" lon="15.017900">
        <ele>380.0856</ele>
        <time>2010-12-13T08:04:22Z</time>
      </trkpt>
      <trkpt lat="46.363110" lon="15.018060">
        <ele>377.952</ele>
        <time>2010-12-13T08:04:32Z</time>
      </trkpt>
      <trkpt lat="46.363136" lon="15.018102">
        <ele>376.7328</ele>
        <time>2010-12-13T08:04:36Z</time>
      </trkpt>
      <trkpt lat="46.363171" lon="15.018106">
        <ele>376.1232</ele>
        <time>2010-12-13T08:04:39Z</time>
      </trkpt>
      <trkpt lat="46.363197" lon="15.018256">
        <ele>373.9896</ele>
        <time>2010-12-13T08:04:45Z</time>
      </trkpt>
      <trkpt lat="46.363190" lon="15.018559">
        <ele>370.6368</ele>
        <time>2010-12-13T08:05:00Z</time>
      </trkpt>
      <trkpt lat="46.363178" lon="15.018667">
        <ele>369.7224</ele>
        <time>2010-12-13T08:05:06Z</time>
      </trkpt>
      <trkpt lat="46.363121" lon="15.018767">
        <ele>366.6744</ele>
        <time>2010-12-13T08:05:14Z</time>
      </trkpt>
      <trkpt lat="46.362999" lon="15.018837">
        <ele>364.5408</ele>
        <time>2010-12-13T08:05:22Z</time>
      </trkpt>
      <trkpt lat="46.362946" lon="15.018838">
        <ele>363.0168</ele>
        <time>2010-12-13T08:05:24Z</time>
      </trkpt>
      <trkpt lat="46.362926" lon="15.018820">
        <ele>362.4072</ele>
        <time>2010-12-13T08:05:27Z</time>
      </trkpt>
      <trkpt lat="46.362843" lon="15.018714">
        <ele>359.664</ele>
        <time>2010-12-13T08:05:35Z</time>
      </trkpt>
      <trkpt lat="46.362778" lon="15.018710">
        <ele>356.616</ele>
        <time>2010-12-13T08:05:43Z</time>
      </trkpt>
      <trkpt lat="46.362728" lon="15.018722">
        <ele>355.7016</ele>
        <time>2010-12-13T08:06:01Z</time>
      </trkpt>
      <trkpt lat="46.362690" lon="15.018718">
        <ele>355.7016</ele>
        <time>2010-12-13T08:06:17Z</time>
      </trkpt>
      <trkpt lat="46.362591" lon="15.018610">
        <ele>351.4344</ele>
        <time>2010-12-13T08:06:28Z</time>
      </trkpt>
      <trkpt lat="46.362442" lon="15.018448">
        <ele>348.6912</ele>
        <time>2010-12-13T08:06:40Z</time>
      </trkpt>
      <trkpt lat="46.362289" lon="15.018428">
        <ele>345.3384</ele>
        <time>2010-12-13T08:06:52Z</time>
      </trkpt>
      <trkpt lat="46.362251" lon="15.018391">
        <ele>344.7288</ele>
        <time>2010-12-13T08:06:55Z</time>
      </trkpt>
      <trkpt lat="46.362106" lon="15.018310">
        <ele>341.6808</ele>
        <time>2010-12-13T08:07:08Z</time>
      </trkpt>
      <trkpt lat="46.361973" lon="15.018314">
        <ele>338.9376</ele>
        <time>2010-12-13T08:07:19Z</time>
      </trkpt>
      <trkpt lat="46.361813" lon="15.018531">
        <ele>337.1088</ele>
        <time>2010-12-13T08:07:34Z</time>
      </trkpt>
      <trkpt lat="46.361786" lon="15.018563">
        <ele>337.4136</ele>
        <time>2010-12-13T08:07:50Z</time>
      </trkpt>
      <trkpt lat="46.361786" lon="15.018561">
        <ele>338.328</ele>
        <time>2010-12-13T08:08:09Z</time>
      </trkpt>
      <trkpt lat="46.361786" lon="15.018561">
        <ele>338.328</ele>
        <time>2010-12-13T08:08:15Z</time>
      </trkpt>
      <trkpt lat="46.361767" lon="15.018579">
        <ele>338.328</ele>
        <time>2010-12-13T08:08:16Z</time>
      </trkpt>
      <trkpt lat="46.361671" lon="15.018718">
        <ele>339.852</ele>
        <time>2010-12-13T08:08:32Z</time>
      </trkpt>
      <trkpt lat="46.361664" lon="15.018745">
        <ele>339.852</ele>
        <time>2010-12-13T08:08:35Z</time>
      </trkpt>
      <trkpt lat="46.361542" lon="15.018924">
        <ele>339.5472</ele>
        <time>2010-12-13T08:08:47Z</time>
      </trkpt>
      <trkpt lat="46.361507" lon="15.019015">
        <ele>338.9376</ele>
        <time>2010-12-13T08:08:52Z</time>
      </trkpt>
      <trkpt lat="46.361355" lon="15.019319">
        <ele>338.0232</ele>
        <time>2010-12-13T08:09:11Z</time>
      </trkpt>
      <trkpt lat="46.361191" lon="15.019607">
        <ele>336.4992</ele>
        <time>2010-12-13T08:09:30Z</time>
      </trkpt>
      <trkpt lat="46.361061" lon="15.019877">
        <ele>335.8896</ele>
        <time>2010-12-13T08:09:48Z</time>
      </trkpt>
      <trkpt lat="46.360939" lon="15.020082">
        <ele>337.1088</ele>
        <time>2010-12-13T08:10:01Z</time>
      </trkpt>
      <trkpt lat="46.360916" lon="15.020132">
        <ele>337.4136</ele>
        <time>2010-12-13T08:10:04Z</time>
      </trkpt>
      <trkpt lat="46.360859" lon="15.020330">
        <ele>338.0232</ele>
        <time>2010-12-13T08:10:15Z</time>
      </trkpt>
      <trkpt lat="46.360748" lon="15.020588">
        <ele>337.1088</ele>
        <time>2010-12-13T08:10:30Z</time>
      </trkpt>
      <trkpt lat="46.360603" lon="15.020756">
        <ele>335.5848</ele>
        <time>2010-12-13T08:10:43Z</time>
      </trkpt>
      <trkpt lat="46.360432" lon="15.020760">
        <ele>334.6704</ele>
        <time>2010-12-13T08:10:57Z</time>
      </trkpt>
      <trkpt lat="46.360306" lon="15.020880">
        <ele>334.0608</ele>
        <time>2010-12-13T08:11:07Z</time>
      </trkpt>
      <trkpt lat="46.360256" lon="15.020952">
        <ele>333.4512</ele>
        <time>2010-12-13T08:11:13Z</time>
      </trkpt>
      <trkpt lat="46.360100" lon="15.021200">
        <ele>333.4512</ele>
        <time>2010-12-13T08:11:29Z</time>
      </trkpt>
      <trkpt lat="46.359959" lon="15.021419">
        <ele>332.232</ele>
        <time>2010-12-13T08:11:45Z</time>
      </trkpt>
      <trkpt lat="46.359753" lon="15.021595">
        <ele>332.232</ele>
        <time>2010-12-13T08:12:01Z</time>
      </trkpt>
      <trkpt lat="46.359734" lon="15.021649">
        <ele>330.708</ele>
        <time>2010-12-13T08:12:14Z</time>
      </trkpt>
      <trkpt lat="46.359756" lon="15.021654">
        <ele>330.0984</ele>
        <time>2010-12-13T08:12:19Z</time>
      </trkpt>
      <trkpt lat="46.359764" lon="15.021728">
        <ele>331.6224</ele>
        <time>2010-12-13T08:12:23Z</time>
      </trkpt>
      <trkpt lat="46.359737" lon="15.021777">
        <ele>332.5368</ele>
        <time>2010-12-13T08:12:27Z</time>
      </trkpt>
      <trkpt lat="46.359699" lon="15.021832">
        <ele>333.4512</ele>
        <time>2010-12-13T08:12:36Z</time>
      </trkpt>
      <trkpt lat="46.359779" lon="15.021894">
        <ele>336.4992</ele>
        <time>2010-12-13T08:12:51Z</time>
      </trkpt>
      <trkpt lat="46.359711" lon="15.022017">
        <ele>338.328</ele>
        <time>2010-12-13T08:12:59Z</time>
      </trkpt>
      <trkpt lat="46.359734" lon="15.022101">
        <ele>341.376</ele>
        <time>2010-12-13T08:13:10Z</time>
      </trkpt>
      <trkpt lat="46.359749" lon="15.022149">
        <ele>341.6808</ele>
        <time>2010-12-13T08:13:13Z</time>
      </trkpt>
      <trkpt lat="46.359753" lon="15.022375">
        <ele>344.7288</ele>
        <time>2010-12-13T08:13:28Z</time>
      </trkpt>
      <trkpt lat="46.359741" lon="15.022487">
        <ele>346.2528</ele>
        <time>2010-12-13T08:13:36Z</time>
      </trkpt>
      <trkpt lat="46.359726" lon="15.022693">
        <ele>348.996</ele>
        <time>2010-12-13T08:13:51Z</time>
      </trkpt>
      <trkpt lat="46.359707" lon="15.022696">
        <ele>349.9104</ele>
        <time>2010-12-13T08:13:53Z</time>
      </trkpt>
      <trkpt lat="46.359608" lon="15.022616">
        <ele>353.2632</ele>
        <time>2010-12-13T08:14:06Z</time>
      </trkpt>
      <trkpt lat="46.359600" lon="15.022613">
        <ele>353.2632</ele>
        <time>2010-12-13T08:14:07Z</time>
      </trkpt>
      <trkpt lat="46.359547" lon="15.022541">
        <ele>354.7872</ele>
        <time>2010-12-13T08:14:14Z</time>
      </trkpt>
      <trkpt lat="46.359497" lon="15.022511">
        <ele>356.3112</ele>
        <time>2010-12-13T08:14:19Z</time>
      </trkpt>
      <trkpt lat="46.359371" lon="15.022522">
        <ele>358.14</ele>
        <time>2010-12-13T08:14:30Z</time>
      </trkpt>
      <trkpt lat="46.359352" lon="15.022520">
        <ele>358.7496</ele>
        <time>2010-12-13T08:14:31Z</time>
      </trkpt>
      <trkpt lat="46.359241" lon="15.022497">
        <ele>361.4928</ele>
        <time>2010-12-13T08:14:45Z</time>
      </trkpt>
      <trkpt lat="46.359200" lon="15.022459">
        <ele>362.1024</ele>
        <time>2010-12-13T08:14:50Z</time>
      </trkpt>
      <trkpt lat="46.359119" lon="15.022454">
        <ele>363.9312</ele>
        <time>2010-12-13T08:14:57Z</time>
      </trkpt>
      <trkpt lat="46.359020" lon="15.022510">
        <ele>366.0648</ele>
        <time>2010-12-13T08:15:09Z</time>
      </trkpt>
      <trkpt lat="46.358971" lon="15.022528">
        <ele>367.8936</ele>
        <time>2010-12-13T08:15:14Z</time>
      </trkpt>
      <trkpt lat="46.358921" lon="15.022553">
        <ele>369.1128</ele>
        <time>2010-12-13T08:15:21Z</time>
      </trkpt>
      <trkpt lat="46.358906" lon="15.022589">
        <ele>371.2464</ele>
        <time>2010-12-13T08:15:27Z</time>
      </trkpt>
      <trkpt lat="46.358841" lon="15.022655">
        <ele>373.9896</ele>
        <time>2010-12-13T08:15:39Z</time>
      </trkpt>
      <trkpt lat="46.358799" lon="15.022714">
        <ele>376.7328</ele>
        <time>2010-12-13T08:15:48Z</time>
      </trkpt>
      <trkpt lat="46.358704" lon="15.022841">
        <ele>377.952</ele>
        <time>2010-12-13T08:16:03Z</time>
      </trkpt>
      <trkpt lat="46.358700" lon="15.022875">
        <ele>377.952</ele>
        <time>2010-12-13T08:16:04Z</time>
      </trkpt>
      <trkpt lat="46.358696" lon="15.022921">
        <ele>378.2568</ele>
        <time>2010-12-13T08:16:07Z</time>
      </trkpt>
      <trkpt lat="46.358643" lon="15.022988">
        <ele>378.2568</ele>
        <time>2010-12-13T08:16:15Z</time>
      </trkpt>
      <trkpt lat="46.358498" lon="15.023054">
        <ele>382.2192</ele>
        <time>2010-12-13T08:16:30Z</time>
      </trkpt>
      <trkpt lat="46.358471" lon="15.023069">
        <ele>382.524</ele>
        <time>2010-12-13T08:16:33Z</time>
      </trkpt>
      <trkpt lat="46.358425" lon="15.023140">
        <ele>384.6576</ele>
        <time>2010-12-13T08:16:41Z</time>
      </trkpt>
      <trkpt lat="46.358410" lon="15.023149">
        <ele>384.9624</ele>
        <time>2010-12-13T08:16:42Z</time>
      </trkpt>
      <trkpt lat="46.358292" lon="15.023189">
        <ele>388.3152</ele>
        <time>2010-12-13T08:16:57Z</time>
      </trkpt>
      <trkpt lat="46.358189" lon="15.023272">
        <ele>392.2776</ele>
        <time>2010-12-13T08:17:11Z</time>
      </trkpt>
      <trkpt lat="46.358177" lon="15.023286">
        <ele>391.668</ele>
        <time>2010-12-13T08:17:13Z</time>
      </trkpt>
      <trkpt lat="46.358162" lon="15.023296">
        <ele>392.8872</ele>
        <time>2010-12-13T08:17:15Z</time>
      </trkpt>
      <trkpt lat="46.358074" lon="15.023402">
        <ele>396.5448</ele>
        <time>2010-12-13T08:17:28Z</time>
      </trkpt>
      <trkpt lat="46.357967" lon="15.023471">
        <ele>399.288</ele>
        <time>2010-12-13T08:17:42Z</time>
      </trkpt>
      <trkpt lat="46.357948" lon="15.023499">
        <ele>399.8976</ele>
        <time>2010-12-13T08:17:43Z</time>
      </trkpt>
      <trkpt lat="46.357922" lon="15.023525">
        <ele>401.1168</ele>
        <time>2010-12-13T08:17:47Z</time>
      </trkpt>
      <trkpt lat="46.357822" lon="15.023564">
        <ele>403.86</ele>
        <time>2010-12-13T08:17:59Z</time>
      </trkpt>
      <trkpt lat="46.357723" lon="15.023627">
        <ele>406.6032</ele>
        <time>2010-12-13T08:18:14Z</time>
      </trkpt>
      <trkpt lat="46.357666" lon="15.023699">
        <ele>409.956</ele>
        <time>2010-12-13T08:18:26Z</time>
      </trkpt>
      <trkpt lat="46.357655" lon="15.023718">
        <ele>409.956</ele>
        <time>2010-12-13T08:18:27Z</time>
      </trkpt>
      <trkpt lat="46.357567" lon="15.023890">
        <ele>412.3944</ele>
        <time>2010-12-13T08:18:42Z</time>
      </trkpt>
      <trkpt lat="46.357559" lon="15.023912">
        <ele>412.3944</ele>
        <time>2010-12-13T08:18:45Z</time>
      </trkpt>
      <trkpt lat="46.357513" lon="15.024055">
        <ele>413.3088</ele>
        <time>2010-12-13T08:18:56Z</time>
      </trkpt>
      <trkpt lat="46.357449" lon="15.024228">
        <ele>413.9184</ele>
        <time>2010-12-13T08:19:07Z</time>
      </trkpt>
      <trkpt lat="46.357407" lon="15.024267">
        <ele>413.9184</ele>
        <time>2010-12-13T08:19:11Z</time>
      </trkpt>
      <trkpt lat="46.357292" lon="15.024414">
        <ele>416.6616</ele>
        <time>2010-12-13T08:19:27Z</time>
      </trkpt>
      <trkpt lat="46.357136" lon="15.024548">
        <ele>418.1856</ele>
        <time>2010-12-13T08:19:42Z</time>
      </trkpt>
      <trkpt lat="46.357124" lon="15.024575">
        <ele>418.4904</ele>
        <time>2010-12-13T08:19:44Z</time>
      </trkpt>
      <trkpt lat="46.357086" lon="15.024635">
        <ele>420.3192</ele>
        <time>2010-12-13T08:19:50Z</time>
      </trkpt>
      <trkpt lat="46.356960" lon="15.024768">
        <ele>422.148</ele>
        <time>2010-12-13T08:20:05Z</time>
      </trkpt>
      <trkpt lat="46.356922" lon="15.024839">
        <ele>423.672</ele>
        <time>2010-12-13T08:20:10Z</time>
      </trkpt>
      <trkpt lat="46.356766" lon="15.024933">
        <ele>423.672</ele>
        <time>2010-12-13T08:20:25Z</time>
      </trkpt>
      <trkpt lat="46.356743" lon="15.024948">
        <ele>423.672</ele>
        <time>2010-12-13T08:20:26Z</time>
      </trkpt>
      <trkpt lat="46.356613" lon="15.024981">
        <ele>426.1104</ele>
        <time>2010-12-13T08:20:40Z</time>
      </trkpt>
      <trkpt lat="46.356461" lon="15.025039">
        <ele>428.8536</ele>
        <time>2010-12-13T08:20:55Z</time>
      </trkpt>
      <trkpt lat="46.356384" lon="15.025077">
        <ele>432.2064</ele>
        <time>2010-12-13T08:21:04Z</time>
      </trkpt>
      <trkpt lat="46.356339" lon="15.025117">
        <ele>433.7304</ele>
        <time>2010-12-13T08:21:11Z</time>
      </trkpt>
      <trkpt lat="46.356312" lon="15.025144">
        <ele>434.9496</ele>
        <time>2010-12-13T08:21:14Z</time>
      </trkpt>
      <trkpt lat="46.356243" lon="15.025262">
        <ele>437.9976</ele>
        <time>2010-12-13T08:21:26Z</time>
      </trkpt>
      <trkpt lat="46.356190" lon="15.025388">
        <ele>440.7408</ele>
        <time>2010-12-13T08:21:36Z</time>
      </trkpt>
      <trkpt lat="46.356117" lon="15.025501">
        <ele>444.0936</ele>
        <time>2010-12-13T08:21:50Z</time>
      </trkpt>
      <trkpt lat="46.356110" lon="15.025554">
        <ele>445.6176</ele>
        <time>2010-12-13T08:22:03Z</time>
      </trkpt>
      <trkpt lat="46.356110" lon="15.025554">
        <ele>445.6176</ele>
        <time>2010-12-13T08:22:25Z</time>
      </trkpt>
      <trkpt lat="46.356102" lon="15.025559">
        <ele>445.6176</ele>
        <time>2010-12-13T08:22:59Z</time>
      </trkpt>
      <trkpt lat="46.356075" lon="15.025599">
        <ele>447.7512</ele>
        <time>2010-12-13T08:23:04Z</time>
      </trkpt>
      <trkpt lat="46.356052" lon="15.025645">
        <ele>448.3608</ele>
        <time>2010-12-13T08:23:08Z</time>
      </trkpt>
      <trkpt lat="46.355980" lon="15.025782">
        <ele>451.4088</ele>
        <time>2010-12-13T08:23:22Z</time>
      </trkpt>
      <trkpt lat="46.355934" lon="15.025938">
        <ele>454.7616</ele>
        <time>2010-12-13T08:23:34Z</time>
      </trkpt>
      <trkpt lat="46.355797" lon="15.026045">
        <ele>454.7616</ele>
        <time>2010-12-13T08:23:49Z</time>
      </trkpt>
      <trkpt lat="46.355667" lon="15.026109">
        <ele>457.2</ele>
        <time>2010-12-13T08:24:01Z</time>
      </trkpt>
      <trkpt lat="46.355537" lon="15.026122">
        <ele>459.0288</ele>
        <time>2010-12-13T08:24:14Z</time>
      </trkpt>
      <trkpt lat="46.355515" lon="15.026127">
        <ele>459.9432</ele>
        <time>2010-12-13T08:24:17Z</time>
      </trkpt>
      <trkpt lat="46.355438" lon="15.026178">
        <ele>460.8576</ele>
        <time>2010-12-13T08:24:25Z</time>
      </trkpt>
      <trkpt lat="46.355309" lon="15.026190">
        <ele>462.3816</ele>
        <time>2010-12-13T08:24:37Z</time>
      </trkpt>
      <trkpt lat="46.355179" lon="15.026273">
        <ele>464.5152</ele>
        <time>2010-12-13T08:24:52Z</time>
      </trkpt>
      <trkpt lat="46.355171" lon="15.026278">
        <ele>464.5152</ele>
        <time>2010-12-13T08:24:52Z</time>
      </trkpt>
      <trkpt lat="46.355034" lon="15.026287">
        <ele>467.2584</ele>
        <time>2010-12-13T08:25:06Z</time>
      </trkpt>
      <trkpt lat="46.354847" lon="15.026414">
        <ele>469.6968</ele>
        <time>2010-12-13T08:25:19Z</time>
      </trkpt>
      <trkpt lat="46.354694" lon="15.026450">
        <ele>472.7448</ele>
        <time>2010-12-13T08:25:34Z</time>
      </trkpt>
      <trkpt lat="46.354568" lon="15.026459">
        <ele>475.488</ele>
        <time>2010-12-13T08:25:46Z</time>
      </trkpt>
      <trkpt lat="46.354561" lon="15.026461">
        <ele>475.488</ele>
        <time>2010-12-13T08:25:46Z</time>
      </trkpt>
      <trkpt lat="46.354481" lon="15.026486">
        <ele>478.2312</ele>
        <time>2010-12-13T08:25:57Z</time>
      </trkpt>
      <trkpt lat="46.354374" lon="15.026587">
        <ele>480.06</ele>
        <time>2010-12-13T08:26:11Z</time>
      </trkpt>
      <trkpt lat="46.354290" lon="15.026595">
        <ele>481.2792</ele>
        <time>2010-12-13T08:26:19Z</time>
      </trkpt>
      <trkpt lat="46.354221" lon="15.026592">
        <ele>481.2792</ele>
        <time>2010-12-13T08:26:24Z</time>
      </trkpt>
      <trkpt lat="46.354195" lon="15.026607">
        <ele>480.6696</ele>
        <time>2010-12-13T08:26:36Z</time>
      </trkpt>
      <trkpt lat="46.354195" lon="15.026607">
        <ele>480.06</ele>
        <time>2010-12-13T08:27:10Z</time>
      </trkpt>
      <trkpt lat="46.354195" lon="15.026605">
        <ele>480.6696</ele>
        <time>2010-12-13T08:27:48Z</time>
      </trkpt>
      <trkpt lat="46.354202" lon="15.026608">
        <ele>480.6696</ele>
        <time>2010-12-13T08:27:53Z</time>
      </trkpt>
      <trkpt lat="46.354385" lon="15.026776">
        <ele>480.06</ele>
        <time>2010-12-13T08:28:11Z</time>
      </trkpt>
      <trkpt lat="46.354580" lon="15.026905">
        <ele>480.6696</ele>
        <time>2010-12-13T08:28:26Z</time>
      </trkpt>
      <trkpt lat="46.354633" lon="15.026922">
        <ele>480.6696</ele>
        <time>2010-12-13T08:28:30Z</time>
      </trkpt>
      <trkpt lat="46.354839" lon="15.027118">
        <ele>483.7176</ele>
        <time>2010-12-13T08:28:47Z</time>
      </trkpt>
      <trkpt lat="46.354946" lon="15.027205">
        <ele>484.0224</ele>
        <time>2010-12-13T08:28:57Z</time>
      </trkpt>
      <trkpt lat="46.354984" lon="15.027266">
        <ele>484.0224</ele>
        <time>2010-12-13T08:29:01Z</time>
      </trkpt>
      <trkpt lat="46.355179" lon="15.027415">
        <ele>484.632</ele>
        <time>2010-12-13T08:29:15Z</time>
      </trkpt>
      <trkpt lat="46.355377" lon="15.027520">
        <ele>485.5464</ele>
        <time>2010-12-13T08:29:32Z</time>
      </trkpt>
      <trkpt lat="46.355553" lon="15.027729">
        <ele>484.632</ele>
        <time>2010-12-13T08:29:48Z</time>
      </trkpt>
      <trkpt lat="46.355480" lon="15.028019">
        <ele>484.632</ele>
        <time>2010-12-13T08:30:03Z</time>
      </trkpt>
      <trkpt lat="46.355324" lon="15.028281">
        <ele>484.9368</ele>
        <time>2010-12-13T08:30:19Z</time>
      </trkpt>
      <trkpt lat="46.355145" lon="15.028489">
        <ele>485.5464</ele>
        <time>2010-12-13T08:30:35Z</time>
      </trkpt>
      <trkpt lat="46.355167" lon="15.028771">
        <ele>485.8512</ele>
        <time>2010-12-13T08:30:50Z</time>
      </trkpt>
      <trkpt lat="46.355244" lon="15.029088">
        <ele>488.2896</ele>
        <time>2010-12-13T08:31:06Z</time>
      </trkpt>
      <trkpt lat="46.355301" lon="15.029484">
        <ele>490.728</ele>
        <time>2010-12-13T08:31:25Z</time>
      </trkpt>
      <trkpt lat="46.355289" lon="15.029710">
        <ele>492.8616</ele>
        <time>2010-12-13T08:31:37Z</time>
      </trkpt>
      <trkpt lat="46.355244" lon="15.030020">
        <ele>495.6048</ele>
        <time>2010-12-13T08:31:52Z</time>
      </trkpt>
      <trkpt lat="46.355228" lon="15.030115">
        <ele>495.9096</ele>
        <time>2010-12-13T08:31:57Z</time>
      </trkpt>
      <trkpt lat="46.355179" lon="15.030474">
        <ele>497.7384</ele>
        <time>2010-12-13T08:32:15Z</time>
      </trkpt>
      <trkpt lat="46.355122" lon="15.030742">
        <ele>498.0432</ele>
        <time>2010-12-13T08:32:30Z</time>
      </trkpt>
      <trkpt lat="46.355049" lon="15.031012">
        <ele>499.872</ele>
        <time>2010-12-13T08:32:45Z</time>
      </trkpt>
      <trkpt lat="46.354988" lon="15.031235">
        <ele>499.2624</ele>
        <time>2010-12-13T08:32:56Z</time>
      </trkpt>
      <trkpt lat="46.354935" lon="15.031464">
        <ele>497.1288</ele>
        <time>2010-12-13T08:33:08Z</time>
      </trkpt>
      <trkpt lat="46.354874" lon="15.031715">
        <ele>494.6904</ele>
        <time>2010-12-13T08:33:20Z</time>
      </trkpt>
      <trkpt lat="46.354855" lon="15.031764">
        <ele>495.3</ele>
        <time>2010-12-13T08:33:23Z</time>
      </trkpt>
      <trkpt lat="46.354759" lon="15.031994">
        <ele>493.4712</ele>
        <time>2010-12-13T08:33:36Z</time>
      </trkpt>
      <trkpt lat="46.354748" lon="15.032015">
        <ele>494.6904</ele>
        <time>2010-12-13T08:33:40Z</time>
      </trkpt>
      <trkpt lat="46.354717" lon="15.032071">
        <ele>494.6904</ele>
        <time>2010-12-13T08:33:44Z</time>
      </trkpt>
      <trkpt lat="46.354607" lon="15.032314">
        <ele>496.5192</ele>
        <time>2010-12-13T08:33:59Z</time>
      </trkpt>
      <trkpt lat="46.354477" lon="15.032584">
        <ele>498.348</ele>
        <time>2010-12-13T08:34:15Z</time>
      </trkpt>
      <trkpt lat="46.354359" lon="15.032879">
        <ele>497.7384</ele>
        <time>2010-12-13T08:34:31Z</time>
      </trkpt>
      <trkpt lat="46.354244" lon="15.033140">
        <ele>496.5192</ele>
        <time>2010-12-13T08:34:46Z</time>
      </trkpt>
      <trkpt lat="46.354076" lon="15.033280">
        <ele>495.9096</ele>
        <time>2010-12-13T08:35:01Z</time>
      </trkpt>
      <trkpt lat="46.353966" lon="15.033457">
        <ele>493.1664</ele>
        <time>2010-12-13T08:35:12Z</time>
      </trkpt>
      <trkpt lat="46.353874" lon="15.033712">
        <ele>490.4232</ele>
        <time>2010-12-13T08:35:24Z</time>
      </trkpt>
      <trkpt lat="46.353798" lon="15.033927">
        <ele>487.3752</ele>
        <time>2010-12-13T08:35:36Z</time>
      </trkpt>
      <trkpt lat="46.353714" lon="15.034234">
        <ele>484.632</ele>
        <time>2010-12-13T08:35:51Z</time>
      </trkpt>
      <trkpt lat="46.353592" lon="15.034444">
        <ele>481.584</ele>
        <time>2010-12-13T08:36:05Z</time>
      </trkpt>
      <trkpt lat="46.353447" lon="15.034668">
        <ele>479.7552</ele>
        <time>2010-12-13T08:36:19Z</time>
      </trkpt>
      <trkpt lat="46.353313" lon="15.034878">
        <ele>478.2312</ele>
        <time>2010-12-13T08:36:34Z</time>
      </trkpt>
      <trkpt lat="46.353153" lon="15.035044">
        <ele>476.7072</ele>
        <time>2010-12-13T08:36:48Z</time>
      </trkpt>
      <trkpt lat="46.352955" lon="15.035177">
        <ele>476.7072</ele>
        <time>2010-12-13T08:37:04Z</time>
      </trkpt>
      <trkpt lat="46.352802" lon="15.035124">
        <ele>477.3168</ele>
        <time>2010-12-13T08:37:16Z</time>
      </trkpt>
      <trkpt lat="46.352692" lon="15.034989">
        <ele>478.2312</ele>
        <time>2010-12-13T08:37:30Z</time>
      </trkpt>
      <trkpt lat="46.352657" lon="15.034941">
        <ele>478.8408</ele>
        <time>2010-12-13T08:37:34Z</time>
      </trkpt>
      <trkpt lat="46.352558" lon="15.034864">
        <ele>480.6696</ele>
        <time>2010-12-13T08:37:43Z</time>
      </trkpt>
      <trkpt lat="46.352539" lon="15.034862">
        <ele>481.584</ele>
        <time>2010-12-13T08:37:46Z</time>
      </trkpt>
      <trkpt lat="46.352409" lon="15.034843">
        <ele>484.632</ele>
        <time>2010-12-13T08:37:58Z</time>
      </trkpt>
      <trkpt lat="46.352352" lon="15.034831">
        <ele>485.8512</ele>
        <time>2010-12-13T08:38:03Z</time>
      </trkpt>
      <trkpt lat="46.352207" lon="15.034848">
        <ele>488.2896</ele>
        <time>2010-12-13T08:38:18Z</time>
      </trkpt>
      <trkpt lat="46.352203" lon="15.034840">
        <ele>487.9848</ele>
        <time>2010-12-13T08:38:20Z</time>
      </trkpt>
      <trkpt lat="46.352089" lon="15.034837">
        <ele>490.728</ele>
        <time>2010-12-13T08:38:29Z</time>
      </trkpt>
      <trkpt lat="46.351974" lon="15.034833">
        <ele>491.3376</ele>
        <time>2010-12-13T08:38:41Z</time>
      </trkpt>
      <trkpt lat="46.351963" lon="15.034827">
        <ele>492.252</ele>
        <time>2010-12-13T08:38:42Z</time>
      </trkpt>
      <trkpt lat="46.351879" lon="15.034765">
        <ele>493.1664</ele>
        <time>2010-12-13T08:38:52Z</time>
      </trkpt>
      <trkpt lat="46.351753" lon="15.034742">
        <ele>495.3</ele>
        <time>2010-12-13T08:39:07Z</time>
      </trkpt>
      <trkpt lat="46.351734" lon="15.034744">
        <ele>495.3</ele>
        <time>2010-12-13T08:39:08Z</time>
      </trkpt>
      <trkpt lat="46.351662" lon="15.034786">
        <ele>496.5192</ele>
        <time>2010-12-13T08:39:15Z</time>
      </trkpt>
      <trkpt lat="46.351612" lon="15.034840">
        <ele>496.5192</ele>
        <time>2010-12-13T08:39:19Z</time>
      </trkpt>
      <trkpt lat="46.351582" lon="15.034868">
        <ele>497.1288</ele>
        <time>2010-12-13T08:39:23Z</time>
      </trkpt>
      <trkpt lat="46.351410" lon="15.034926">
        <ele>499.872</ele>
        <time>2010-12-13T08:39:36Z</time>
      </trkpt>
      <trkpt lat="46.351204" lon="15.034971">
        <ele>501.396</ele>
        <time>2010-12-13T08:39:51Z</time>
      </trkpt>
      <trkpt lat="46.351151" lon="15.034992">
        <ele>502.92</ele>
        <time>2010-12-13T08:39:57Z</time>
      </trkpt>
      <trkpt lat="46.351063" lon="15.035072">
        <ele>504.1392</ele>
        <time>2010-12-13T08:40:06Z</time>
      </trkpt>
      <trkpt lat="46.350918" lon="15.035177">
        <ele>507.1872</ele>
        <time>2010-12-13T08:40:20Z</time>
      </trkpt>
      <trkpt lat="46.350861" lon="15.035189">
        <ele>509.016</ele>
        <time>2010-12-13T08:40:28Z</time>
      </trkpt>
      <trkpt lat="46.350815" lon="15.035224">
        <ele>510.54</ele>
        <time>2010-12-13T08:40:35Z</time>
      </trkpt>
      <trkpt lat="46.350800" lon="15.035247">
        <ele>511.1496</ele>
        <time>2010-12-13T08:40:37Z</time>
      </trkpt>
      <trkpt lat="46.350761" lon="15.035269">
        <ele>511.4544</ele>
        <time>2010-12-13T08:40:39Z</time>
      </trkpt>
      <trkpt lat="46.350624" lon="15.035398">
        <ele>515.4168</ele>
        <time>2010-12-13T08:40:52Z</time>
      </trkpt>
      <trkpt lat="46.350529" lon="15.035479">
        <ele>517.2456</ele>
        <time>2010-12-13T08:41:07Z</time>
      </trkpt>
      <trkpt lat="46.350422" lon="15.035508">
        <ele>520.5984</ele>
        <time>2010-12-13T08:41:20Z</time>
      </trkpt>
      <trkpt lat="46.350368" lon="15.035535">
        <ele>521.5128</ele>
        <time>2010-12-13T08:41:27Z</time>
      </trkpt>
      <trkpt lat="46.350201" lon="15.035559">
        <ele>524.8656</ele>
        <time>2010-12-13T08:41:42Z</time>
      </trkpt>
      <trkpt lat="46.350094" lon="15.035590">
        <ele>527.304</ele>
        <time>2010-12-13T08:41:54Z</time>
      </trkpt>
      <trkpt lat="46.349991" lon="15.035732">
        <ele>528.2184</ele>
        <time>2010-12-13T08:42:08Z</time>
      </trkpt>
      <trkpt lat="46.349888" lon="15.035935">
        <ele>528.828</ele>
        <time>2010-12-13T08:42:23Z</time>
      </trkpt>
      <trkpt lat="46.349808" lon="15.036047">
        <ele>529.1328</ele>
        <time>2010-12-13T08:42:32Z</time>
      </trkpt>
      <trkpt lat="46.349735" lon="15.036346">
        <ele>530.352</ele>
        <time>2010-12-13T08:42:45Z</time>
      </trkpt>
      <trkpt lat="46.349701" lon="15.036407">
        <ele>530.352</ele>
        <time>2010-12-13T08:42:50Z</time>
      </trkpt>
      <trkpt lat="46.349560" lon="15.036515">
        <ele>532.4856</ele>
        <time>2010-12-13T08:43:04Z</time>
      </trkpt>
      <trkpt lat="46.349415" lon="15.036556">
        <ele>535.5336</ele>
        <time>2010-12-13T08:43:17Z</time>
      </trkpt>
      <trkpt lat="46.349281" lon="15.036588">
        <ele>537.0576</ele>
        <time>2010-12-13T08:43:29Z</time>
      </trkpt>
      <trkpt lat="46.349209" lon="15.036756">
        <ele>538.2768</ele>
        <time>2010-12-13T08:43:42Z</time>
      </trkpt>
      <trkpt lat="46.349262" lon="15.036869">
        <ele>538.2768</ele>
        <time>2010-12-13T08:43:49Z</time>
      </trkpt>
      <trkpt lat="46.349300" lon="15.036991">
        <ele>539.8008</ele>
        <time>2010-12-13T08:43:57Z</time>
      </trkpt>
      <trkpt lat="46.349319" lon="15.037093">
        <ele>540.4104</ele>
        <time>2010-12-13T08:44:02Z</time>
      </trkpt>
      <trkpt lat="46.349304" lon="15.037178">
        <ele>540.7152</ele>
        <time>2010-12-13T08:44:08Z</time>
      </trkpt>
      <trkpt lat="46.349144" lon="15.037189">
        <ele>543.4584</ele>
        <time>2010-12-13T08:44:21Z</time>
      </trkpt>
      <trkpt lat="46.349079" lon="15.037193">
        <ele>545.592</ele>
        <time>2010-12-13T08:44:29Z</time>
      </trkpt>
      <trkpt lat="46.349033" lon="15.037208">
        <ele>547.116</ele>
        <time>2010-12-13T08:44:33Z</time>
      </trkpt>
      <trkpt lat="46.348930" lon="15.037268">
        <ele>549.2496</ele>
        <time>2010-12-13T08:44:43Z</time>
      </trkpt>
      <trkpt lat="46.348919" lon="15.037298">
        <ele>549.2496</ele>
        <time>2010-12-13T08:44:46Z</time>
      </trkpt>
      <trkpt lat="46.348942" lon="15.037331">
        <ele>550.4688</ele>
        <time>2010-12-13T08:44:52Z</time>
      </trkpt>
      <trkpt lat="46.348957" lon="15.037342">
        <ele>549.8592</ele>
        <time>2010-12-13T08:44:55Z</time>
      </trkpt>
      <trkpt lat="46.349064" lon="15.037431">
        <ele>550.4688</ele>
        <time>2010-12-13T08:45:07Z</time>
      </trkpt>
      <trkpt lat="46.349171" lon="15.037468">
        <ele>550.7736</ele>
        <time>2010-12-13T08:45:17Z</time>
      </trkpt>
      <trkpt lat="46.349251" lon="15.037536">
        <ele>550.7736</ele>
        <time>2010-12-13T08:45:25Z</time>
      </trkpt>
      <trkpt lat="46.349293" lon="15.037548">
        <ele>550.7736</ele>
        <time>2010-12-13T08:45:29Z</time>
      </trkpt>
      <trkpt lat="46.349457" lon="15.037642">
        <ele>552.9072</ele>
        <time>2010-12-13T08:45:42Z</time>
      </trkpt>
      <trkpt lat="46.349525" lon="15.037677">
        <ele>553.8216</ele>
        <time>2010-12-13T08:45:48Z</time>
      </trkpt>
      <trkpt lat="46.349667" lon="15.037777">
        <ele>556.26</ele>
        <time>2010-12-13T08:46:00Z</time>
      </trkpt>
      <trkpt lat="46.349731" lon="15.037776">
        <ele>557.1744</ele>
        <time>2010-12-13T08:46:04Z</time>
      </trkpt>
      <trkpt lat="46.349945" lon="15.038018">
        <ele>560.5272</ele>
        <time>2010-12-13T08:46:19Z</time>
      </trkpt>
      <trkpt lat="46.350021" lon="15.038089">
        <ele>562.0512</ele>
        <time>2010-12-13T08:46:27Z</time>
      </trkpt>
      <trkpt lat="46.350128" lon="15.038323">
        <ele>564.4896</ele>
        <time>2010-12-13T08:46:43Z</time>
      </trkpt>
      <trkpt lat="46.350163" lon="15.038543">
        <ele>567.2328</ele>
        <time>2010-12-13T08:46:57Z</time>
      </trkpt>
      <trkpt lat="46.350155" lon="15.038553">
        <ele>566.928</ele>
        <time>2010-12-13T08:46:58Z</time>
      </trkpt>
      <trkpt lat="46.350124" lon="15.038662">
        <ele>568.1472</ele>
        <time>2010-12-13T08:47:02Z</time>
      </trkpt>
      <trkpt lat="46.350090" lon="15.038868">
        <ele>572.1096</ele>
        <time>2010-12-13T08:47:14Z</time>
      </trkpt>
      <trkpt lat="46.350021" lon="15.039020">
        <ele>574.8528</ele>
        <time>2010-12-13T08:47:25Z</time>
      </trkpt>
      <trkpt lat="46.349953" lon="15.039157">
        <ele>578.8152</ele>
        <time>2010-12-13T08:47:37Z</time>
      </trkpt>
      <trkpt lat="46.349876" lon="15.039288">
        <ele>581.5584</ele>
        <time>2010-12-13T08:47:51Z</time>
      </trkpt>
      <trkpt lat="46.349804" lon="15.039372">
        <ele>584.6064</ele>
        <time>2010-12-13T08:48:01Z</time>
      </trkpt>
      <trkpt lat="46.349724" lon="15.039479">
        <ele>587.3496</ele>
        <time>2010-12-13T08:48:15Z</time>
      </trkpt>
      <trkpt lat="46.349644" lon="15.039567">
        <ele>589.788</ele>
        <time>2010-12-13T08:48:27Z</time>
      </trkpt>
      <trkpt lat="46.349590" lon="15.039583">
        <ele>590.7024</ele>
        <time>2010-12-13T08:48:34Z</time>
      </trkpt>
      <trkpt lat="46.349464" lon="15.039613">
        <ele>594.0552</ele>
        <time>2010-12-13T08:48:46Z</time>
      </trkpt>
      <trkpt lat="46.349377" lon="15.039639">
        <ele>594.9696</ele>
        <time>2010-12-13T08:48:54Z</time>
      </trkpt>
      <trkpt lat="46.349247" lon="15.039638">
        <ele>598.3224</ele>
        <time>2010-12-13T08:49:08Z</time>
      </trkpt>
      <trkpt lat="46.349144" lon="15.039649">
        <ele>600.7608</ele>
        <time>2010-12-13T08:49:21Z</time>
      </trkpt>
      <trkpt lat="46.349129" lon="15.039644">
        <ele>601.3704</ele>
        <time>2010-12-13T08:49:24Z</time>
      </trkpt>
      <trkpt lat="46.348980" lon="15.039666">
        <ele>603.1992</ele>
        <time>2010-12-13T08:49:37Z</time>
      </trkpt>
      <trkpt lat="46.348953" lon="15.039661">
        <ele>603.8088</ele>
        <time>2010-12-13T08:49:40Z</time>
      </trkpt>
      <trkpt lat="46.348915" lon="15.039664">
        <ele>604.7232</ele>
        <time>2010-12-13T08:49:44Z</time>
      </trkpt>
      <trkpt lat="46.348827" lon="15.039680">
        <ele>606.2472</ele>
        <time>2010-12-13T08:49:52Z</time>
      </trkpt>
      <trkpt lat="46.348648" lon="15.039733">
        <ele>608.6856</ele>
        <time>2010-12-13T08:50:07Z</time>
      </trkpt>
      <trkpt lat="46.348618" lon="15.039732">
        <ele>608.6856</ele>
        <time>2010-12-13T08:50:10Z</time>
      </trkpt>
      <trkpt lat="46.348553" lon="15.039758">
        <ele>609.6</ele>
        <time>2010-12-13T08:50:15Z</time>
      </trkpt>
      <trkpt lat="46.348457" lon="15.039873">
        <ele>612.3432</ele>
        <time>2010-12-13T08:50:29Z</time>
      </trkpt>
      <trkpt lat="46.348366" lon="15.039950">
        <ele>614.4768</ele>
        <time>2010-12-13T08:50:38Z</time>
      </trkpt>
      <trkpt lat="46.348320" lon="15.039993">
        <ele>614.7816</ele>
        <time>2010-12-13T08:50:42Z</time>
      </trkpt>
      <trkpt lat="46.348236" lon="15.040055">
        <ele>617.22</ele>
        <time>2010-12-13T08:50:53Z</time>
      </trkpt>
      <trkpt lat="46.348042" lon="15.040135">
        <ele>619.6584</ele>
        <time>2010-12-13T08:51:09Z</time>
      </trkpt>
      <trkpt lat="46.348015" lon="15.040159">
        <ele>619.9632</ele>
        <time>2010-12-13T08:51:12Z</time>
      </trkpt>
      <trkpt lat="46.347912" lon="15.040208">
        <ele>622.0968</ele>
        <time>2010-12-13T08:51:21Z</time>
      </trkpt>
      <trkpt lat="46.347786" lon="15.040304">
        <ele>624.5352</ele>
        <time>2010-12-13T08:51:35Z</time>
      </trkpt>
      <trkpt lat="46.347649" lon="15.040416">
        <ele>627.2784</ele>
        <time>2010-12-13T08:51:48Z</time>
      </trkpt>
      <trkpt lat="46.347622" lon="15.040439">
        <ele>627.2784</ele>
        <time>2010-12-13T08:51:52Z</time>
      </trkpt>
      <trkpt lat="46.347549" lon="15.040484">
        <ele>628.1928</ele>
        <time>2010-12-13T08:51:59Z</time>
      </trkpt>
      <trkpt lat="46.347366" lon="15.040545">
        <ele>627.888</ele>
        <time>2010-12-13T08:52:14Z</time>
      </trkpt>
      <trkpt lat="46.347290" lon="15.040549">
        <ele>627.888</ele>
        <time>2010-12-13T08:52:19Z</time>
      </trkpt>
      <trkpt lat="46.347225" lon="15.040552">
        <ele>627.2784</ele>
        <time>2010-12-13T08:52:26Z</time>
      </trkpt>
      <trkpt lat="46.347202" lon="15.040566">
        <ele>626.6688</ele>
        <time>2010-12-13T08:52:29Z</time>
      </trkpt>
      <trkpt lat="46.347153" lon="15.040568">
        <ele>626.364</ele>
        <time>2010-12-13T08:52:34Z</time>
      </trkpt>
      <trkpt lat="46.347046" lon="15.040611">
        <ele>625.7544</ele>
        <time>2010-12-13T08:52:44Z</time>
      </trkpt>
      <trkpt lat="46.346809" lon="15.040671">
        <ele>625.4496</ele>
        <time>2010-12-13T08:52:58Z</time>
      </trkpt>
      <trkpt lat="46.346596" lon="15.040671">
        <ele>625.7544</ele>
        <time>2010-12-13T08:53:12Z</time>
      </trkpt>
      <trkpt lat="46.346424" lon="15.040577">
        <ele>626.364</ele>
        <time>2010-12-13T08:53:24Z</time>
      </trkpt>
      <trkpt lat="46.346214" lon="15.040565">
        <ele>628.1928</ele>
        <time>2010-12-13T08:53:40Z</time>
      </trkpt>
      <trkpt lat="46.346066" lon="15.040626">
        <ele>629.1072</ele>
        <time>2010-12-13T08:53:54Z</time>
      </trkpt>
      <trkpt lat="46.346058" lon="15.040628">
        <ele>629.7168</ele>
        <time>2010-12-13T08:53:55Z</time>
      </trkpt>
      <trkpt lat="46.345829" lon="15.040699">
        <ele>631.2408</ele>
        <time>2010-12-13T08:54:10Z</time>
      </trkpt>
      <trkpt lat="46.345692" lon="15.040817">
        <ele>632.1552</ele>
        <time>2010-12-13T08:54:22Z</time>
      </trkpt>
      <trkpt lat="46.345608" lon="15.041039">
        <ele>633.6792</ele>
        <time>2010-12-13T08:54:37Z</time>
      </trkpt>
      <trkpt lat="46.345490" lon="15.041182">
        <ele>634.5936</ele>
        <time>2010-12-13T08:54:49Z</time>
      </trkpt>
      <trkpt lat="46.345371" lon="15.041293">
        <ele>636.1176</ele>
        <time>2010-12-13T08:55:01Z</time>
      </trkpt>
      <trkpt lat="46.345222" lon="15.041409">
        <ele>636.1176</ele>
        <time>2010-12-13T08:55:12Z</time>
      </trkpt>
      <trkpt lat="46.345127" lon="15.041492">
        <ele>637.3368</ele>
        <time>2010-12-13T08:55:24Z</time>
      </trkpt>
      <trkpt lat="46.345016" lon="15.041418">
        <ele>638.2512</ele>
        <time>2010-12-13T08:55:39Z</time>
      </trkpt>
      <trkpt lat="46.344997" lon="15.041407">
        <ele>638.2512</ele>
        <time>2010-12-13T08:55:54Z</time>
      </trkpt>
      <trkpt lat="46.344997" lon="15.041408">
        <ele>638.2512</ele>
        <time>2010-12-13T08:56:24Z</time>
      </trkpt>
      <trkpt lat="46.344997" lon="15.041408">
        <ele>638.8608</ele>
        <time>2010-12-13T08:56:56Z</time>
      </trkpt>
      <trkpt lat="46.344990" lon="15.041412">
        <ele>638.2512</ele>
        <time>2010-12-13T08:57:18Z</time>
      </trkpt>
      <trkpt lat="46.344959" lon="15.041422">
        <ele>638.8608</ele>
        <time>2010-12-13T08:57:26Z</time>
      </trkpt>
      <trkpt lat="46.344868" lon="15.041611">
        <ele>637.3368</ele>
        <time>2010-12-13T08:57:43Z</time>
      </trkpt>
      <trkpt lat="46.344852" lon="15.041644">
        <ele>637.3368</ele>
        <time>2010-12-13T08:57:50Z</time>
      </trkpt>
      <trkpt lat="46.344757" lon="15.041745">
        <ele>635.508</ele>
        <time>2010-12-13T08:57:59Z</time>
      </trkpt>
      <trkpt lat="46.344704" lon="15.041871">
        <ele>635.508</ele>
        <time>2010-12-13T08:58:09Z</time>
      </trkpt>
      <trkpt lat="46.344616" lon="15.042021">
        <ele>633.6792</ele>
        <time>2010-12-13T08:58:18Z</time>
      </trkpt>
      <trkpt lat="46.344513" lon="15.042115">
        <ele>633.0696</ele>
        <time>2010-12-13T08:58:28Z</time>
      </trkpt>
      <trkpt lat="46.344475" lon="15.042123">
        <ele>632.46</ele>
        <time>2010-12-13T08:58:30Z</time>
      </trkpt>
      <trkpt lat="46.344303" lon="15.042252">
        <ele>633.0696</ele>
        <time>2010-12-13T08:58:44Z</time>
      </trkpt>
      <trkpt lat="46.344154" lon="15.042416">
        <ele>633.984</ele>
        <time>2010-12-13T08:58:56Z</time>
      </trkpt>
      <trkpt lat="46.343979" lon="15.042579">
        <ele>634.5936</ele>
        <time>2010-12-13T08:59:11Z</time>
      </trkpt>
      <trkpt lat="46.343853" lon="15.042781">
        <ele>635.508</ele>
        <time>2010-12-13T08:59:23Z</time>
      </trkpt>
      <trkpt lat="46.343739" lon="15.042860">
        <ele>635.508</ele>
        <time>2010-12-13T08:59:34Z</time>
      </trkpt>
      <trkpt lat="46.343605" lon="15.042910">
        <ele>634.8984</ele>
        <time>2010-12-13T08:59:45Z</time>
      </trkpt>
      <trkpt lat="46.343498" lon="15.043195">
        <ele>633.984</ele>
        <time>2010-12-13T09:00:00Z</time>
      </trkpt>
      <trkpt lat="46.343376" lon="15.043468">
        <ele>633.0696</ele>
        <time>2010-12-13T09:00:14Z</time>
      </trkpt>
      <trkpt lat="46.343346" lon="15.043530">
        <ele>632.46</ele>
        <time>2010-12-13T09:00:17Z</time>
      </trkpt>
      <trkpt lat="46.343220" lon="15.043849">
        <ele>631.2408</ele>
        <time>2010-12-13T09:00:32Z</time>
      </trkpt>
      <trkpt lat="46.343201" lon="15.043926">
        <ele>631.5456</ele>
        <time>2010-12-13T09:00:36Z</time>
      </trkpt>
      <trkpt lat="46.343102" lon="15.044052">
        <ele>628.1928</ele>
        <time>2010-12-13T09:00:45Z</time>
      </trkpt>
      <trkpt lat="46.343048" lon="15.044138">
        <ele>626.364</ele>
        <time>2010-12-13T09:00:54Z</time>
      </trkpt>
      <trkpt lat="46.343025" lon="15.044248">
        <ele>625.4496</ele>
        <time>2010-12-13T09:00:59Z</time>
      </trkpt>
      <trkpt lat="46.342979" lon="15.044517">
        <ele>624.5352</ele>
        <time>2010-12-13T09:01:07Z</time>
      </trkpt>
      <trkpt lat="46.342976" lon="15.044872">
        <ele>622.0968</ele>
        <time>2010-12-13T09:01:22Z</time>
      </trkpt>
      <trkpt lat="46.342899" lon="15.045081">
        <ele>620.8776</ele>
        <time>2010-12-13T09:01:35Z</time>
      </trkpt>
      <trkpt lat="46.342888" lon="15.045151">
        <ele>621.4872</ele>
        <time>2010-12-13T09:01:39Z</time>
      </trkpt>
      <trkpt lat="46.342869" lon="15.045227">
        <ele>621.4872</ele>
        <time>2010-12-13T09:01:44Z</time>
      </trkpt>
      <trkpt lat="46.342861" lon="15.045323">
        <ele>621.4872</ele>
        <time>2010-12-13T09:01:49Z</time>
      </trkpt>
      <trkpt lat="46.342945" lon="15.045709">
        <ele>621.4872</ele>
        <time>2010-12-13T09:02:05Z</time>
      </trkpt>
      <trkpt lat="46.342941" lon="15.045827">
        <ele>619.0488</ele>
        <time>2010-12-13T09:02:13Z</time>
      </trkpt>
      <trkpt lat="46.342804" lon="15.045960">
        <ele>615.0864</ele>
        <time>2010-12-13T09:02:28Z</time>
      </trkpt>
      <trkpt lat="46.342754" lon="15.045996">
        <ele>613.8672</ele>
        <time>2010-12-13T09:02:33Z</time>
      </trkpt>
      <trkpt lat="46.342701" lon="15.046088">
        <ele>612.648</ele>
        <time>2010-12-13T09:02:40Z</time>
      </trkpt>
      <trkpt lat="46.342636" lon="15.046182">
        <ele>612.0384</ele>
        <time>2010-12-13T09:02:51Z</time>
      </trkpt>
      <trkpt lat="46.342606" lon="15.046281">
        <ele>611.4288</ele>
        <time>2010-12-13T09:02:56Z</time>
      </trkpt>
      <trkpt lat="46.342583" lon="15.046357">
        <ele>611.124</ele>
        <time>2010-12-13T09:02:59Z</time>
      </trkpt>
      <trkpt lat="46.342579" lon="15.046408">
        <ele>611.4288</ele>
        <time>2010-12-13T09:03:02Z</time>
      </trkpt>
      <trkpt lat="46.342556" lon="15.046465">
        <ele>612.0384</ele>
        <time>2010-12-13T09:03:14Z</time>
      </trkpt>
      <trkpt lat="46.342556" lon="15.046465">
        <ele>612.648</ele>
        <time>2010-12-13T09:03:34Z</time>
      </trkpt>
      <trkpt lat="46.342552" lon="15.046494">
        <ele>613.2576</ele>
        <time>2010-12-13T09:04:05Z</time>
      </trkpt>
      <trkpt lat="46.342552" lon="15.046494">
        <ele>613.8672</ele>
        <time>2010-12-13T09:04:21Z</time>
      </trkpt>
      <trkpt lat="46.342545" lon="15.046490">
        <ele>614.4768</ele>
        <time>2010-12-13T09:04:48Z</time>
      </trkpt>
      <trkpt lat="46.342545" lon="15.046489">
        <ele>615.696</ele>
        <time>2010-12-13T09:05:22Z</time>
      </trkpt>
      <trkpt lat="46.342495" lon="15.046453">
        <ele>616.9152</ele>
        <time>2010-12-13T09:05:51Z</time>
      </trkpt>
      <trkpt lat="46.342495" lon="15.046453">
        <ele>617.22</ele>
        <time>2010-12-13T09:06:08Z</time>
      </trkpt>
      <trkpt lat="46.342495" lon="15.046453">
        <ele>617.22</ele>
        <time>2010-12-13T09:06:16Z</time>
      </trkpt>
      <trkpt lat="46.342560" lon="15.046513">
        <ele>617.5248</ele>
        <time>2010-12-13T09:06:19Z</time>
      </trkpt>
      <trkpt lat="46.342590" lon="15.046554">
        <ele>616.3056</ele>
        <time>2010-12-13T09:06:23Z</time>
      </trkpt>
      <trkpt lat="46.342613" lon="15.046659">
        <ele>616.3056</ele>
        <time>2010-12-13T09:06:28Z</time>
      </trkpt>
      <trkpt lat="46.342644" lon="15.047020">
        <ele>616.9152</ele>
        <time>2010-12-13T09:06:43Z</time>
      </trkpt>
      <trkpt lat="46.342644" lon="15.047386">
        <ele>616.3056</ele>
        <time>2010-12-13T09:06:59Z</time>
      </trkpt>
      <trkpt lat="46.342655" lon="15.047705">
        <ele>614.7816</ele>
        <time>2010-12-13T09:07:12Z</time>
      </trkpt>
      <trkpt lat="46.342705" lon="15.048004">
        <ele>612.0384</ele>
        <time>2010-12-13T09:07:24Z</time>
      </trkpt>
      <trkpt lat="46.342758" lon="15.048460">
        <ele>608.9904</ele>
        <time>2010-12-13T09:07:40Z</time>
      </trkpt>
      <trkpt lat="46.342754" lon="15.048915">
        <ele>606.552</ele>
        <time>2010-12-13T09:07:57Z</time>
      </trkpt>
      <trkpt lat="46.342701" lon="15.049278">
        <ele>603.1992</ele>
        <time>2010-12-13T09:08:14Z</time>
      </trkpt>
      <trkpt lat="46.342598" lon="15.049485">
        <ele>600.456</ele>
        <time>2010-12-13T09:08:24Z</time>
      </trkpt>
      <trkpt lat="46.342491" lon="15.049580">
        <ele>596.4936</ele>
        <time>2010-12-13T09:08:34Z</time>
      </trkpt>
      <trkpt lat="46.342438" lon="15.049620">
        <ele>591.9216</ele>
        <time>2010-12-13T09:08:38Z</time>
      </trkpt>
      <trkpt lat="46.342426" lon="15.049630">
        <ele>596.4936</ele>
        <time>2010-12-13T09:08:38Z</time>
      </trkpt>
      <trkpt lat="46.342419" lon="15.049637">
        <ele>600.1512</ele>
        <time>2010-12-13T09:08:39Z</time>
      </trkpt>
      <trkpt lat="46.342411" lon="15.049644">
        <ele>600.7608</ele>
        <time>2010-12-13T09:08:41Z</time>
      </trkpt>
      <trkpt lat="46.342289" lon="15.049745">
        <ele>593.1408</ele>
        <time>2010-12-13T09:08:53Z</time>
      </trkpt>
      <trkpt lat="46.342129" lon="15.049870">
        <ele>590.7024</ele>
        <time>2010-12-13T09:09:05Z</time>
      </trkpt>
      <trkpt lat="46.342190" lon="15.049901">
        <ele>590.7024</ele>
        <time>2010-12-13T09:09:10Z</time>
      </trkpt>
      <trkpt lat="46.342373" lon="15.049963">
        <ele>587.0448</ele>
        <time>2010-12-13T09:09:24Z</time>
      </trkpt>
      <trkpt lat="46.342468" lon="15.050037">
        <ele>586.1304</ele>
        <time>2010-12-13T09:09:29Z</time>
      </trkpt>
      <trkpt lat="46.342525" lon="15.050051">
        <ele>583.9968</ele>
        <time>2010-12-13T09:09:35Z</time>
      </trkpt>
      <trkpt lat="46.342720" lon="15.050166">
        <ele>580.644</ele>
        <time>2010-12-13T09:09:50Z</time>
      </trkpt>
      <trkpt lat="46.342892" lon="15.050158">
        <ele>578.8152</ele>
        <time>2010-12-13T09:10:03Z</time>
      </trkpt>
      <trkpt lat="46.342903" lon="15.050148">
        <ele>578.8152</ele>
        <time>2010-12-13T09:10:04Z</time>
      </trkpt>
      <trkpt lat="46.342934" lon="15.050088">
        <ele>577.9008</ele>
        <time>2010-12-13T09:10:08Z</time>
      </trkpt>
      <trkpt lat="46.343197" lon="15.050045">
        <ele>576.3768</ele>
        <time>2010-12-13T09:10:23Z</time>
      </trkpt>
      <trkpt lat="46.343338" lon="15.049969">
        <ele>573.024</ele>
        <time>2010-12-13T09:10:34Z</time>
      </trkpt>
      <trkpt lat="46.343498" lon="15.049814">
        <ele>569.6712</ele>
        <time>2010-12-13T09:10:50Z</time>
      </trkpt>
      <trkpt lat="46.343506" lon="15.049807">
        <ele>569.6712</ele>
        <time>2010-12-13T09:10:52Z</time>
      </trkpt>
      <trkpt lat="46.343548" lon="15.049759">
        <ele>569.6712</ele>
        <time>2010-12-13T09:10:56Z</time>
      </trkpt>
      <trkpt lat="46.343689" lon="15.049638">
        <ele>567.2328</ele>
        <time>2010-12-13T09:11:06Z</time>
      </trkpt>
      <trkpt lat="46.343761" lon="15.049588">
        <ele>564.7944</ele>
        <time>2010-12-13T09:11:13Z</time>
      </trkpt>
      <trkpt lat="46.343868" lon="15.049453">
        <ele>561.4416</ele>
        <time>2010-12-13T09:11:24Z</time>
      </trkpt>
      <trkpt lat="46.343967" lon="15.049314">
        <ele>559.6128</ele>
        <time>2010-12-13T09:11:35Z</time>
      </trkpt>
      <trkpt lat="46.344067" lon="15.049296">
        <ele>557.1744</ele>
        <time>2010-12-13T09:11:43Z</time>
      </trkpt>
      <trkpt lat="46.344261" lon="15.049315">
        <ele>555.6504</ele>
        <time>2010-12-13T09:11:59Z</time>
      </trkpt>
      <trkpt lat="46.344425" lon="15.049438">
        <ele>552.2976</ele>
        <time>2010-12-13T09:12:10Z</time>
      </trkpt>
      <trkpt lat="46.344604" lon="15.049550">
        <ele>548.9448</ele>
        <time>2010-12-13T09:12:22Z</time>
      </trkpt>
      <trkpt lat="46.344635" lon="15.049737">
        <ele>545.8968</ele>
        <time>2010-12-13T09:12:36Z</time>
      </trkpt>
      <trkpt lat="46.344677" lon="15.050015">
        <ele>542.544</ele>
        <time>2010-12-13T09:12:48Z</time>
      </trkpt>
      <trkpt lat="46.344688" lon="15.050048">
        <ele>542.2392</ele>
        <time>2010-12-13T09:12:49Z</time>
      </trkpt>
      <trkpt lat="46.344723" lon="15.050160">
        <ele>541.3248</ele>
        <time>2010-12-13T09:12:53Z</time>
      </trkpt>
      <trkpt lat="46.344769" lon="15.050260">
        <ele>538.2768</ele>
        <time>2010-12-13T09:13:01Z</time>
      </trkpt>
      <trkpt lat="46.344814" lon="15.050394">
        <ele>534.924</ele>
        <time>2010-12-13T09:13:11Z</time>
      </trkpt>
      <trkpt lat="46.344810" lon="15.050504">
        <ele>531.5712</ele>
        <time>2010-12-13T09:13:19Z</time>
      </trkpt>
      <trkpt lat="46.344799" lon="15.050514">
        <ele>531.2664</ele>
        <time>2010-12-13T09:13:20Z</time>
      </trkpt>
      <trkpt lat="46.344749" lon="15.050575">
        <ele>529.7424</ele>
        <time>2010-12-13T09:13:24Z</time>
      </trkpt>
      <trkpt lat="46.344742" lon="15.050631">
        <ele>527.9136</ele>
        <time>2010-12-13T09:13:30Z</time>
      </trkpt>
      <trkpt lat="46.344620" lon="15.050856">
        <ele>523.9512</ele>
        <time>2010-12-13T09:13:43Z</time>
      </trkpt>
      <trkpt lat="46.344452" lon="15.050942">
        <ele>520.2936</ele>
        <time>2010-12-13T09:13:57Z</time>
      </trkpt>
      <trkpt lat="46.344349" lon="15.050997">
        <ele>519.0744</ele>
        <time>2010-12-13T09:14:06Z</time>
      </trkpt>
      <trkpt lat="46.344212" lon="15.051109">
        <ele>516.3312</ele>
        <time>2010-12-13T09:14:20Z</time>
      </trkpt>
      <trkpt lat="46.344204" lon="15.051130">
        <ele>516.3312</ele>
        <time>2010-12-13T09:14:22Z</time>
      </trkpt>
      <trkpt lat="46.344208" lon="15.051430">
        <ele>514.5024</ele>
        <time>2010-12-13T09:14:37Z</time>
      </trkpt>
      <trkpt lat="46.344181" lon="15.051480">
        <ele>512.9784</ele>
        <time>2010-12-13T09:14:41Z</time>
      </trkpt>
      <trkpt lat="46.344162" lon="15.051526">
        <ele>512.064</ele>
        <time>2010-12-13T09:14:56Z</time>
      </trkpt>
      <trkpt lat="46.344131" lon="15.051539">
        <ele>512.064</ele>
        <time>2010-12-13T09:15:00Z</time>
      </trkpt>
      <trkpt lat="46.344021" lon="15.051600">
        <ele>511.1496</ele>
        <time>2010-12-13T09:15:08Z</time>
      </trkpt>
      <trkpt lat="46.343815" lon="15.051709">
        <ele>509.6256</ele>
        <time>2010-12-13T09:15:24Z</time>
      </trkpt>
      <trkpt lat="46.343597" lon="15.051897">
        <ele>508.7112</ele>
        <time>2010-12-13T09:15:41Z</time>
      </trkpt>
      <trkpt lat="46.343521" lon="15.052190">
        <ele>506.5776</ele>
        <time>2010-12-13T09:15:54Z</time>
      </trkpt>
      <trkpt lat="46.343468" lon="15.052355">
        <ele>503.2248</ele>
        <time>2010-12-13T09:16:03Z</time>
      </trkpt>
      <trkpt lat="46.343464" lon="15.052371">
        <ele>503.2248</ele>
        <time>2010-12-13T09:16:05Z</time>
      </trkpt>
      <trkpt lat="46.343513" lon="15.052562">
        <ele>501.7008</ele>
        <time>2010-12-13T09:16:10Z</time>
      </trkpt>
      <trkpt lat="46.343555" lon="15.052776">
        <ele>499.2624</ele>
        <time>2010-12-13T09:16:17Z</time>
      </trkpt>
      <trkpt lat="46.343636" lon="15.053046">
        <ele>496.5192</ele>
        <time>2010-12-13T09:16:28Z</time>
      </trkpt>
      <trkpt lat="46.343708" lon="15.053200">
        <ele>494.6904</ele>
        <time>2010-12-13T09:16:36Z</time>
      </trkpt>
      <trkpt lat="46.343727" lon="15.053256">
        <ele>493.4712</ele>
        <time>2010-12-13T09:16:37Z</time>
      </trkpt>
      <trkpt lat="46.343723" lon="15.053321">
        <ele>492.8616</ele>
        <time>2010-12-13T09:16:41Z</time>
      </trkpt>
      <trkpt lat="46.343685" lon="15.053507">
        <ele>491.3376</ele>
        <time>2010-12-13T09:16:52Z</time>
      </trkpt>
      <trkpt lat="46.343655" lon="15.053630">
        <ele>489.5088</ele>
        <time>2010-12-13T09:16:59Z</time>
      </trkpt>
      <trkpt lat="46.343620" lon="15.053716">
        <ele>486.4608</ele>
        <time>2010-12-13T09:17:04Z</time>
      </trkpt>
      <trkpt lat="46.343575" lon="15.053822">
        <ele>484.632</ele>
        <time>2010-12-13T09:17:11Z</time>
      </trkpt>
      <trkpt lat="46.343513" lon="15.053910">
        <ele>482.1936</ele>
        <time>2010-12-13T09:17:16Z</time>
      </trkpt>
      <trkpt lat="46.343456" lon="15.053999">
        <ele>478.8408</ele>
        <time>2010-12-13T09:17:24Z</time>
      </trkpt>
      <trkpt lat="46.343441" lon="15.054057">
        <ele>477.9264</ele>
        <time>2010-12-13T09:17:29Z</time>
      </trkpt>
      <trkpt lat="46.343422" lon="15.054139">
        <ele>476.4024</ele>
        <time>2010-12-13T09:17:34Z</time>
      </trkpt>
      <trkpt lat="46.343380" lon="15.054278">
        <ele>473.0496</ele>
        <time>2010-12-13T09:17:42Z</time>
      </trkpt>
      <trkpt lat="46.343365" lon="15.054335">
        <ele>471.5256</ele>
        <time>2010-12-13T09:17:46Z</time>
      </trkpt>
      <trkpt lat="46.343296" lon="15.054359">
        <ele>470.3064</ele>
        <time>2010-12-13T09:17:53Z</time>
      </trkpt>
      <trkpt lat="46.343174" lon="15.054482">
        <ele>466.344</ele>
        <time>2010-12-13T09:18:05Z</time>
      </trkpt>
      <trkpt lat="46.343132" lon="15.054563">
        <ele>463.9056</ele>
        <time>2010-12-13T09:18:17Z</time>
      </trkpt>
      <trkpt lat="46.342941" lon="15.054790">
        <ele>463.296</ele>
        <time>2010-12-13T09:18:32Z</time>
      </trkpt>
      <trkpt lat="46.342724" lon="15.054835">
        <ele>462.9912</ele>
        <time>2010-12-13T09:18:48Z</time>
      </trkpt>
      <trkpt lat="46.342552" lon="15.054976">
        <ele>462.3816</ele>
        <time>2010-12-13T09:19:04Z</time>
      </trkpt>
      <trkpt lat="46.342506" lon="15.054996">
        <ele>464.5152</ele>
        <time>2010-12-13T09:19:19Z</time>
      </trkpt>
      <trkpt lat="46.342590" lon="15.055035">
        <ele>465.7344</ele>
        <time>2010-12-13T09:19:26Z</time>
      </trkpt>
      <trkpt lat="46.342731" lon="15.055224">
        <ele>469.0872</ele>
        <time>2010-12-13T09:19:38Z</time>
      </trkpt>
      <trkpt lat="46.342758" lon="15.055498">
        <ele>471.5256</ele>
        <time>2010-12-13T09:19:54Z</time>
      </trkpt>
      <trkpt lat="46.342758" lon="15.055529">
        <ele>472.1352</ele>
        <time>2010-12-13T09:19:57Z</time>
      </trkpt>
      <trkpt lat="46.342739" lon="15.055599">
        <ele>472.7448</ele>
        <time>2010-12-13T09:20:01Z</time>
      </trkpt>
      <trkpt lat="46.342709" lon="15.055630">
        <ele>473.3544</ele>
        <time>2010-12-13T09:20:05Z</time>
      </trkpt>
      <trkpt lat="46.342670" lon="15.055736">
        <ele>474.8784</ele>
        <time>2010-12-13T09:20:12Z</time>
      </trkpt>
      <trkpt lat="46.342590" lon="15.055855">
        <ele>477.3168</ele>
        <time>2010-12-13T09:20:20Z</time>
      </trkpt>
      <trkpt lat="46.342571" lon="15.055884">
        <ele>477.3168</ele>
        <time>2010-12-13T09:20:24Z</time>
      </trkpt>
      <trkpt lat="46.342541" lon="15.055966">
        <ele>479.1456</ele>
        <time>2010-12-13T09:20:28Z</time>
      </trkpt>
      <trkpt lat="46.342518" lon="15.056057">
        <ele>479.7552</ele>
        <time>2010-12-13T09:20:35Z</time>
      </trkpt>
      <trkpt lat="46.342361" lon="15.056225">
        <ele>483.7176</ele>
        <time>2010-12-13T09:20:48Z</time>
      </trkpt>
      <trkpt lat="46.342312" lon="15.056375">
        <ele>484.632</ele>
        <time>2010-12-13T09:20:55Z</time>
      </trkpt>
      <trkpt lat="46.342281" lon="15.056428">
        <ele>485.5464</ele>
        <time>2010-12-13T09:20:59Z</time>
      </trkpt>
      <trkpt lat="46.342163" lon="15.056579">
        <ele>487.9848</ele>
        <time>2010-12-13T09:21:13Z</time>
      </trkpt>
      <trkpt lat="46.342129" lon="15.056633">
        <ele>488.8992</ele>
        <time>2010-12-13T09:21:18Z</time>
      </trkpt>
      <trkpt lat="46.342003" lon="15.056767">
        <ele>492.252</ele>
        <time>2010-12-13T09:21:32Z</time>
      </trkpt>
      <trkpt lat="46.341881" lon="15.057028">
        <ele>495.6048</ele>
        <time>2010-12-13T09:21:49Z</time>
      </trkpt>
      <trkpt lat="46.341782" lon="15.057238">
        <ele>497.7384</ele>
        <time>2010-12-13T09:22:04Z</time>
      </trkpt>
      <trkpt lat="46.341682" lon="15.057446">
        <ele>499.2624</ele>
        <time>2010-12-13T09:22:20Z</time>
      </trkpt>
      <trkpt lat="46.341537" lon="15.057621">
        <ele>500.7864</ele>
        <time>2010-12-13T09:22:35Z</time>
      </trkpt>
      <trkpt lat="46.341400" lon="15.057716">
        <ele>504.1392</ele>
        <time>2010-12-13T09:22:50Z</time>
      </trkpt>
      <trkpt lat="46.341255" lon="15.057898">
        <ele>507.1872</ele>
        <time>2010-12-13T09:23:06Z</time>
      </trkpt>
      <trkpt lat="46.341225" lon="15.057929">
        <ele>507.1872</ele>
        <time>2010-12-13T09:23:09Z</time>
      </trkpt>
      <trkpt lat="46.340984" lon="15.058032">
        <ele>508.1016</ele>
        <time>2010-12-13T09:23:28Z</time>
      </trkpt>
      <trkpt lat="46.340755" lon="15.058069">
        <ele>507.492</ele>
        <time>2010-12-13T09:23:44Z</time>
      </trkpt>
      <trkpt lat="46.340523" lon="15.058141">
        <ele>507.492</ele>
        <time>2010-12-13T09:24:01Z</time>
      </trkpt>
      <trkpt lat="46.340324" lon="15.058274">
        <ele>508.1016</ele>
        <time>2010-12-13T09:24:19Z</time>
      </trkpt>
      <trkpt lat="46.340118" lon="15.058394">
        <ele>508.7112</ele>
        <time>2010-12-13T09:24:35Z</time>
      </trkpt>
      <trkpt lat="46.339962" lon="15.058565">
        <ele>509.016</ele>
        <time>2010-12-13T09:24:51Z</time>
      </trkpt>
      <trkpt lat="46.339779" lon="15.058764">
        <ele>509.016</ele>
        <time>2010-12-13T09:25:08Z</time>
      </trkpt>
      <trkpt lat="46.339634" lon="15.058982">
        <ele>509.9304</ele>
        <time>2010-12-13T09:25:25Z</time>
      </trkpt>
      <trkpt lat="46.339474" lon="15.059131">
        <ele>512.3688</ele>
        <time>2010-12-13T09:25:40Z</time>
      </trkpt>
      <trkpt lat="46.339260" lon="15.059155">
        <ele>513.8928</ele>
        <time>2010-12-13T09:25:57Z</time>
      </trkpt>
      <trkpt lat="46.339085" lon="15.059090">
        <ele>514.8072</ele>
        <time>2010-12-13T09:26:11Z</time>
      </trkpt>
      <trkpt lat="46.338913" lon="15.059050">
        <ele>516.3312</ele>
        <time>2010-12-13T09:26:26Z</time>
      </trkpt>
      <trkpt lat="46.338829" lon="15.059058">
        <ele>519.684</ele>
        <time>2010-12-13T09:26:42Z</time>
      </trkpt>
      <trkpt lat="46.338783" lon="15.059014">
        <ele>520.2936</ele>
        <time>2010-12-13T09:26:46Z</time>
      </trkpt>
      <trkpt lat="46.338646" lon="15.058965">
        <ele>523.3416</ele>
        <time>2010-12-13T09:27:00Z</time>
      </trkpt>
      <trkpt lat="46.338551" lon="15.058934">
        <ele>527.304</ele>
        <time>2010-12-13T09:27:12Z</time>
      </trkpt>
      <trkpt lat="46.338493" lon="15.058895">
        <ele>529.7424</ele>
        <time>2010-12-13T09:27:21Z</time>
      </trkpt>
      <trkpt lat="46.338337" lon="15.058858">
        <ele>531.5712</ele>
        <time>2010-12-13T09:27:36Z</time>
      </trkpt>
      <trkpt lat="46.338211" lon="15.058842">
        <ele>534.924</ele>
        <time>2010-12-13T09:27:50Z</time>
      </trkpt>
      <trkpt lat="46.338139" lon="15.058828">
        <ele>536.448</ele>
        <time>2010-12-13T09:27:58Z</time>
      </trkpt>
      <trkpt lat="46.337978" lon="15.058825">
        <ele>539.8008</ele>
        <time>2010-12-13T09:28:12Z</time>
      </trkpt>
      <trkpt lat="46.337860" lon="15.058810">
        <ele>543.1536</ele>
        <time>2010-12-13T09:28:26Z</time>
      </trkpt>
      <trkpt lat="46.337772" lon="15.058809">
        <ele>545.592</ele>
        <time>2010-12-13T09:28:37Z</time>
      </trkpt>
      <trkpt lat="46.337685" lon="15.058894">
        <ele>548.0304</ele>
        <time>2010-12-13T09:28:52Z</time>
      </trkpt>
      <trkpt lat="46.337662" lon="15.058907">
        <ele>548.0304</ele>
        <time>2010-12-13T09:28:53Z</time>
      </trkpt>
      <trkpt lat="46.337582" lon="15.058936">
        <ele>548.3352</ele>
        <time>2010-12-13T09:29:01Z</time>
      </trkpt>
      <trkpt lat="46.337524" lon="15.058960">
        <ele>549.2496</ele>
        <time>2010-12-13T09:29:06Z</time>
      </trkpt>
      <trkpt lat="46.337471" lon="15.058972">
        <ele>549.2496</ele>
        <time>2010-12-13T09:29:12Z</time>
      </trkpt>
      <trkpt lat="46.337452" lon="15.059048">
        <ele>550.4688</ele>
        <time>2010-12-13T09:29:19Z</time>
      </trkpt>
      <trkpt lat="46.337330" lon="15.059151">
        <ele>553.212</ele>
        <time>2010-12-13T09:29:32Z</time>
      </trkpt>
      <trkpt lat="46.337303" lon="15.059177">
        <ele>553.8216</ele>
        <time>2010-12-13T09:29:35Z</time>
      </trkpt>
      <trkpt lat="46.337238" lon="15.059217">
        <ele>555.6504</ele>
        <time>2010-12-13T09:29:42Z</time>
      </trkpt>
      <trkpt lat="46.337093" lon="15.059225">
        <ele>559.0032</ele>
        <time>2010-12-13T09:29:55Z</time>
      </trkpt>
      <trkpt lat="46.336903" lon="15.059185">
        <ele>559.9176</ele>
        <time>2010-12-13T09:30:13Z</time>
      </trkpt>
      <trkpt lat="46.336700" lon="15.059146">
        <ele>561.1368</ele>
        <time>2010-12-13T09:30:27Z</time>
      </trkpt>
      <trkpt lat="46.336571" lon="15.059145">
        <ele>562.6608</ele>
        <time>2010-12-13T09:30:40Z</time>
      </trkpt>
      <trkpt lat="46.336491" lon="15.059090">
        <ele>566.928</ele>
        <time>2010-12-13T09:30:54Z</time>
      </trkpt>
      <trkpt lat="46.336494" lon="15.058969">
        <ele>568.452</ele>
        <time>2010-12-13T09:31:04Z</time>
      </trkpt>
      <trkpt lat="46.336483" lon="15.058923">
        <ele>570.2808</ele>
        <time>2010-12-13T09:31:09Z</time>
      </trkpt>
      <trkpt lat="46.336407" lon="15.058846">
        <ele>573.3288</ele>
        <time>2010-12-13T09:31:23Z</time>
      </trkpt>
      <trkpt lat="46.336365" lon="15.058815">
        <ele>574.548</ele>
        <time>2010-12-13T09:31:28Z</time>
      </trkpt>
      <trkpt lat="46.336285" lon="15.058689">
        <ele>577.2912</ele>
        <time>2010-12-13T09:31:40Z</time>
      </trkpt>
      <trkpt lat="46.336246" lon="15.058588">
        <ele>580.644</ele>
        <time>2010-12-13T09:31:53Z</time>
      </trkpt>
      <trkpt lat="46.336220" lon="15.058499">
        <ele>582.4728</ele>
        <time>2010-12-13T09:32:05Z</time>
      </trkpt>
      <trkpt lat="46.336182" lon="15.058452">
        <ele>584.9112</ele>
        <time>2010-12-13T09:32:25Z</time>
      </trkpt>
      <trkpt lat="46.336182" lon="15.058429">
        <ele>586.4352</ele>
        <time>2010-12-13T09:32:51Z</time>
      </trkpt>
      <trkpt lat="46.336105" lon="15.058287">
        <ele>588.8736</ele>
        <time>2010-12-13T09:33:04Z</time>
      </trkpt>
      <trkpt lat="46.336067" lon="15.058230">
        <ele>590.0928</ele>
        <time>2010-12-13T09:33:11Z</time>
      </trkpt>
      <trkpt lat="46.336014" lon="15.058208">
        <ele>594.0552</ele>
        <time>2010-12-13T09:33:23Z</time>
      </trkpt>
      <trkpt lat="46.335850" lon="15.058158">
        <ele>597.1032</ele>
        <time>2010-12-13T09:33:35Z</time>
      </trkpt>
      <trkpt lat="46.335739" lon="15.058092">
        <ele>600.7608</ele>
        <time>2010-12-13T09:33:49Z</time>
      </trkpt>
      <trkpt lat="46.335720" lon="15.058089">
        <ele>602.2848</ele>
        <time>2010-12-13T09:34:03Z</time>
      </trkpt>
      <trkpt lat="46.335720" lon="15.058087">
        <ele>602.8944</ele>
        <time>2010-12-13T09:34:33Z</time>
      </trkpt>
      <trkpt lat="46.335705" lon="15.058077">
        <ele>605.6376</ele>
        <time>2010-12-13T09:34:43Z</time>
      </trkpt>
      <trkpt lat="46.335674" lon="15.058046">
        <ele>606.552</ele>
        <time>2010-12-13T09:34:48Z</time>
      </trkpt>
      <trkpt lat="46.335629" lon="15.058052">
        <ele>609.9048</ele>
        <time>2010-12-13T09:34:57Z</time>
      </trkpt>
      <trkpt lat="46.335533" lon="15.058072">
        <ele>612.648</ele>
        <time>2010-12-13T09:35:07Z</time>
      </trkpt>
      <trkpt lat="46.335468" lon="15.058109">
        <ele>614.4768</ele>
        <time>2010-12-13T09:35:15Z</time>
      </trkpt>
      <trkpt lat="46.335365" lon="15.058120">
        <ele>616.3056</ele>
        <time>2010-12-13T09:35:26Z</time>
      </trkpt>
      <trkpt lat="46.335270" lon="15.058126">
        <ele>616.3056</ele>
        <time>2010-12-13T09:35:34Z</time>
      </trkpt>
      <trkpt lat="46.335217" lon="15.058088">
        <ele>616.9152</ele>
        <time>2010-12-13T09:35:42Z</time>
      </trkpt>
      <trkpt lat="46.335049" lon="15.057976">
        <ele>617.22</ele>
        <time>2010-12-13T09:35:58Z</time>
      </trkpt>
      <trkpt lat="46.334946" lon="15.057977">
        <ele>620.5728</ele>
        <time>2010-12-13T09:36:08Z</time>
      </trkpt>
      <trkpt lat="46.334843" lon="15.057899">
        <ele>623.9256</ele>
        <time>2010-12-13T09:36:21Z</time>
      </trkpt>
      <trkpt lat="46.334797" lon="15.057914">
        <ele>626.364</ele>
        <time>2010-12-13T09:36:28Z</time>
      </trkpt>
      <trkpt lat="46.334747" lon="15.057917">
        <ele>626.6688</ele>
        <time>2010-12-13T09:36:32Z</time>
      </trkpt>
      <trkpt lat="46.334724" lon="15.057927">
        <ele>626.6688</ele>
        <time>2010-12-13T09:36:36Z</time>
      </trkpt>
      <trkpt lat="46.334679" lon="15.057940">
        <ele>627.888</ele>
        <time>2010-12-13T09:36:40Z</time>
      </trkpt>
      <trkpt lat="46.334595" lon="15.057996">
        <ele>627.888</ele>
        <time>2010-12-13T09:36:48Z</time>
      </trkpt>
      <trkpt lat="46.334553" lon="15.058029">
        <ele>628.1928</ele>
        <time>2010-12-13T09:36:52Z</time>
      </trkpt>
      <trkpt lat="46.334522" lon="15.058031">
        <ele>629.1072</ele>
        <time>2010-12-13T09:36:54Z</time>
      </trkpt>
      <trkpt lat="46.334469" lon="15.058047">
        <ele>629.1072</ele>
        <time>2010-12-13T09:36:58Z</time>
      </trkpt>
      <trkpt lat="46.334354" lon="15.058070">
        <ele>629.7168</ele>
        <time>2010-12-13T09:37:06Z</time>
      </trkpt>
      <trkpt lat="46.334129" lon="15.058113">
        <ele>630.6312</ele>
        <time>2010-12-13T09:37:22Z</time>
      </trkpt>
      <trkpt lat="46.333950" lon="15.058061">
        <ele>627.888</ele>
        <time>2010-12-13T09:37:38Z</time>
      </trkpt>
      <trkpt lat="46.333817" lon="15.058035">
        <ele>624.84</ele>
        <time>2010-12-13T09:37:49Z</time>
      </trkpt>
      <trkpt lat="46.333733" lon="15.058012">
        <ele>623.0112</ele>
        <time>2010-12-13T09:37:56Z</time>
      </trkpt>
      <trkpt lat="46.333519" lon="15.058054">
        <ele>620.5728</ele>
        <time>2010-12-13T09:38:12Z</time>
      </trkpt>
      <trkpt lat="46.333332" lon="15.058079">
        <ele>617.22</ele>
        <time>2010-12-13T09:38:24Z</time>
      </trkpt>
      <trkpt lat="46.333103" lon="15.058201">
        <ele>616.3056</ele>
        <time>2010-12-13T09:38:43Z</time>
      </trkpt>
      <trkpt lat="46.333096" lon="15.058206">
        <ele>616.3056</ele>
        <time>2010-12-13T09:38:44Z</time>
      </trkpt>
      <trkpt lat="46.333015" lon="15.058205">
        <ele>618.1344</ele>
        <time>2010-12-13T09:38:51Z</time>
      </trkpt>
      <trkpt lat="46.332947" lon="15.058208">
        <ele>620.5728</ele>
        <time>2010-12-13T09:39:06Z</time>
      </trkpt>
      <trkpt lat="46.332924" lon="15.058181">
        <ele>620.8776</ele>
        <time>2010-12-13T09:39:09Z</time>
      </trkpt>
      <trkpt lat="46.332718" lon="15.058050">
        <ele>619.9632</ele>
        <time>2010-12-13T09:39:23Z</time>
      </trkpt>
      <trkpt lat="46.332691" lon="15.058038">
        <ele>619.9632</ele>
        <time>2010-12-13T09:39:26Z</time>
      </trkpt>
      <trkpt lat="46.332558" lon="15.058065">
        <ele>616.3056</ele>
        <time>2010-12-13T09:39:38Z</time>
      </trkpt>
      <trkpt lat="46.332378" lon="15.058067">
        <ele>613.2576</ele>
        <time>2010-12-13T09:39:52Z</time>
      </trkpt>
      <trkpt lat="46.332199" lon="15.058072">
        <ele>612.3432</ele>
        <time>2010-12-13T09:40:03Z</time>
      </trkpt>
      <trkpt lat="46.332180" lon="15.058065">
        <ele>612.648</ele>
        <time>2010-12-13T09:40:04Z</time>
      </trkpt>
      <trkpt lat="46.332127" lon="15.058047">
        <ele>613.8672</ele>
        <time>2010-12-13T09:40:11Z</time>
      </trkpt>
      <trkpt lat="46.332088" lon="15.058043">
        <ele>613.8672</ele>
        <time>2010-12-13T09:40:15Z</time>
      </trkpt>
      <trkpt lat="46.331947" lon="15.057983">
        <ele>617.22</ele>
        <time>2010-12-13T09:40:28Z</time>
      </trkpt>
      <trkpt lat="46.331802" lon="15.057960">
        <ele>619.9632</ele>
        <time>2010-12-13T09:40:43Z</time>
      </trkpt>
      <trkpt lat="46.331795" lon="15.057958">
        <ele>619.9632</ele>
        <time>2010-12-13T09:40:44Z</time>
      </trkpt>
      <trkpt lat="46.331764" lon="15.057946">
        <ele>620.5728</ele>
        <time>2010-12-13T09:40:47Z</time>
      </trkpt>
      <trkpt lat="46.331684" lon="15.057927">
        <ele>623.0112</ele>
        <time>2010-12-13T09:40:55Z</time>
      </trkpt>
      <trkpt lat="46.331581" lon="15.057899">
        <ele>625.7544</ele>
        <time>2010-12-13T09:41:06Z</time>
      </trkpt>
      <trkpt lat="46.331554" lon="15.057908">
        <ele>627.2784</ele>
        <time>2010-12-13T09:41:10Z</time>
      </trkpt>
      <trkpt lat="46.331509" lon="15.057929">
        <ele>630.3264</ele>
        <time>2010-12-13T09:41:20Z</time>
      </trkpt>
      <trkpt lat="46.331482" lon="15.057936">
        <ele>630.3264</ele>
        <time>2010-12-13T09:41:22Z</time>
      </trkpt>
      <trkpt lat="46.331238" lon="15.057990">
        <ele>633.6792</ele>
        <time>2010-12-13T09:41:38Z</time>
      </trkpt>
      <trkpt lat="46.331116" lon="15.058087">
        <ele>635.508</ele>
        <time>2010-12-13T09:41:52Z</time>
      </trkpt>
      <trkpt lat="46.331028" lon="15.058203">
        <ele>638.8608</ele>
        <time>2010-12-13T09:42:05Z</time>
      </trkpt>
      <trkpt lat="46.331013" lon="15.058239">
        <ele>639.4704</ele>
        <time>2010-12-13T09:42:09Z</time>
      </trkpt>
      <trkpt lat="46.330963" lon="15.058362">
        <ele>641.9088</ele>
        <time>2010-12-13T09:42:18Z</time>
      </trkpt>
      <trkpt lat="46.330948" lon="15.058383">
        <ele>642.2136</ele>
        <time>2010-12-13T09:42:34Z</time>
      </trkpt>
      <trkpt lat="46.330948" lon="15.058383">
        <ele>641.9088</ele>
        <time>2010-12-13T09:42:47Z</time>
      </trkpt>
      <trkpt lat="46.330891" lon="15.058502">
        <ele>644.9568</ele>
        <time>2010-12-13T09:42:59Z</time>
      </trkpt>
      <trkpt lat="46.330780" lon="15.058639">
        <ele>648.3096</ele>
        <time>2010-12-13T09:43:13Z</time>
      </trkpt>
      <trkpt lat="46.330639" lon="15.058693">
        <ele>650.748</ele>
        <time>2010-12-13T09:43:26Z</time>
      </trkpt>
      <trkpt lat="46.330509" lon="15.058781">
        <ele>653.1864</ele>
        <time>2010-12-13T09:43:41Z</time>
      </trkpt>
      <trkpt lat="46.330368" lon="15.058885">
        <ele>655.32</ele>
        <time>2010-12-13T09:43:56Z</time>
      </trkpt>
      <trkpt lat="46.330280" lon="15.058937">
        <ele>658.0632</ele>
        <time>2010-12-13T09:44:07Z</time>
      </trkpt>
      <trkpt lat="46.330196" lon="15.058966">
        <ele>660.5016</ele>
        <time>2010-12-13T09:44:16Z</time>
      </trkpt>
      <trkpt lat="46.330082" lon="15.058949">
        <ele>664.464</ele>
        <time>2010-12-13T09:44:30Z</time>
      </trkpt>
      <trkpt lat="46.329998" lon="15.058969">
        <ele>665.6832</ele>
        <time>2010-12-13T09:44:38Z</time>
      </trkpt>
      <trkpt lat="46.329815" lon="15.058932">
        <ele>669.6456</ele>
        <time>2010-12-13T09:44:53Z</time>
      </trkpt>
      <trkpt lat="46.329659" lon="15.058927">
        <ele>672.3888</ele>
        <time>2010-12-13T09:45:08Z</time>
      </trkpt>
      <trkpt lat="46.329647" lon="15.058944">
        <ele>672.3888</ele>
        <time>2010-12-13T09:45:25Z</time>
      </trkpt>
      <trkpt lat="46.329647" lon="15.058944">
        <ele>672.3888</ele>
        <time>2010-12-13T09:45:28Z</time>
      </trkpt>
      <trkpt lat="46.329529" lon="15.059009">
        <ele>674.5224</ele>
        <time>2010-12-13T09:45:41Z</time>
      </trkpt>
      <trkpt lat="46.329384" lon="15.058986">
        <ele>677.2656</ele>
        <time>2010-12-13T09:45:56Z</time>
      </trkpt>
      <trkpt lat="46.329350" lon="15.058960">
        <ele>677.8752</ele>
        <time>2010-12-13T09:45:59Z</time>
      </trkpt>
      <trkpt lat="46.329163" lon="15.058808">
        <ele>680.3136</ele>
        <time>2010-12-13T09:46:18Z</time>
      </trkpt>
      <trkpt lat="46.329044" lon="15.058772">
        <ele>681.5328</ele>
        <time>2010-12-13T09:46:30Z</time>
      </trkpt>
      <trkpt lat="46.328903" lon="15.058797">
        <ele>683.0568</ele>
        <time>2010-12-13T09:46:49Z</time>
      </trkpt>
      <trkpt lat="46.328869" lon="15.058830">
        <ele>683.9712</ele>
        <time>2010-12-13T09:47:16Z</time>
      </trkpt>
      <trkpt lat="46.328636" lon="15.058885">
        <ele>687.324</ele>
        <time>2010-12-13T09:47:35Z</time>
      </trkpt>
      <trkpt lat="46.328606" lon="15.058903">
        <ele>688.5432</ele>
        <time>2010-12-13T09:47:38Z</time>
      </trkpt>
      <trkpt lat="46.328484" lon="15.058939">
        <ele>689.7624</ele>
        <time>2010-12-13T09:47:48Z</time>
      </trkpt>
      <trkpt lat="46.328365" lon="15.058981">
        <ele>692.5056</ele>
        <time>2010-12-13T09:48:02Z</time>
      </trkpt>
      <trkpt lat="46.328331" lon="15.059000">
        <ele>692.2008</ele>
        <time>2010-12-13T09:48:05Z</time>
      </trkpt>
      <trkpt lat="46.328274" lon="15.059023">
        <ele>693.1152</ele>
        <time>2010-12-13T09:48:10Z</time>
      </trkpt>
      <trkpt lat="46.328110" lon="15.059071">
        <ele>695.5536</ele>
        <time>2010-12-13T09:48:26Z</time>
      </trkpt>
      <trkpt lat="46.327984" lon="15.059060">
        <ele>697.3824</ele>
        <time>2010-12-13T09:48:38Z</time>
      </trkpt>
      <trkpt lat="46.327927" lon="15.058993">
        <ele>698.9064</ele>
        <time>2010-12-13T09:48:48Z</time>
      </trkpt>
      <trkpt lat="46.327877" lon="15.058970">
        <ele>700.4304</ele>
        <time>2010-12-13T09:48:53Z</time>
      </trkpt>
      <trkpt lat="46.327744" lon="15.058770">
        <ele>703.7832</ele>
        <time>2010-12-13T09:49:09Z</time>
      </trkpt>
      <trkpt lat="46.327625" lon="15.058607">
        <ele>705.612</ele>
        <time>2010-12-13T09:49:23Z</time>
      </trkpt>
      <trkpt lat="46.327606" lon="15.058584">
        <ele>706.2216</ele>
        <time>2010-12-13T09:49:24Z</time>
      </trkpt>
      <trkpt lat="46.327595" lon="15.058535">
        <ele>707.136</ele>
        <time>2010-12-13T09:49:28Z</time>
      </trkpt>
      <trkpt lat="46.327579" lon="15.058472">
        <ele>708.0504</ele>
        <time>2010-12-13T09:49:42Z</time>
      </trkpt>
      <trkpt lat="46.327579" lon="15.058472">
        <ele>708.0504</ele>
        <time>2010-12-13T09:49:43Z</time>
      </trkpt>
      <trkpt lat="46.327522" lon="15.058521">
        <ele>707.7456</ele>
        <time>2010-12-13T09:49:50Z</time>
      </trkpt>
      <trkpt lat="46.327423" lon="15.058683">
        <ele>710.4888</ele>
        <time>2010-12-13T09:50:09Z</time>
      </trkpt>
      <trkpt lat="46.327419" lon="15.058689">
        <ele>710.4888</ele>
        <time>2010-12-13T09:50:10Z</time>
      </trkpt>
      <trkpt lat="46.327251" lon="15.058796">
        <ele>713.8416</ele>
        <time>2010-12-13T09:50:25Z</time>
      </trkpt>
      <trkpt lat="46.327225" lon="15.058825">
        <ele>714.4512</ele>
        <time>2010-12-13T09:50:29Z</time>
      </trkpt>
      <trkpt lat="46.327145" lon="15.058909">
        <ele>716.5848</ele>
        <time>2010-12-13T09:50:38Z</time>
      </trkpt>
      <trkpt lat="46.327118" lon="15.058960">
        <ele>718.1088</ele>
        <time>2010-12-13T09:50:44Z</time>
      </trkpt>
      <trkpt lat="46.327095" lon="15.059039">
        <ele>719.9376</ele>
        <time>2010-12-13T09:50:49Z</time>
      </trkpt>
      <trkpt lat="46.327015" lon="15.059140">
        <ele>722.9856</ele>
        <time>2010-12-13T09:51:01Z</time>
      </trkpt>
      <trkpt lat="46.326931" lon="15.059300">
        <ele>725.7288</ele>
        <time>2010-12-13T09:51:15Z</time>
      </trkpt>
      <trkpt lat="46.326931" lon="15.059333">
        <ele>725.7288</ele>
        <time>2010-12-13T09:51:16Z</time>
      </trkpt>
      <trkpt lat="46.326851" lon="15.059459">
        <ele>729.6912</ele>
        <time>2010-12-13T09:51:30Z</time>
      </trkpt>
      <trkpt lat="46.326843" lon="15.059475">
        <ele>728.1672</ele>
        <time>2010-12-13T09:51:31Z</time>
      </trkpt>
      <trkpt lat="46.326836" lon="15.059518">
        <ele>731.2152</ele>
        <time>2010-12-13T09:51:46Z</time>
      </trkpt>
      <trkpt lat="46.326839" lon="15.059570">
        <ele>732.7392</ele>
        <time>2010-12-13T09:51:54Z</time>
      </trkpt>
      <trkpt lat="46.326828" lon="15.059637">
        <ele>732.7392</ele>
        <time>2010-12-13T09:51:59Z</time>
      </trkpt>
      <trkpt lat="46.326767" lon="15.059616">
        <ele>732.7392</ele>
        <time>2010-12-13T09:52:05Z</time>
      </trkpt>
      <trkpt lat="46.326683" lon="15.059572">
        <ele>732.7392</ele>
        <time>2010-12-13T09:52:14Z</time>
      </trkpt>
      <trkpt lat="46.326580" lon="15.059430">
        <ele>734.8728</ele>
        <time>2010-12-13T09:52:29Z</time>
      </trkpt>
      <trkpt lat="46.326473" lon="15.059372">
        <ele>736.3968</ele>
        <time>2010-12-13T09:52:39Z</time>
      </trkpt>
      <trkpt lat="46.326340" lon="15.059135">
        <ele>738.8352</ele>
        <time>2010-12-13T09:52:56Z</time>
      </trkpt>
      <trkpt lat="46.326324" lon="15.059099">
        <ele>739.14</ele>
        <time>2010-12-13T09:52:57Z</time>
      </trkpt>
      <trkpt lat="46.326199" lon="15.058914">
        <ele>742.188</ele>
        <time>2010-12-13T09:53:12Z</time>
      </trkpt>
      <trkpt lat="46.326004" lon="15.058779">
        <ele>744.9312</ele>
        <time>2010-12-13T09:53:30Z</time>
      </trkpt>
      <trkpt lat="46.325790" lon="15.058637">
        <ele>746.1504</ele>
        <time>2010-12-13T09:53:47Z</time>
      </trkpt>
      <trkpt lat="46.325729" lon="15.058618">
        <ele>747.0648</ele>
        <time>2010-12-13T09:53:53Z</time>
      </trkpt>
      <trkpt lat="46.325710" lon="15.058528">
        <ele>748.8936</ele>
        <time>2010-12-13T09:54:02Z</time>
      </trkpt>
      <trkpt lat="46.325710" lon="15.058645">
        <ele>750.4176</ele>
        <time>2010-12-13T09:54:10Z</time>
      </trkpt>
      <trkpt lat="46.325657" lon="15.058681">
        <ele>750.7224</ele>
        <time>2010-12-13T09:54:14Z</time>
      </trkpt>
      <trkpt lat="46.325630" lon="15.058706">
        <ele>750.7224</ele>
        <time>2010-12-13T09:54:29Z</time>
      </trkpt>
      <trkpt lat="46.325630" lon="15.058706">
        <ele>749.808</ele>
        <time>2010-12-13T09:54:59Z</time>
      </trkpt>
      <trkpt lat="46.325634" lon="15.058729">
        <ele>749.808</ele>
        <time>2010-12-13T09:55:15Z</time>
      </trkpt>
      <trkpt lat="46.325638" lon="15.058731">
        <ele>749.5032</ele>
        <time>2010-12-13T09:55:42Z</time>
      </trkpt>
      <trkpt lat="46.325645" lon="15.058784">
        <ele>748.8936</ele>
        <time>2010-12-13T09:56:04Z</time>
      </trkpt>
      <trkpt lat="46.325645" lon="15.058784">
        <ele>749.5032</ele>
        <time>2010-12-13T09:56:11Z</time>
      </trkpt>
      <trkpt lat="46.325645" lon="15.058793">
        <ele>749.5032</ele>
        <time>2010-12-13T09:56:31Z</time>
      </trkpt>
      <trkpt lat="46.325645" lon="15.058793">
        <ele>749.5032</ele>
        <time>2010-12-13T09:56:47Z</time>
      </trkpt>
      <trkpt lat="46.325638" lon="15.058816">
        <ele>749.5032</ele>
        <time>2010-12-13T09:56:58Z</time>
      </trkpt>
      <trkpt lat="46.325558" lon="15.058801">
        <ele>748.8936</ele>
        <time>2010-12-13T09:57:03Z</time>
      </trkpt>
      <trkpt lat="46.325489" lon="15.058834">
        <ele>748.284</ele>
        <time>2010-12-13T09:57:07Z</time>
      </trkpt>
      <trkpt lat="46.325428" lon="15.058831">
        <ele>742.188</ele>
        <time>2010-12-13T09:57:13Z</time>
      </trkpt>
      <trkpt lat="46.325417" lon="15.058832">
        <ele>747.0648</ele>
        <time>2010-12-13T09:57:14Z</time>
      </trkpt>
      <trkpt lat="46.325375" lon="15.058823">
        <ele>746.1504</ele>
        <time>2010-12-13T09:57:18Z</time>
      </trkpt>
      <trkpt lat="46.325359" lon="15.058827">
        <ele>742.188</ele>
        <time>2010-12-13T09:57:21Z</time>
      </trkpt>
      <trkpt lat="46.325287" lon="15.058843">
        <ele>741.5784</ele>
        <time>2010-12-13T09:57:33Z</time>
      </trkpt>
      <trkpt lat="46.325275" lon="15.058760">
        <ele>739.7496</ele>
        <time>2010-12-13T09:57:42Z</time>
      </trkpt>
      <trkpt lat="46.325268" lon="15.058732">
        <ele>739.7496</ele>
        <time>2010-12-13T09:57:45Z</time>
      </trkpt>
      <trkpt lat="46.325325" lon="15.058495">
        <ele>737.3112</ele>
        <time>2010-12-13T09:57:57Z</time>
      </trkpt>
      <trkpt lat="46.325329" lon="15.058480">
        <ele>737.3112</ele>
        <time>2010-12-13T09:57:59Z</time>
      </trkpt>
      <trkpt lat="46.325367" lon="15.058420">
        <ele>736.3968</ele>
        <time>2010-12-13T09:58:04Z</time>
      </trkpt>
      <trkpt lat="46.325420" lon="15.058285">
        <ele>734.2632</ele>
        <time>2010-12-13T09:58:12Z</time>
      </trkpt>
      <trkpt lat="46.325432" lon="15.058221">
        <ele>733.6536</ele>
        <time>2010-12-13T09:58:16Z</time>
      </trkpt>
      <trkpt lat="46.325260" lon="15.058302">
        <ele>731.52</ele>
        <time>2010-12-13T09:58:28Z</time>
      </trkpt>
      <trkpt lat="46.325226" lon="15.058345">
        <ele>730.6056</ele>
        <time>2010-12-13T09:58:31Z</time>
      </trkpt>
      <trkpt lat="46.325039" lon="15.058455">
        <ele>728.1672</ele>
        <time>2010-12-13T09:58:44Z</time>
      </trkpt>
      <trkpt lat="46.324993" lon="15.058524">
        <ele>726.3384</ele>
        <time>2010-12-13T09:58:50Z</time>
      </trkpt>
      <trkpt lat="46.324886" lon="15.058646">
        <ele>722.376</ele>
        <time>2010-12-13T09:58:58Z</time>
      </trkpt>
      <trkpt lat="46.324753" lon="15.058798">
        <ele>719.9376</ele>
        <time>2010-12-13T09:59:10Z</time>
      </trkpt>
      <trkpt lat="46.324707" lon="15.058873">
        <ele>719.328</ele>
        <time>2010-12-13T09:59:14Z</time>
      </trkpt>
      <trkpt lat="46.324661" lon="15.058957">
        <ele>717.1944</ele>
        <time>2010-12-13T09:59:21Z</time>
      </trkpt>
      <trkpt lat="46.324562" lon="15.058994">
        <ele>713.5368</ele>
        <time>2010-12-13T09:59:29Z</time>
      </trkpt>
      <trkpt lat="46.324554" lon="15.058988">
        <ele>713.5368</ele>
        <time>2010-12-13T09:59:30Z</time>
      </trkpt>
      <trkpt lat="46.324436" lon="15.058903">
        <ele>709.2696</ele>
        <time>2010-12-13T09:59:42Z</time>
      </trkpt>
      <trkpt lat="46.324379" lon="15.058843">
        <ele>707.136</ele>
        <time>2010-12-13T09:59:52Z</time>
      </trkpt>
      <trkpt lat="46.324257" lon="15.058769">
        <ele>704.088</ele>
        <time>2010-12-13T10:00:03Z</time>
      </trkpt>
      <trkpt lat="46.324196" lon="15.058756">
        <ele>702.2592</ele>
        <time>2010-12-13T10:00:07Z</time>
      </trkpt>
      <trkpt lat="46.324093" lon="15.058790">
        <ele>700.7352</ele>
        <time>2010-12-13T10:00:12Z</time>
      </trkpt>
      <trkpt lat="46.324059" lon="15.058994">
        <ele>698.2968</ele>
        <time>2010-12-13T10:00:23Z</time>
      </trkpt>
      <trkpt lat="46.324020" lon="15.059330">
        <ele>695.8584</ele>
        <time>2010-12-13T10:00:38Z</time>
      </trkpt>
      <trkpt lat="46.323990" lon="15.059466">
        <ele>694.3344</ele>
        <time>2010-12-13T10:00:45Z</time>
      </trkpt>
      <trkpt lat="46.323978" lon="15.059487">
        <ele>693.7248</ele>
        <time>2010-12-13T10:00:47Z</time>
      </trkpt>
      <trkpt lat="46.323940" lon="15.059510">
        <ele>691.896</ele>
        <time>2010-12-13T10:00:53Z</time>
      </trkpt>
      <trkpt lat="46.323887" lon="15.059587">
        <ele>688.5432</ele>
        <time>2010-12-13T10:01:02Z</time>
      </trkpt>
      <trkpt lat="46.323818" lon="15.059696">
        <ele>684.8856</ele>
        <time>2010-12-13T10:01:10Z</time>
      </trkpt>
      <trkpt lat="46.323792" lon="15.059741">
        <ele>683.9712</ele>
        <time>2010-12-13T10:01:14Z</time>
      </trkpt>
      <trkpt lat="46.323658" lon="15.059791">
        <ele>680.3136</ele>
        <time>2010-12-13T10:01:26Z</time>
      </trkpt>
      <trkpt lat="46.323608" lon="15.059850">
        <ele>679.0944</ele>
        <time>2010-12-13T10:01:32Z</time>
      </trkpt>
      <trkpt lat="46.323528" lon="15.059975">
        <ele>676.656</ele>
        <time>2010-12-13T10:01:40Z</time>
      </trkpt>
      <trkpt lat="46.323505" lon="15.060129">
        <ele>675.4368</ele>
        <time>2010-12-13T10:01:48Z</time>
      </trkpt>
      <trkpt lat="46.323360" lon="15.060301">
        <ele>672.084</ele>
        <time>2010-12-13T10:02:04Z</time>
      </trkpt>
      <trkpt lat="46.323223" lon="15.060502">
        <ele>669.6456</ele>
        <time>2010-12-13T10:02:16Z</time>
      </trkpt>
      <trkpt lat="46.323196" lon="15.060528">
        <ele>669.6456</ele>
        <time>2010-12-13T10:02:23Z</time>
      </trkpt>
      <trkpt lat="46.323143" lon="15.060554">
        <ele>669.6456</ele>
        <time>2010-12-13T10:02:27Z</time>
      </trkpt>
      <trkpt lat="46.322960" lon="15.060720">
        <ele>669.9504</ele>
        <time>2010-12-13T10:02:41Z</time>
      </trkpt>
      <trkpt lat="46.322926" lon="15.060785">
        <ele>669.6456</ele>
        <time>2010-12-13T10:02:45Z</time>
      </trkpt>
      <trkpt lat="46.322842" lon="15.060932">
        <ele>667.2072</ele>
        <time>2010-12-13T10:02:58Z</time>
      </trkpt>
      <trkpt lat="46.322830" lon="15.060945">
        <ele>667.2072</ele>
        <time>2010-12-13T10:03:00Z</time>
      </trkpt>
      <trkpt lat="46.322823" lon="15.060955">
        <ele>666.9024</ele>
        <time>2010-12-13T10:03:01Z</time>
      </trkpt>
      <trkpt lat="46.322819" lon="15.060966">
        <ele>666.9024</ele>
        <time>2010-12-13T10:03:08Z</time>
      </trkpt>
      <trkpt lat="46.322807" lon="15.060967">
        <ele>665.6832</ele>
        <time>2010-12-13T10:03:10Z</time>
      </trkpt>
      <trkpt lat="46.322788" lon="15.061000">
        <ele>664.464</ele>
        <time>2010-12-13T10:03:13Z</time>
      </trkpt>
      <trkpt lat="46.322693" lon="15.061119">
        <ele>661.416</ele>
        <time>2010-12-13T10:03:24Z</time>
      </trkpt>
      <trkpt lat="46.322632" lon="15.061223">
        <ele>658.0632</ele>
        <time>2010-12-13T10:03:33Z</time>
      </trkpt>
      <trkpt lat="46.322571" lon="15.061278">
        <ele>655.6248</ele>
        <time>2010-12-13T10:03:41Z</time>
      </trkpt>
      <trkpt lat="46.322533" lon="15.061307">
        <ele>654.1008</ele>
        <time>2010-12-13T10:03:44Z</time>
      </trkpt>
      <trkpt lat="46.322487" lon="15.061333">
        <ele>652.8816</ele>
        <time>2010-12-13T10:03:48Z</time>
      </trkpt>
      <trkpt lat="46.322361" lon="15.061355">
        <ele>650.4432</ele>
        <time>2010-12-13T10:03:58Z</time>
      </trkpt>
      <trkpt lat="46.322239" lon="15.061394">
        <ele>647.0904</ele>
        <time>2010-12-13T10:04:08Z</time>
      </trkpt>
      <trkpt lat="46.322227" lon="15.061397">
        <ele>647.0904</ele>
        <time>2010-12-13T10:04:10Z</time>
      </trkpt>
      <trkpt lat="46.322178" lon="15.061375">
        <ele>645.8712</ele>
        <time>2010-12-13T10:04:14Z</time>
      </trkpt>
      <trkpt lat="46.322090" lon="15.061376">
        <ele>642.2136</ele>
        <time>2010-12-13T10:04:23Z</time>
      </trkpt>
      <trkpt lat="46.322037" lon="15.061392">
        <ele>638.8608</ele>
        <time>2010-12-13T10:04:31Z</time>
      </trkpt>
      <trkpt lat="46.321884" lon="15.061300">
        <ele>636.4224</ele>
        <time>2010-12-13T10:04:44Z</time>
      </trkpt>
      <trkpt lat="46.321724" lon="15.061209">
        <ele>633.984</ele>
        <time>2010-12-13T10:04:57Z</time>
      </trkpt>
      <trkpt lat="46.321632" lon="15.061182">
        <ele>632.1552</ele>
        <time>2010-12-13T10:05:05Z</time>
      </trkpt>
      <trkpt lat="46.321518" lon="15.061228">
        <ele>628.8024</ele>
        <time>2010-12-13T10:05:16Z</time>
      </trkpt>
      <trkpt lat="46.321434" lon="15.061264">
        <ele>626.6688</ele>
        <time>2010-12-13T10:05:24Z</time>
      </trkpt>
      <trkpt lat="46.321415" lon="15.061264">
        <ele>625.4496</ele>
        <time>2010-12-13T10:05:27Z</time>
      </trkpt>
      <trkpt lat="46.321377" lon="15.061276">
        <ele>624.5352</ele>
        <time>2010-12-13T10:05:31Z</time>
      </trkpt>
      <trkpt lat="46.321331" lon="15.061286">
        <ele>622.0968</ele>
        <time>2010-12-13T10:05:36Z</time>
      </trkpt>
      <trkpt lat="46.321259" lon="15.061351">
        <ele>619.6584</ele>
        <time>2010-12-13T10:05:43Z</time>
      </trkpt>
      <trkpt lat="46.321201" lon="15.061350">
        <ele>618.744</ele>
        <time>2010-12-13T10:05:47Z</time>
      </trkpt>
      <trkpt lat="46.321159" lon="15.061389">
        <ele>616.9152</ele>
        <time>2010-12-13T10:05:51Z</time>
      </trkpt>
      <trkpt lat="46.321156" lon="15.061428">
        <ele>615.0864</ele>
        <time>2010-12-13T10:05:54Z</time>
      </trkpt>
      <trkpt lat="46.321045" lon="15.061462">
        <ele>612.0384</ele>
        <time>2010-12-13T10:06:07Z</time>
      </trkpt>
      <trkpt lat="46.321037" lon="15.061472">
        <ele>612.0384</ele>
        <time>2010-12-13T10:06:10Z</time>
      </trkpt>
      <trkpt lat="46.321007" lon="15.061474">
        <ele>611.124</ele>
        <time>2010-12-13T10:06:13Z</time>
      </trkpt>
      <trkpt lat="46.320965" lon="15.061478">
        <ele>609.6</ele>
        <time>2010-12-13T10:06:17Z</time>
      </trkpt>
      <trkpt lat="46.320950" lon="15.061458">
        <ele>608.076</ele>
        <time>2010-12-13T10:06:18Z</time>
      </trkpt>
      <trkpt lat="46.320930" lon="15.061459">
        <ele>607.4664</ele>
        <time>2010-12-13T10:06:22Z</time>
      </trkpt>
      <trkpt lat="46.320843" lon="15.061447">
        <ele>605.6376</ele>
        <time>2010-12-13T10:06:26Z</time>
      </trkpt>
      <trkpt lat="46.320824" lon="15.061462">
        <ele>605.3328</ele>
        <time>2010-12-13T10:06:29Z</time>
      </trkpt>
      <trkpt lat="46.320683" lon="15.061429">
        <ele>601.3704</ele>
        <time>2010-12-13T10:06:41Z</time>
      </trkpt>
      <trkpt lat="46.320625" lon="15.061417">
        <ele>600.1512</ele>
        <time>2010-12-13T10:06:46Z</time>
      </trkpt>
      <trkpt lat="46.320503" lon="15.061486">
        <ele>595.5792</ele>
        <time>2010-12-13T10:07:00Z</time>
      </trkpt>
      <trkpt lat="46.320343" lon="15.061485">
        <ele>592.2264</ele>
        <time>2010-12-13T10:07:12Z</time>
      </trkpt>
      <trkpt lat="46.320255" lon="15.061446">
        <ele>591.312</ele>
        <time>2010-12-13T10:07:17Z</time>
      </trkpt>
      <trkpt lat="46.320091" lon="15.061460">
        <ele>587.3496</ele>
        <time>2010-12-13T10:07:30Z</time>
      </trkpt>
      <trkpt lat="46.319935" lon="15.061433">
        <ele>586.4352</ele>
        <time>2010-12-13T10:07:39Z</time>
      </trkpt>
      <trkpt lat="46.319870" lon="15.061444">
        <ele>583.9968</ele>
        <time>2010-12-13T10:07:44Z</time>
      </trkpt>
      <trkpt lat="46.319790" lon="15.061478">
        <ele>581.2536</ele>
        <time>2010-12-13T10:07:53Z</time>
      </trkpt>
      <trkpt lat="46.319698" lon="15.061511">
        <ele>577.9008</ele>
        <time>2010-12-13T10:08:02Z</time>
      </trkpt>
      <trkpt lat="46.319595" lon="15.061524">
        <ele>574.548</ele>
        <time>2010-12-13T10:08:10Z</time>
      </trkpt>
      <trkpt lat="46.319584" lon="15.061529">
        <ele>574.8528</ele>
        <time>2010-12-13T10:08:11Z</time>
      </trkpt>
      <trkpt lat="46.319466" lon="15.061526">
        <ele>570.8904</ele>
        <time>2010-12-13T10:08:22Z</time>
      </trkpt>
      <trkpt lat="46.319408" lon="15.061531">
        <ele>569.0616</ele>
        <time>2010-12-13T10:08:29Z</time>
      </trkpt>
      <trkpt lat="46.319263" lon="15.061521">
        <ele>564.7944</ele>
        <time>2010-12-13T10:08:41Z</time>
      </trkpt>
      <trkpt lat="46.319260" lon="15.061521">
        <ele>565.0992</ele>
        <time>2010-12-13T10:08:41Z</time>
      </trkpt>
      <trkpt lat="46.319214" lon="15.061516">
        <ele>563.88</ele>
        <time>2010-12-13T10:08:45Z</time>
      </trkpt>
      <trkpt lat="46.319080" lon="15.061533">
        <ele>560.5272</ele>
        <time>2010-12-13T10:08:56Z</time>
      </trkpt>
      <trkpt lat="46.319069" lon="15.061533">
        <ele>560.5272</ele>
        <time>2010-12-13T10:08:56Z</time>
      </trkpt>
      <trkpt lat="46.318947" lon="15.061548">
        <ele>556.5648</ele>
        <time>2010-12-13T10:09:08Z</time>
      </trkpt>
      <trkpt lat="46.318905" lon="15.061539">
        <ele>554.736</ele>
        <time>2010-12-13T10:09:14Z</time>
      </trkpt>
      <trkpt lat="46.318748" lon="15.061485">
        <ele>554.1264</ele>
        <time>2010-12-13T10:09:27Z</time>
      </trkpt>
      <trkpt lat="46.318592" lon="15.061345">
        <ele>554.1264</ele>
        <time>2010-12-13T10:09:42Z</time>
      </trkpt>
      <trkpt lat="46.318443" lon="15.061257">
        <ele>554.1264</ele>
        <time>2010-12-13T10:09:54Z</time>
      </trkpt>
      <trkpt lat="46.318272" lon="15.061107">
        <ele>552.9072</ele>
        <time>2010-12-13T10:10:09Z</time>
      </trkpt>
      <trkpt lat="46.318260" lon="15.061093">
        <ele>552.9072</ele>
        <time>2010-12-13T10:10:14Z</time>
      </trkpt>
      <trkpt lat="46.318226" lon="15.061066">
        <ele>551.688</ele>
        <time>2010-12-13T10:10:18Z</time>
      </trkpt>
      <trkpt lat="46.318211" lon="15.061050">
        <ele>551.3832</ele>
        <time>2010-12-13T10:10:21Z</time>
      </trkpt>
      <trkpt lat="46.318069" lon="15.060881">
        <ele>548.9448</ele>
        <time>2010-12-13T10:10:36Z</time>
      </trkpt>
      <trkpt lat="46.317986" lon="15.060792">
        <ele>547.7256</ele>
        <time>2010-12-13T10:10:44Z</time>
      </trkpt>
      <trkpt lat="46.317822" lon="15.060585">
        <ele>544.068</ele>
        <time>2010-12-13T10:10:59Z</time>
      </trkpt>
      <trkpt lat="46.317688" lon="15.060391">
        <ele>541.9344</ele>
        <time>2010-12-13T10:11:10Z</time>
      </trkpt>
      <trkpt lat="46.317562" lon="15.060249">
        <ele>538.8864</ele>
        <time>2010-12-13T10:11:20Z</time>
      </trkpt>
      <trkpt lat="46.317375" lon="15.060045">
        <ele>536.1432</ele>
        <time>2010-12-13T10:11:37Z</time>
      </trkpt>
      <trkpt lat="46.317261" lon="15.059834">
        <ele>532.4856</ele>
        <time>2010-12-13T10:11:50Z</time>
      </trkpt>
      <trkpt lat="46.317101" lon="15.059720">
        <ele>530.6568</ele>
        <time>2010-12-13T10:12:02Z</time>
      </trkpt>
      <trkpt lat="46.316952" lon="15.059691">
        <ele>529.1328</ele>
        <time>2010-12-13T10:12:13Z</time>
      </trkpt>
      <trkpt lat="46.316757" lon="15.059651">
        <ele>527.304</ele>
        <time>2010-12-13T10:12:25Z</time>
      </trkpt>
      <trkpt lat="46.316593" lon="15.059653">
        <ele>525.4752</ele>
        <time>2010-12-13T10:12:37Z</time>
      </trkpt>
      <trkpt lat="46.316395" lon="15.059694">
        <ele>523.3416</ele>
        <time>2010-12-13T10:12:52Z</time>
      </trkpt>
      <trkpt lat="46.316299" lon="15.059538">
        <ele>521.5128</ele>
        <time>2010-12-13T10:13:03Z</time>
      </trkpt>
      <trkpt lat="46.316189" lon="15.059432">
        <ele>518.4648</ele>
        <time>2010-12-13T10:13:17Z</time>
      </trkpt>
      <trkpt lat="46.316189" lon="15.059432">
        <ele>518.4648</ele>
        <time>2010-12-13T10:13:23Z</time>
      </trkpt>
      <trkpt lat="46.316162" lon="15.059403">
        <ele>518.16</ele>
        <time>2010-12-13T10:13:26Z</time>
      </trkpt>
      <trkpt lat="46.316105" lon="15.059334">
        <ele>516.9408</ele>
        <time>2010-12-13T10:13:34Z</time>
      </trkpt>
      <trkpt lat="46.316116" lon="15.059295">
        <ele>515.4168</ele>
        <time>2010-12-13T10:13:38Z</time>
      </trkpt>
      <trkpt lat="46.316307" lon="15.059191">
        <ele>513.2832</ele>
        <time>2010-12-13T10:13:53Z</time>
      </trkpt>
      <trkpt lat="46.316460" lon="15.059037">
        <ele>513.2832</ele>
        <time>2010-12-13T10:14:05Z</time>
      </trkpt>
      <trkpt lat="46.316521" lon="15.058849">
        <ele>509.9304</ele>
        <time>2010-12-13T10:14:16Z</time>
      </trkpt>
      <trkpt lat="46.316528" lon="15.058755">
        <ele>508.7112</ele>
        <time>2010-12-13T10:14:21Z</time>
      </trkpt>
      <trkpt lat="46.316551" lon="15.058709">
        <ele>507.492</ele>
        <time>2010-12-13T10:14:24Z</time>
      </trkpt>
      <trkpt lat="46.316605" lon="15.058545">
        <ele>505.6632</ele>
        <time>2010-12-13T10:14:32Z</time>
      </trkpt>
      <trkpt lat="46.316658" lon="15.058338">
        <ele>502.3104</ele>
        <time>2010-12-13T10:14:43Z</time>
      </trkpt>
      <trkpt lat="46.316696" lon="15.058061">
        <ele>499.872</ele>
        <time>2010-12-13T10:14:56Z</time>
      </trkpt>
      <trkpt lat="46.316769" lon="15.057893">
        <ele>498.9576</ele>
        <time>2010-12-13T10:15:07Z</time>
      </trkpt>
      <trkpt lat="46.316811" lon="15.057766">
        <ele>497.1288</ele>
        <time>2010-12-13T10:15:14Z</time>
      </trkpt>
      <trkpt lat="46.316864" lon="15.057676">
        <ele>495.6048</ele>
        <time>2010-12-13T10:15:19Z</time>
      </trkpt>
      <trkpt lat="46.316944" lon="15.057567">
        <ele>493.1664</ele>
        <time>2010-12-13T10:15:29Z</time>
      </trkpt>
      <trkpt lat="46.316940" lon="15.057513">
        <ele>492.252</ele>
        <time>2010-12-13T10:15:33Z</time>
      </trkpt>
      <trkpt lat="46.316868" lon="15.057496">
        <ele>490.728</ele>
        <time>2010-12-13T10:15:37Z</time>
      </trkpt>
      <trkpt lat="46.316799" lon="15.057511">
        <ele>489.8136</ele>
        <time>2010-12-13T10:15:42Z</time>
      </trkpt>
      <trkpt lat="46.316639" lon="15.057586">
        <ele>485.8512</ele>
        <time>2010-12-13T10:15:54Z</time>
      </trkpt>
      <trkpt lat="46.316509" lon="15.057662">
        <ele>483.108</ele>
        <time>2010-12-13T10:16:04Z</time>
      </trkpt>
      <trkpt lat="46.316387" lon="15.057731">
        <ele>479.7552</ele>
        <time>2010-12-13T10:16:12Z</time>
      </trkpt>
      <trkpt lat="46.316368" lon="15.057743">
        <ele>478.8408</ele>
        <time>2010-12-13T10:16:15Z</time>
      </trkpt>
      <trkpt lat="46.316345" lon="15.057677">
        <ele>476.7072</ele>
        <time>2010-12-13T10:16:20Z</time>
      </trkpt>
      <trkpt lat="46.316353" lon="15.057623">
        <ele>475.7928</ele>
        <time>2010-12-13T10:16:24Z</time>
      </trkpt>
      <trkpt lat="46.316368" lon="15.057604">
        <ele>475.488</ele>
        <time>2010-12-13T10:16:27Z</time>
      </trkpt>
      <trkpt lat="46.316372" lon="15.057522">
        <ele>473.964</ele>
        <time>2010-12-13T10:16:31Z</time>
      </trkpt>
      <trkpt lat="46.316437" lon="15.057357">
        <ele>470.916</ele>
        <time>2010-12-13T10:16:42Z</time>
      </trkpt>
      <trkpt lat="46.316483" lon="15.057240">
        <ele>469.6968</ele>
        <time>2010-12-13T10:16:53Z</time>
      </trkpt>
      <trkpt lat="46.316532" lon="15.057196">
        <ele>468.1728</ele>
        <time>2010-12-13T10:16:58Z</time>
      </trkpt>
      <trkpt lat="46.316578" lon="15.057085">
        <ele>466.6488</ele>
        <time>2010-12-13T10:17:05Z</time>
      </trkpt>
      <trkpt lat="46.316628" lon="15.056956">
        <ele>464.5152</ele>
        <time>2010-12-13T10:17:13Z</time>
      </trkpt>
      <trkpt lat="46.316692" lon="15.056832">
        <ele>462.3816</ele>
        <time>2010-12-13T10:17:22Z</time>
      </trkpt>
      <trkpt lat="46.316719" lon="15.056777">
        <ele>462.0768</ele>
        <time>2010-12-13T10:17:25Z</time>
      </trkpt>
      <trkpt lat="46.316792" lon="15.056770">
        <ele>459.9432</ele>
        <time>2010-12-13T10:17:33Z</time>
      </trkpt>
      <trkpt lat="46.316826" lon="15.056744">
        <ele>458.1144</ele>
        <time>2010-12-13T10:17:37Z</time>
      </trkpt>
      <trkpt lat="46.316833" lon="15.056737">
        <ele>457.5048</ele>
        <time>2010-12-13T10:17:37Z</time>
      </trkpt>
      <trkpt lat="46.316860" lon="15.056716">
        <ele>456.5904</ele>
        <time>2010-12-13T10:17:41Z</time>
      </trkpt>
      <trkpt lat="46.316986" lon="15.056612">
        <ele>452.9328</ele>
        <time>2010-12-13T10:17:52Z</time>
      </trkpt>
      <trkpt lat="46.316998" lon="15.056608">
        <ele>452.3232</ele>
        <time>2010-12-13T10:17:53Z</time>
      </trkpt>
      <trkpt lat="46.317005" lon="15.056577">
        <ele>451.4088</ele>
        <time>2010-12-13T10:17:56Z</time>
      </trkpt>
      <trkpt lat="46.317039" lon="15.056466">
        <ele>449.8848</ele>
        <time>2010-12-13T10:18:01Z</time>
      </trkpt>
      <trkpt lat="46.317059" lon="15.056174">
        <ele>446.532</ele>
        <time>2010-12-13T10:18:16Z</time>
      </trkpt>
      <trkpt lat="46.317081" lon="15.055978">
        <ele>445.9224</ele>
        <time>2010-12-13T10:18:28Z</time>
      </trkpt>
      <trkpt lat="46.317131" lon="15.055803">
        <ele>447.1416</ele>
        <time>2010-12-13T10:18:38Z</time>
      </trkpt>
      <trkpt lat="46.317181" lon="15.055717">
        <ele>447.7512</ele>
        <time>2010-12-13T10:18:45Z</time>
      </trkpt>
      <trkpt lat="46.317284" lon="15.055537">
        <ele>447.7512</ele>
        <time>2010-12-13T10:18:57Z</time>
      </trkpt>
      <trkpt lat="46.317310" lon="15.055449">
        <ele>447.1416</ele>
        <time>2010-12-13T10:19:02Z</time>
      </trkpt>
      <trkpt lat="46.317371" lon="15.055346">
        <ele>445.6176</ele>
        <time>2010-12-13T10:19:09Z</time>
      </trkpt>
      <trkpt lat="46.317398" lon="15.055305">
        <ele>445.3128</ele>
        <time>2010-12-13T10:19:12Z</time>
      </trkpt>
      <trkpt lat="46.317410" lon="15.055271">
        <ele>444.7032</ele>
        <time>2010-12-13T10:19:13Z</time>
      </trkpt>
      <trkpt lat="46.317513" lon="15.055132">
        <ele>441.3504</ele>
        <time>2010-12-13T10:19:25Z</time>
      </trkpt>
      <trkpt lat="46.317741" lon="15.055114">
        <ele>440.436</ele>
        <time>2010-12-13T10:19:41Z</time>
      </trkpt>
      <trkpt lat="46.317863" lon="15.055104">
        <ele>441.3504</ele>
        <time>2010-12-13T10:19:51Z</time>
      </trkpt>
      <trkpt lat="46.317917" lon="15.055036">
        <ele>439.5216</ele>
        <time>2010-12-13T10:19:56Z</time>
      </trkpt>
      <trkpt lat="46.318054" lon="15.054893">
        <ele>435.864</ele>
        <time>2010-12-13T10:20:07Z</time>
      </trkpt>
      <trkpt lat="46.318108" lon="15.054789">
        <ele>435.5592</ele>
        <time>2010-12-13T10:20:15Z</time>
      </trkpt>
      <trkpt lat="46.318146" lon="15.054628">
        <ele>435.5592</ele>
        <time>2010-12-13T10:20:23Z</time>
      </trkpt>
      <trkpt lat="46.318207" lon="15.054512">
        <ele>434.9496</ele>
        <time>2010-12-13T10:20:31Z</time>
      </trkpt>
      <trkpt lat="46.318260" lon="15.054377">
        <ele>434.9496</ele>
        <time>2010-12-13T10:20:38Z</time>
      </trkpt>
      <trkpt lat="46.318417" lon="15.054179">
        <ele>433.1208</ele>
        <time>2010-12-13T10:20:54Z</time>
      </trkpt>
      <trkpt lat="46.318428" lon="15.054130">
        <ele>432.5112</ele>
        <time>2010-12-13T10:20:57Z</time>
      </trkpt>
      <trkpt lat="46.318455" lon="15.054079">
        <ele>432.2064</ele>
        <time>2010-12-13T10:21:00Z</time>
      </trkpt>
      <trkpt lat="46.318489" lon="15.053972">
        <ele>432.2064</ele>
        <time>2010-12-13T10:21:05Z</time>
      </trkpt>
      <trkpt lat="46.318645" lon="15.053720">
        <ele>430.6824</ele>
        <time>2010-12-13T10:21:21Z</time>
      </trkpt>
      <trkpt lat="46.318672" lon="15.053681">
        <ele>430.0728</ele>
        <time>2010-12-13T10:21:24Z</time>
      </trkpt>
      <trkpt lat="46.318687" lon="15.053656">
        <ele>430.0728</ele>
        <time>2010-12-13T10:21:25Z</time>
      </trkpt>
      <trkpt lat="46.318733" lon="15.053587">
        <ele>430.0728</ele>
        <time>2010-12-13T10:21:31Z</time>
      </trkpt>
      <trkpt lat="46.318775" lon="15.053488">
        <ele>429.1584</ele>
        <time>2010-12-13T10:21:36Z</time>
      </trkpt>
      <trkpt lat="46.318787" lon="15.053458">
        <ele>429.768</ele>
        <time>2010-12-13T10:21:39Z</time>
      </trkpt>
      <trkpt lat="46.318832" lon="15.053401">
        <ele>428.244</ele>
        <time>2010-12-13T10:21:44Z</time>
      </trkpt>
      <trkpt lat="46.318962" lon="15.053272">
        <ele>427.3296</ele>
        <time>2010-12-13T10:21:56Z</time>
      </trkpt>
      <trkpt lat="46.319080" lon="15.053171">
        <ele>424.8912</ele>
        <time>2010-12-13T10:22:07Z</time>
      </trkpt>
      <trkpt lat="46.319237" lon="15.053017">
        <ele>423.672</ele>
        <time>2010-12-13T10:22:21Z</time>
      </trkpt>
      <trkpt lat="46.319366" lon="15.052851">
        <ele>422.4528</ele>
        <time>2010-12-13T10:22:34Z</time>
      </trkpt>
      <trkpt lat="46.319523" lon="15.052714">
        <ele>420.624</ele>
        <time>2010-12-13T10:22:48Z</time>
      </trkpt>
      <trkpt lat="46.319557" lon="15.052649">
        <ele>419.1</ele>
        <time>2010-12-13T10:22:52Z</time>
      </trkpt>
      <trkpt lat="46.319603" lon="15.052598">
        <ele>418.1856</ele>
        <time>2010-12-13T10:22:56Z</time>
      </trkpt>
      <trkpt lat="46.319759" lon="15.052395">
        <ele>416.6616</ele>
        <time>2010-12-13T10:23:09Z</time>
      </trkpt>
      <trkpt lat="46.319904" lon="15.052290">
        <ele>415.7472</ele>
        <time>2010-12-13T10:23:21Z</time>
      </trkpt>
      <trkpt lat="46.319969" lon="15.052232">
        <ele>414.8328</ele>
        <time>2010-12-13T10:23:28Z</time>
      </trkpt>
      <trkpt lat="46.320114" lon="15.052052">
        <ele>413.3088</ele>
        <time>2010-12-13T10:23:40Z</time>
      </trkpt>
      <trkpt lat="46.320202" lon="15.052011">
        <ele>412.3944</ele>
        <time>2010-12-13T10:23:47Z</time>
      </trkpt>
      <trkpt lat="46.320290" lon="15.051902">
        <ele>410.8704</ele>
        <time>2010-12-13T10:23:55Z</time>
      </trkpt>
      <trkpt lat="46.320396" lon="15.051823">
        <ele>409.0416</ele>
        <time>2010-12-13T10:24:07Z</time>
      </trkpt>
      <trkpt lat="46.320427" lon="15.051806">
        <ele>408.7368</ele>
        <time>2010-12-13T10:24:10Z</time>
      </trkpt>
      <trkpt lat="46.320560" lon="15.051685">
        <ele>406.2984</ele>
        <time>2010-12-13T10:24:21Z</time>
      </trkpt>
      <trkpt lat="46.320652" lon="15.051603">
        <ele>406.2984</ele>
        <time>2010-12-13T10:24:27Z</time>
      </trkpt>
      <trkpt lat="46.320709" lon="15.051569">
        <ele>405.0792</ele>
        <time>2010-12-13T10:24:33Z</time>
      </trkpt>
      <trkpt lat="46.320766" lon="15.051570">
        <ele>405.0792</ele>
        <time>2010-12-13T10:24:37Z</time>
      </trkpt>
      <trkpt lat="46.320808" lon="15.051561">
        <ele>404.7744</ele>
        <time>2010-12-13T10:24:41Z</time>
      </trkpt>
      <trkpt lat="46.321022" lon="15.051473">
        <ele>402.9456</ele>
        <time>2010-12-13T10:24:57Z</time>
      </trkpt>
      <trkpt lat="46.321201" lon="15.051376">
        <ele>401.7264</ele>
        <time>2010-12-13T10:25:09Z</time>
      </trkpt>
      <trkpt lat="46.321316" lon="15.051286">
        <ele>399.8976</ele>
        <time>2010-12-13T10:25:20Z</time>
      </trkpt>
      <trkpt lat="46.321369" lon="15.051241">
        <ele>398.6784</ele>
        <time>2010-12-13T10:25:24Z</time>
      </trkpt>
      <trkpt lat="46.321445" lon="15.051201">
        <ele>397.4592</ele>
        <time>2010-12-13T10:25:30Z</time>
      </trkpt>
      <trkpt lat="46.321602" lon="15.051163">
        <ele>394.1064</ele>
        <time>2010-12-13T10:25:40Z</time>
      </trkpt>
      <trkpt lat="46.321659" lon="15.051155">
        <ele>393.4968</ele>
        <time>2010-12-13T10:25:46Z</time>
      </trkpt>
      <trkpt lat="46.321686" lon="15.051129">
        <ele>392.2776</ele>
        <time>2010-12-13T10:25:48Z</time>
      </trkpt>
      <trkpt lat="46.321705" lon="15.051101">
        <ele>391.668</ele>
        <time>2010-12-13T10:25:51Z</time>
      </trkpt>
      <trkpt lat="46.321865" lon="15.050982">
        <ele>388.3152</ele>
        <time>2010-12-13T10:26:02Z</time>
      </trkpt>
      <trkpt lat="46.321880" lon="15.050977">
        <ele>388.0104</ele>
        <time>2010-12-13T10:26:03Z</time>
      </trkpt>
      <trkpt lat="46.321907" lon="15.050948">
        <ele>387.4008</ele>
        <time>2010-12-13T10:26:06Z</time>
      </trkpt>
      <trkpt lat="46.322147" lon="15.050862">
        <ele>385.572</ele>
        <time>2010-12-13T10:26:22Z</time>
      </trkpt>
      <trkpt lat="46.322357" lon="15.050793">
        <ele>383.1336</ele>
        <time>2010-12-13T10:26:37Z</time>
      </trkpt>
      <trkpt lat="46.322441" lon="15.050715">
        <ele>380.6952</ele>
        <time>2010-12-13T10:26:44Z</time>
      </trkpt>
      <trkpt lat="46.322578" lon="15.050641">
        <ele>379.7808</ele>
        <time>2010-12-13T10:26:52Z</time>
      </trkpt>
      <trkpt lat="46.322697" lon="15.050433">
        <ele>377.952</ele>
        <time>2010-12-13T10:27:05Z</time>
      </trkpt>
      <trkpt lat="46.322720" lon="15.050406">
        <ele>377.3424</ele>
        <time>2010-12-13T10:27:08Z</time>
      </trkpt>
      <trkpt lat="46.322758" lon="15.050349">
        <ele>376.7328</ele>
        <time>2010-12-13T10:27:12Z</time>
      </trkpt>
      <trkpt lat="46.322887" lon="15.050126">
        <ele>374.2944</ele>
        <time>2010-12-13T10:27:27Z</time>
      </trkpt>
      <trkpt lat="46.323071" lon="15.050229">
        <ele>377.3424</ele>
        <time>2010-12-13T10:27:43Z</time>
      </trkpt>
      <trkpt lat="46.323219" lon="15.050241">
        <ele>374.904</ele>
        <time>2010-12-13T10:27:57Z</time>
      </trkpt>
      <trkpt lat="46.323273" lon="15.050185">
        <ele>373.0752</ele>
        <time>2010-12-13T10:28:02Z</time>
      </trkpt>
      <trkpt lat="46.323322" lon="15.050137">
        <ele>371.5512</ele>
        <time>2010-12-13T10:28:06Z</time>
      </trkpt>
      <trkpt lat="46.323505" lon="15.049905">
        <ele>369.1128</ele>
        <time>2010-12-13T10:28:22Z</time>
      </trkpt>
      <trkpt lat="46.323673" lon="15.049743">
        <ele>367.284</ele>
        <time>2010-12-13T10:28:37Z</time>
      </trkpt>
      <trkpt lat="46.323738" lon="15.049732">
        <ele>365.4552</ele>
        <time>2010-12-13T10:28:41Z</time>
      </trkpt>
      <trkpt lat="46.323765" lon="15.049708">
        <ele>364.8456</ele>
        <time>2010-12-13T10:28:44Z</time>
      </trkpt>
      <trkpt lat="46.323784" lon="15.049668">
        <ele>364.8456</ele>
        <time>2010-12-13T10:28:45Z</time>
      </trkpt>
      <trkpt lat="46.323997" lon="15.049520">
        <ele>362.1024</ele>
        <time>2010-12-13T10:29:02Z</time>
      </trkpt>
      <trkpt lat="46.324211" lon="15.049484">
        <ele>362.1024</ele>
        <time>2010-12-13T10:29:18Z</time>
      </trkpt>
      <trkpt lat="46.324390" lon="15.049408">
        <ele>364.5408</ele>
        <time>2010-12-13T10:29:34Z</time>
      </trkpt>
      <trkpt lat="46.324627" lon="15.049236">
        <ele>363.0168</ele>
        <time>2010-12-13T10:29:54Z</time>
      </trkpt>
      <trkpt lat="46.324638" lon="15.049230">
        <ele>362.4072</ele>
        <time>2010-12-13T10:29:54Z</time>
      </trkpt>
      <trkpt lat="46.324715" lon="15.049199">
        <ele>360.5784</ele>
        <time>2010-12-13T10:30:01Z</time>
      </trkpt>
      <trkpt lat="46.324780" lon="15.049149">
        <ele>360.5784</ele>
        <time>2010-12-13T10:30:06Z</time>
      </trkpt>
      <trkpt lat="46.324741" lon="15.048964">
        <ele>358.7496</ele>
        <time>2010-12-13T10:30:17Z</time>
      </trkpt>
      <trkpt lat="46.324741" lon="15.048695">
        <ele>354.7872</ele>
        <time>2010-12-13T10:30:29Z</time>
      </trkpt>
      <trkpt lat="46.324776" lon="15.048406">
        <ele>351.7392</ele>
        <time>2010-12-13T10:30:43Z</time>
      </trkpt>
      <trkpt lat="46.324860" lon="15.048078">
        <ele>348.6912</ele>
        <time>2010-12-13T10:30:58Z</time>
      </trkpt>
      <trkpt lat="46.324852" lon="15.047832">
        <ele>345.3384</ele>
        <time>2010-12-13T10:31:08Z</time>
      </trkpt>
      <trkpt lat="46.324833" lon="15.047530">
        <ele>341.6808</ele>
        <time>2010-12-13T10:31:22Z</time>
      </trkpt>
      <trkpt lat="46.324799" lon="15.047272">
        <ele>338.328</ele>
        <time>2010-12-13T10:31:34Z</time>
      </trkpt>
      <trkpt lat="46.324757" lon="15.046995">
        <ele>334.6704</ele>
        <time>2010-12-13T10:31:46Z</time>
      </trkpt>
      <trkpt lat="46.324730" lon="15.046728">
        <ele>331.6224</ele>
        <time>2010-12-13T10:31:58Z</time>
      </trkpt>
      <trkpt lat="46.324718" lon="15.046609">
        <ele>330.0984</ele>
        <time>2010-12-13T10:32:04Z</time>
      </trkpt>
      <trkpt lat="46.324745" lon="15.046446">
        <ele>327.66</ele>
        <time>2010-12-13T10:32:11Z</time>
      </trkpt>
      <trkpt lat="46.324772" lon="15.046234">
        <ele>326.7456</ele>
        <time>2010-12-13T10:32:17Z</time>
      </trkpt>
      <trkpt lat="46.324627" lon="15.045828">
        <ele>324.3072</ele>
        <time>2010-12-13T10:32:31Z</time>
      </trkpt>
      <trkpt lat="46.324490" lon="15.045639">
        <ele>321.8688</ele>
        <time>2010-12-13T10:32:42Z</time>
      </trkpt>
      <trkpt lat="46.324467" lon="15.045582">
        <ele>321.8688</ele>
        <time>2010-12-13T10:32:43Z</time>
      </trkpt>
      <trkpt lat="46.324406" lon="15.045400">
        <ele>321.564</ele>
        <time>2010-12-13T10:32:48Z</time>
      </trkpt>
      <trkpt lat="46.324287" lon="15.045025">
        <ele>321.2592</ele>
        <time>2010-12-13T10:32:59Z</time>
      </trkpt>
      <trkpt lat="46.324165" lon="15.044770">
        <ele>320.6496</ele>
        <time>2010-12-13T10:33:10Z</time>
      </trkpt>
      <trkpt lat="46.323997" lon="15.044546">
        <ele>319.7352</ele>
        <time>2010-12-13T10:33:26Z</time>
      </trkpt>
      <trkpt lat="46.323833" lon="15.044283">
        <ele>319.1256</ele>
        <time>2010-12-13T10:33:42Z</time>
      </trkpt>
      <trkpt lat="46.323780" lon="15.044210">
        <ele>318.2112</ele>
        <time>2010-12-13T10:33:48Z</time>
      </trkpt>
      <trkpt lat="46.323734" lon="15.044151">
        <ele>317.2968</ele>
        <time>2010-12-13T10:33:52Z</time>
      </trkpt>
      <trkpt lat="46.323528" lon="15.043918">
        <ele>316.3824</ele>
        <time>2010-12-13T10:34:09Z</time>
      </trkpt>
      <trkpt lat="46.323486" lon="15.043900">
        <ele>316.6872</ele>
        <time>2010-12-13T10:34:16Z</time>
      </trkpt>
    </trkseg>
  </trk>
</gpx>
